Wetterdaten: Samstag, 07.01.2023
Datum Zeit Temp. 2m Temp +5 cm Feuchte A. Luftdruck Regen Wind Richtung Richtung Sonnenschein UV Solar Taupunkt Windchill Windben
07.01.2023 00:00 7,9 C 7,2 C 92 % 1021,0 hPa 0,0 l/m 14,5 km/h (3 Bft) S-SO 157 0 min 0,0 UV-I 0 W/m 6,7 C 2,8 C 19,3 km/h (3 Bft)
07.01.2023 00:01 7,9 C 7,2 C 92 % 1021,1 hPa 0,0 l/m 12,9 km/h (3 Bft) S 180 0 min 0,0 UV-I 0 W/m 6,7 C 3,6 C 19,3 km/h (3 Bft)
07.01.2023 00:02 7,9 C 7,2 C 92 % 1021,0 hPa 0,0 l/m 16,1 km/h (3 Bft) S 180 0 min 0,0 UV-I 0 W/m 6,7 C 2,1 C 25,7 km/h (4 Bft)
07.01.2023 00:03 7,9 C 7,2 C 92 % 1021,0 hPa 0,0 l/m 14,5 km/h (3 Bft) S 180 0 min 0,0 UV-I 0 W/m 6,7 C 2,8 C 22,5 km/h (4 Bft)
07.01.2023 00:04 7,9 C 7,2 C 92 % 1021,0 hPa 0,0 l/m 9,7 km/h (2 Bft) S 180 0 min 0,0 UV-I 0 W/m 6,7 C 5,5 C 16,1 km/h (3 Bft)
07.01.2023 00:05 7,9 C 7,2 C 92 % 1021,0 hPa 0,0 l/m 8,0 km/h (2 Bft) S 180 0 min 0,0 UV-I 0 W/m 6,7 C 6,6 C 11,3 km/h (2 Bft)
07.01.2023 00:06 7,9 C 7,2 C 92 % 1021,1 hPa 0,0 l/m 9,7 km/h (2 Bft) S 180 0 min 0,0 UV-I 0 W/m 6,7 C 5,5 C 16,1 km/h (3 Bft)
07.01.2023 00:07 7,9 C 7,2 C 92 % 1021,0 hPa 0,0 l/m 8,0 km/h (2 Bft) S 180 0 min 0,0 UV-I 0 W/m 6,7 C 6,6 C 14,5 km/h (3 Bft)
07.01.2023 00:08 7,9 C 7,2 C 92 % 1021,1 hPa 0,0 l/m 12,9 km/h (3 Bft) S 180 0 min 0,0 UV-I 0 W/m 6,7 C 3,6 C 19,3 km/h (3 Bft)
07.01.2023 00:09 7,9 C 7,2 C 92 % 1021,0 hPa 0,0 l/m 12,9 km/h (3 Bft) S 180 0 min 0,0 UV-I 0 W/m 6,7 C 3,6 C 19,3 km/h (3 Bft)
07.01.2023 00:10 7,9 C 7,2 C 92 % 1021,1 hPa 0,0 l/m 11,3 km/h (2 Bft) S 180 0 min 0,0 UV-I 0 W/m 6,7 C 4,5 C 16,1 km/h (3 Bft)
07.01.2023 00:11 7,9 C 7,2 C 92 % 1021,0 hPa 0,0 l/m 12,9 km/h (3 Bft) S 180 0 min 0,0 UV-I 0 W/m 6,7 C 3,6 C 19,3 km/h (3 Bft)
07.01.2023 00:12 7,9 C 7,2 C 92 % 1021,0 hPa 0,0 l/m 11,3 km/h (2 Bft) S 180 0 min 0,0 UV-I 0 W/m 6,7 C 4,5 C 16,1 km/h (3 Bft)
07.01.2023 00:13 7,9 C 7,2 C 92 % 1021,0 hPa 0,0 l/m 8,0 km/h (2 Bft) S-SW 202 0 min 0,0 UV-I 0 W/m 6,7 C 6,6 C 12,9 km/h (3 Bft)
07.01.2023 00:14 7,9 C 7,2 C 92 % 1021,0 hPa 0,0 l/m 12,9 km/h (3 Bft) S 180 0 min 0,0 UV-I 0 W/m 6,7 C 3,6 C 19,3 km/h (3 Bft)
07.01.2023 00:15 7,9 C 7,2 C 92 % 1021,0 hPa 0,0 l/m 14,5 km/h (3 Bft) S 180 0 min 0,0 UV-I 0 W/m 6,7 C 2,8 C 19,3 km/h (3 Bft)
07.01.2023 00:16 7,9 C 7,2 C 92 % 1020,9 hPa 0,0 l/m 12,9 km/h (3 Bft) S 180 0 min 0,0 UV-I 0 W/m 6,7 C 3,6 C 17,7 km/h (3 Bft)
07.01.2023 00:17 7,9 C 7,2 C 92 % 1021,0 hPa 0,0 l/m 9,7 km/h (2 Bft) S 180 0 min 0,0 UV-I 0 W/m 6,7 C 5,5 C 14,5 km/h (3 Bft)
07.01.2023 00:18 7,9 C 7,2 C 92 % 1021,0 hPa 0,0 l/m 9,7 km/h (2 Bft) S 180 0 min 0,0 UV-I 0 W/m 6,7 C 5,5 C 12,9 km/h (3 Bft)
07.01.2023 00:19 7,9 C 7,2 C 92 % 1021,1 hPa 0,0 l/m 6,4 km/h (2 Bft) S 180 0 min 0,0 UV-I 0 W/m 6,7 C 7,9 C 8,0 km/h (2 Bft)
07.01.2023 00:20 7,9 C 7,2 C 92 % 1021,0 hPa 0,0 l/m 9,7 km/h (2 Bft) S 180 0 min 0,0 UV-I 0 W/m 6,7 C 5,5 C 12,9 km/h (3 Bft)
07.01.2023 00:21 7,9 C 7,2 C 92 % 1020,9 hPa 0,0 l/m 11,3 km/h (2 Bft) S 180 0 min 0,0 UV-I 0 W/m 6,7 C 4,5 C 19,3 km/h (3 Bft)
07.01.2023 00:22 7,9 C 7,2 C 92 % 1020,9 hPa 0,0 l/m 14,5 km/h (3 Bft) S-SW 202 0 min 0,0 UV-I 0 W/m 6,7 C 2,8 C 17,7 km/h (3 Bft)
07.01.2023 00:23 7,9 C 7,2 C 92 % 1021,0 hPa 0,0 l/m 11,3 km/h (2 Bft) S 180 0 min 0,0 UV-I 0 W/m 6,7 C 4,5 C 16,1 km/h (3 Bft)
07.01.2023 00:24 7,9 C 7,2 C 92 % 1020,9 hPa 0,0 l/m 14,5 km/h (3 Bft) S 180 0 min 0,0 UV-I 0 W/m 6,7 C 2,8 C 24,1 km/h (4 Bft)
07.01.2023 00:25 7,9 C 7,2 C 92 % 1021,0 hPa 0,0 l/m 14,5 km/h (3 Bft) S 180 0 min 0,0 UV-I 0 W/m 6,7 C 2,8 C 17,7 km/h (3 Bft)
07.01.2023 00:26 7,9 C 7,2 C 92 % 1020,9 hPa 0,0 l/m 11,3 km/h (2 Bft) S 180 0 min 0,0 UV-I 0 W/m 6,7 C 4,5 C 14,5 km/h (3 Bft)
07.01.2023 00:27 7,9 C 7,2 C 92 % 1020,9 hPa 0,0 l/m 11,3 km/h (2 Bft) S 180 0 min 0,0 UV-I 0 W/m 6,7 C 4,5 C 14,5 km/h (3 Bft)
07.01.2023 00:28 7,9 C 7,2 C 92 % 1020,9 hPa 0,0 l/m 12,9 km/h (3 Bft) S 180 0 min 0,0 UV-I 0 W/m 6,7 C 3,6 C 17,7 km/h (3 Bft)
07.01.2023 00:29 7,9 C 7,2 C 92 % 1020,9 hPa 0,0 l/m 9,7 km/h (2 Bft) S-SW 202 0 min 0,0 UV-I 0 W/m 6,7 C 5,5 C 12,9 km/h (3 Bft)
07.01.2023 00:30 7,9 C 7,2 C 92 % 1020,9 hPa 0,0 l/m 8,0 km/h (2 Bft) S 180 0 min 0,0 UV-I 0 W/m 6,7 C 6,6 C 14,5 km/h (3 Bft)
07.01.2023 00:31 7,9 C 7,2 C 92 % 1021,0 hPa 0,0 l/m 14,5 km/h (3 Bft) S 180 0 min 0,0 UV-I 0 W/m 6,7 C 2,8 C 16,1 km/h (3 Bft)
07.01.2023 00:32 7,9 C 7,2 C 92 % 1021,0 hPa 0,0 l/m 12,9 km/h (3 Bft) S 180 0 min 0,0 UV-I 0 W/m 6,7 C 3,6 C 19,3 km/h (3 Bft)
07.01.2023 00:33 7,9 C 7,2 C 92 % 1020,9 hPa 0,0 l/m 11,3 km/h (2 Bft) S 180 0 min 0,0 UV-I 0 W/m 6,7 C 4,5 C 17,7 km/h (3 Bft)
07.01.2023 00:34 7,9 C 7,2 C 92 % 1020,9 hPa 0,0 l/m 14,5 km/h (3 Bft) S-SW 202 0 min 0,0 UV-I 0 W/m 6,7 C 2,8 C 19,3 km/h (3 Bft)
07.01.2023 00:35 7,9 C 7,2 C 92 % 1020,9 hPa 0,0 l/m 14,5 km/h (3 Bft) S 180 0 min 0,0 UV-I 0 W/m 6,7 C 2,8 C 19,3 km/h (3 Bft)
07.01.2023 00:36 7,9 C 7,2 C 92 % 1020,9 hPa 0,0 l/m 11,3 km/h (2 Bft) S 180 0 min 0,0 UV-I 0 W/m 6,7 C 4,5 C 16,1 km/h (3 Bft)
07.01.2023 00:37 7,9 C 7,2 C 92 % 1020,9 hPa 0,0 l/m 9,7 km/h (2 Bft) S 180 0 min 0,0 UV-I 0 W/m 6,7 C 5,5 C 16,1 km/h (3 Bft)
07.01.2023 00:38 7,9 C 7,2 C 92 % 1020,9 hPa 0,0 l/m 11,3 km/h (2 Bft) S 180 0 min 0,0 UV-I 0 W/m 6,7 C 4,5 C 12,9 km/h (3 Bft)
07.01.2023 00:39 7,9 C 7,2 C 92 % 1020,9 hPa 0,0 l/m 14,5 km/h (3 Bft) S 180 0 min 0,0 UV-I 0 W/m 6,7 C 2,8 C 19,3 km/h (3 Bft)
07.01.2023 00:40 7,9 C 7,2 C 92 % 1020,9 hPa 0,0 l/m 11,3 km/h (2 Bft) S 180 0 min 0,0 UV-I 0 W/m 6,7 C 4,5 C 17,7 km/h (3 Bft)
07.01.2023 00:41 7,9 C 7,2 C 92 % 1020,8 hPa 0,2 l/m 12,9 km/h (3 Bft) S 180 0 min 0,0 UV-I 0 W/m 6,7 C 3,6 C 19,3 km/h (3 Bft)
07.01.2023 00:42 7,9 C 7,2 C 92 % 1020,8 hPa 0,0 l/m 16,1 km/h (3 Bft) S-SW 202 0 min 0,0 UV-I 0 W/m 6,7 C 2,1 C 22,5 km/h (4 Bft)
07.01.2023 00:43 7,9 C 7,2 C 92 % 1020,8 hPa 0,0 l/m 16,1 km/h (3 Bft) S 180 0 min 0,0 UV-I 0 W/m 6,7 C 2,1 C 19,3 km/h (3 Bft)
07.01.2023 00:44 7,9 C 7,2 C 92 % 1020,7 hPa 0,0 l/m 12,9 km/h (3 Bft) S-SW 202 0 min 0,0 UV-I 0 W/m 6,7 C 3,6 C 17,7 km/h (3 Bft)
07.01.2023 00:45 7,9 C 7,2 C 92 % 1020,8 hPa 0,0 l/m 12,9 km/h (3 Bft) S 180 0 min 0,0 UV-I 0 W/m 6,7 C 3,6 C 16,1 km/h (3 Bft)
07.01.2023 00:46 7,9 C 7,2 C 92 % 1020,7 hPa 0,0 l/m 17,7 km/h (3 Bft) S 180 0 min 0,0 UV-I 0 W/m 6,7 C 1,4 C 20,9 km/h (4 Bft)
07.01.2023 00:47 7,9 C 7,2 C 92 % 1020,9 hPa 0,0 l/m 8,0 km/h (2 Bft) S-SW 202 0 min 0,0 UV-I 0 W/m 6,7 C 6,6 C 14,5 km/h (3 Bft)
07.01.2023 00:48 7,9 C 7,2 C 92 % 1020,8 hPa 0,0 l/m 12,9 km/h (3 Bft) S 180 0 min 0,0 UV-I 0 W/m 6,7 C 3,6 C 30,6 km/h (5 Bft)
07.01.2023 00:49 7,9 C 7,2 C 92 % 1020,7 hPa 0,0 l/m 19,3 km/h (3 Bft) S 180 0 min 0,0 UV-I 0 W/m 6,7 C 0,8 C 32,2 km/h (5 Bft)
07.01.2023 00:50 7,9 C 7,2 C 92 % 1020,8 hPa 0,0 l/m 14,5 km/h (3 Bft) S 180 0 min 0,0 UV-I 0 W/m 6,7 C 2,8 C 27,4 km/h (4 Bft)
07.01.2023 00:51 7,9 C 7,2 C 92 % 1020,8 hPa 0,0 l/m 16,1 km/h (3 Bft) S 180 0 min 0,0 UV-I 0 W/m 6,7 C 2,1 C 25,7 km/h (4 Bft)
07.01.2023 00:52 7,9 C 7,2 C 92 % 1020,8 hPa 0,0 l/m 9,7 km/h (2 Bft) S 180 0 min 0,0 UV-I 0 W/m 6,7 C 5,5 C 14,5 km/h (3 Bft)
07.01.2023 00:53 7,9 C 7,2 C 92 % 1020,7 hPa 0,0 l/m 11,3 km/h (2 Bft) S 180 0 min 0,0 UV-I 0 W/m 6,7 C 4,5 C 16,1 km/h (3 Bft)
07.01.2023 00:54 7,8 C 7,2 C 92 % 1020,7 hPa 0,0 l/m 12,9 km/h (3 Bft) S-SW 202 0 min 0,0 UV-I 0 W/m 6,6 C 3,5 C 19,3 km/h (3 Bft)
07.01.2023 00:55 7,9 C 7,2 C 92 % 1020,8 hPa 0,0 l/m 16,1 km/h (3 Bft) S 180 0 min 0,0 UV-I 0 W/m 6,7 C 2,1 C 24,1 km/h (4 Bft)
07.01.2023 00:56 7,9 C 7,2 C 92 % 1020,8 hPa 0,0 l/m 14,5 km/h (3 Bft) S 180 0 min 0,0 UV-I 0 W/m 6,7 C 2,8 C 20,9 km/h (4 Bft)
07.01.2023 00:57 7,9 C 7,2 C 92 % 1020,7 hPa 0,0 l/m 12,9 km/h (3 Bft) S 180 0 min 0,0 UV-I 0 W/m 6,7 C 3,6 C 17,7 km/h (3 Bft)
07.01.2023 00:58 7,9 C 7,2 C 92 % 1020,7 hPa 0,0 l/m 11,3 km/h (2 Bft) S 180 0 min 0,0 UV-I 0 W/m 6,7 C 4,5 C 14,5 km/h (3 Bft)
07.01.2023 00:59 7,9 C 7,2 C 92 % 1020,7 hPa 0,0 l/m 14,5 km/h (3 Bft) S-SO 157 0 min 0,0 UV-I 0 W/m 6,7 C 2,8 C 22,5 km/h (4 Bft)
07.01.2023 01:00 7,9 C 7,2 C 92 % 1020,7 hPa 0,0 l/m 12,9 km/h (3 Bft) S 180 0 min 0,0 UV-I 0 W/m 6,7 C 3,6 C 24,1 km/h (4 Bft)
07.01.2023 01:01 7,9 C 7,2 C 92 % 1020,7 hPa 0,0 l/m 14,5 km/h (3 Bft) S 180 0 min 0,0 UV-I 0 W/m 6,7 C 2,8 C 22,5 km/h (4 Bft)
07.01.2023 01:02 7,9 C 7,2 C 92 % 1020,7 hPa 0,0 l/m 16,1 km/h (3 Bft) S 180 0 min 0,0 UV-I 0 W/m 6,7 C 2,1 C 20,9 km/h (4 Bft)
07.01.2023 01:03 7,8 C 7,2 C 92 % 1020,7 hPa 0,0 l/m 11,3 km/h (2 Bft) S 180 0 min 0,0 UV-I 0 W/m 6,6 C 4,4 C 17,7 km/h (3 Bft)
07.01.2023 01:04 7,9 C 7,2 C 92 % 1020,7 hPa 0,0 l/m 11,3 km/h (2 Bft) S 180 0 min 0,0 UV-I 0 W/m 6,7 C 4,5 C 17,7 km/h (3 Bft)
07.01.2023 01:05 7,9 C 7,2 C 92 % 1020,7 hPa 0,0 l/m 12,9 km/h (3 Bft) S-SW 202 0 min 0,0 UV-I 0 W/m 6,7 C 3,6 C 22,5 km/h (4 Bft)
07.01.2023 01:06 7,8 C 7,2 C 92 % 1020,6 hPa 0,0 l/m 11,3 km/h (2 Bft) S 180 0 min 0,0 UV-I 0 W/m 6,6 C 4,4 C 20,9 km/h (4 Bft)
07.01.2023 01:07 7,8 C 7,2 C 92 % 1020,7 hPa 0,0 l/m 14,5 km/h (3 Bft) S 180 0 min 0,0 UV-I 0 W/m 6,6 C 2,7 C 19,3 km/h (3 Bft)
07.01.2023 01:08 7,8 C 7,2 C 92 % 1020,7 hPa 0,0 l/m 14,5 km/h (3 Bft) S 180 0 min 0,0 UV-I 0 W/m 6,6 C 2,7 C 17,7 km/h (3 Bft)
07.01.2023 01:09 7,8 C 7,2 C 92 % 1020,6 hPa 0,0 l/m 9,7 km/h (2 Bft) S 180 0 min 0,0 UV-I 0 W/m 6,6 C 5,4 C 16,1 km/h (3 Bft)
07.01.2023 01:10 7,8 C 7,2 C 92 % 1020,6 hPa 0,0 l/m 12,9 km/h (3 Bft) S 180 0 min 0,0 UV-I 0 W/m 6,6 C 3,5 C 19,3 km/h (3 Bft)
07.01.2023 01:11 7,8 C 7,2 C 92 % 1020,6 hPa 0,0 l/m 12,9 km/h (3 Bft) S 180 0 min 0,0 UV-I 0 W/m 6,6 C 3,5 C 22,5 km/h (4 Bft)
07.01.2023 01:12 7,8 C 7,2 C 92 % 1020,7 hPa 0,0 l/m 16,1 km/h (3 Bft) S 180 0 min 0,0 UV-I 0 W/m 6,6 C 2,0 C 24,1 km/h (4 Bft)
07.01.2023 01:13 7,8 C 7,2 C 92 % 1020,7 hPa 0,0 l/m 12,9 km/h (3 Bft) S 180 0 min 0,0 UV-I 0 W/m 6,6 C 3,5 C 16,1 km/h (3 Bft)
07.01.2023 01:14 7,9 C 7,2 C 92 % 1020,6 hPa 0,0 l/m 8,0 km/h (2 Bft) S 180 0 min 0,0 UV-I 0 W/m 6,7 C 6,6 C 14,5 km/h (3 Bft)
07.01.2023 01:15 7,8 C 7,2 C 92 % 1020,6 hPa 0,0 l/m 12,9 km/h (3 Bft) S 180 0 min 0,0 UV-I 0 W/m 6,6 C 3,5 C 16,1 km/h (3 Bft)
07.01.2023 01:16 7,8 C 7,2 C 92 % 1020,6 hPa 0,0 l/m 9,7 km/h (2 Bft) S 180 0 min 0,0 UV-I 0 W/m 6,6 C 5,4 C 14,5 km/h (3 Bft)
07.01.2023 01:17 7,8 C 7,2 C 92 % 1020,6 hPa 0,0 l/m 12,9 km/h (3 Bft) S 180 0 min 0,0 UV-I 0 W/m 6,6 C 3,5 C 20,9 km/h (4 Bft)
07.01.2023 01:18 7,8 C 7,2 C 92 % 1020,6 hPa 0,0 l/m 14,5 km/h (3 Bft) S 180 0 min 0,0 UV-I 0 W/m 6,6 C 2,7 C 19,3 km/h (3 Bft)
07.01.2023 01:19 7,8 C 7,2 C 92 % 1020,6 hPa 0,0 l/m 12,9 km/h (3 Bft) S-SW 202 0 min 0,0 UV-I 0 W/m 6,6 C 3,5 C 20,9 km/h (4 Bft)
07.01.2023 01:20 7,8 C 7,2 C 92 % 1020,5 hPa 0,0 l/m 12,9 km/h (3 Bft) S 180 0 min 0,0 UV-I 0 W/m 6,6 C 3,5 C 16,1 km/h (3 Bft)
07.01.2023 01:21 7,8 C 7,2 C 92 % 1020,6 hPa 0,0 l/m 9,7 km/h (2 Bft) S 180 0 min 0,0 UV-I 0 W/m 6,6 C 5,4 C 16,1 km/h (3 Bft)
07.01.2023 01:22 7,8 C 7,2 C 92 % 1020,6 hPa 0,0 l/m 9,7 km/h (2 Bft) S-SW 202 0 min 0,0 UV-I 0 W/m 6,6 C 5,4 C 14,5 km/h (3 Bft)
07.01.2023 01:23 7,8 C 7,2 C 92 % 1020,5 hPa 0,0 l/m 9,7 km/h (2 Bft) S-SO 157 0 min 0,0 UV-I 0 W/m 6,6 C 5,4 C 14,5 km/h (3 Bft)
07.01.2023 01:24 7,8 C 7,2 C 92 % 1020,6 hPa 0,0 l/m 16,1 km/h (3 Bft) S-SW 202 0 min 0,0 UV-I 0 W/m 6,6 C 2,0 C 22,5 km/h (4 Bft)
07.01.2023 01:25 7,8 C 7,2 C 92 % 1020,6 hPa 0,0 l/m 16,1 km/h (3 Bft) S 180 0 min 0,0 UV-I 0 W/m 6,6 C 2,0 C 22,5 km/h (4 Bft)
07.01.2023 01:26 7,8 C 7,2 C 92 % 1020,6 hPa 0,0 l/m 14,5 km/h (3 Bft) S 180 0 min 0,0 UV-I 0 W/m 6,6 C 2,7 C 22,5 km/h (4 Bft)
07.01.2023 01:27 7,8 C 7,2 C 92 % 1020,6 hPa 0,0 l/m 16,1 km/h (3 Bft) S 180 0 min 0,0 UV-I 0 W/m 6,6 C 2,0 C 20,9 km/h (4 Bft)
07.01.2023 01:28 7,8 C 7,2 C 92 % 1020,6 hPa 0,0 l/m 16,1 km/h (3 Bft) S 180 0 min 0,0 UV-I 0 W/m 6,6 C 2,0 C 19,3 km/h (3 Bft)
07.01.2023 01:29 7,8 C 7,2 C 92 % 1020,5 hPa 0,0 l/m 11,3 km/h (2 Bft) SW 225 0 min 0,0 UV-I 0 W/m 6,6 C 4,4 C 16,1 km/h (3 Bft)
07.01.2023 01:30 7,8 C 7,2 C 92 % 1020,5 hPa 0,0 l/m 11,3 km/h (2 Bft) S 180 0 min 0,0 UV-I 0 W/m 6,6 C 4,4 C 14,5 km/h (3 Bft)
07.01.2023 01:31 7,8 C 7,2 C 92 % 1020,5 hPa 0,0 l/m 17,7 km/h (3 Bft) S-SW 202 0 min 0,0 UV-I 0 W/m 6,6 C 1,3 C 24,1 km/h (4 Bft)
07.01.2023 01:32 7,8 C 7,2 C 92 % 1020,5 hPa 0,0 l/m 14,5 km/h (3 Bft) S 180 0 min 0,0 UV-I 0 W/m 6,6 C 2,7 C 22,5 km/h (4 Bft)
07.01.2023 01:33 7,8 C 7,2 C 92 % 1020,6 hPa 0,0 l/m 17,7 km/h (3 Bft) S-SW 202 0 min 0,0 UV-I 0 W/m 6,6 C 1,3 C 25,7 km/h (4 Bft)
07.01.2023 01:34 7,8 C 7,2 C 92 % 1020,5 hPa 0,0 l/m 11,3 km/h (2 Bft) S-SO 157 0 min 0,0 UV-I 0 W/m 6,6 C 4,4 C 22,5 km/h (4 Bft)
07.01.2023 01:35 7,8 C 7,2 C 92 % 1020,5 hPa 0,0 l/m 12,9 km/h (3 Bft) S-SW 202 0 min 0,0 UV-I 0 W/m 6,6 C 3,5 C 20,9 km/h (4 Bft)
07.01.2023 01:36 7,8 C 7,2 C 92 % 1020,5 hPa 0,0 l/m 12,9 km/h (3 Bft) S-SW 202 0 min 0,0 UV-I 0 W/m 6,6 C 3,5 C 17,7 km/h (3 Bft)
07.01.2023 01:37 7,8 C 7,2 C 92 % 1020,4 hPa 0,0 l/m 14,5 km/h (3 Bft) S 180 0 min 0,0 UV-I 0 W/m 6,6 C 2,7 C 22,5 km/h (4 Bft)
07.01.2023 01:38 7,8 C 7,2 C 92 % 1020,5 hPa 0,0 l/m 12,9 km/h (3 Bft) S-SO 157 0 min 0,0 UV-I 0 W/m 6,6 C 3,5 C 25,7 km/h (4 Bft)
07.01.2023 01:39 7,8 C 7,2 C 92 % 1020,4 hPa 0,0 l/m 16,1 km/h (3 Bft) S 180 0 min 0,0 UV-I 0 W/m 6,6 C 2,0 C 22,5 km/h (4 Bft)
07.01.2023 01:40 7,8 C 7,2 C 92 % 1020,4 hPa 0,0 l/m 14,5 km/h (3 Bft) S-SW 202 0 min 0,0 UV-I 0 W/m 6,6 C 2,7 C 20,9 km/h (4 Bft)
07.01.2023 01:41 7,8 C 7,2 C 92 % 1020,4 hPa 0,0 l/m 12,9 km/h (3 Bft) S 180 0 min 0,0 UV-I 0 W/m 6,6 C 3,5 C 24,1 km/h (4 Bft)
07.01.2023 01:42 7,7 C 7,2 C 92 % 1020,5 hPa 0,0 l/m 11,3 km/h (2 Bft) S 180 0 min 0,0 UV-I 0 W/m 6,5 C 4,3 C 16,1 km/h (3 Bft)
07.01.2023 01:43 7,8 C 7,2 C 92 % 1020,4 hPa 0,0 l/m 14,5 km/h (3 Bft) S-SW 202 0 min 0,0 UV-I 0 W/m 6,6 C 2,7 C 24,1 km/h (4 Bft)
07.01.2023 01:44 7,7 C 7,2 C 92 % 1020,4 hPa 0,0 l/m 14,5 km/h (3 Bft) S 180 0 min 0,0 UV-I 0 W/m 6,5 C 2,6 C 22,5 km/h (4 Bft)
07.01.2023 01:45 7,8 C 7,2 C 92 % 1020,3 hPa 0,0 l/m 12,9 km/h (3 Bft) S 180 0 min 0,0 UV-I 0 W/m 6,6 C 3,5 C 19,3 km/h (3 Bft)
07.01.2023 01:46 7,7 C 7,2 C 92 % 1020,4 hPa 0,0 l/m 12,9 km/h (3 Bft) S-SW 202 0 min 0,0 UV-I 0 W/m 6,5 C 3,4 C 20,9 km/h (4 Bft)
07.01.2023 01:47 7,7 C 7,2 C 92 % 1020,4 hPa 0,0 l/m 16,1 km/h (3 Bft) S 180 0 min 0,0 UV-I 0 W/m 6,5 C 1,9 C 22,5 km/h (4 Bft)
07.01.2023 01:48 7,7 C 7,2 C 92 % 1020,4 hPa 0,0 l/m 11,3 km/h (2 Bft) S-SW 202 0 min 0,0 UV-I 0 W/m 6,5 C 4,3 C 16,1 km/h (3 Bft)
07.01.2023 01:49 7,7 C 7,2 C 92 % 1020,4 hPa 0,0 l/m 12,9 km/h (3 Bft) S 180 0 min 0,0 UV-I 0 W/m 6,5 C 3,4 C 19,3 km/h (3 Bft)
07.01.2023 01:50 7,7 C 7,2 C 92 % 1020,4 hPa 0,0 l/m 12,9 km/h (3 Bft) S 180 0 min 0,0 UV-I 0 W/m 6,5 C 3,4 C 16,1 km/h (3 Bft)
07.01.2023 01:51 7,7 C 7,2 C 92 % 1020,4 hPa 0,0 l/m 11,3 km/h (2 Bft) S-SW 202 0 min 0,0 UV-I 0 W/m 6,5 C 4,3 C 16,1 km/h (3 Bft)
07.01.2023 01:52 7,7 C 7,2 C 92 % 1020,3 hPa 0,0 l/m 16,1 km/h (3 Bft) S 180 0 min 0,0 UV-I 0 W/m 6,5 C 1,9 C 22,5 km/h (4 Bft)
07.01.2023 01:53 7,7 C 7,2 C 92 % 1020,4 hPa 0,0 l/m 16,1 km/h (3 Bft) S 180 0 min 0,0 UV-I 0 W/m 6,5 C 1,9 C 22,5 km/h (4 Bft)
07.01.2023 01:54 7,7 C 7,2 C 92 % 1020,3 hPa 0,0 l/m 16,1 km/h (3 Bft) S 180 0 min 0,0 UV-I 0 W/m 6,5 C 1,9 C 22,5 km/h (4 Bft)
07.01.2023 01:55 7,7 C 7,2 C 92 % 1020,3 hPa 0,0 l/m 12,9 km/h (3 Bft) S 180 0 min 0,0 UV-I 0 W/m 6,5 C 3,4 C 17,7 km/h (3 Bft)
07.01.2023 01:56 7,7 C 6,7 C 92 % 1020,3 hPa 0,0 l/m 12,9 km/h (3 Bft) S 180 0 min 0,0 UV-I 0 W/m 6,5 C 3,4 C 17,7 km/h (3 Bft)
07.01.2023 01:57 7,7 C 6,7 C 92 % 1020,2 hPa 0,0 l/m 12,9 km/h (3 Bft) S 180 0 min 0,0 UV-I 0 W/m 6,5 C 3,4 C 17,7 km/h (3 Bft)
07.01.2023 01:58 7,7 C 6,7 C 92 % 1020,3 hPa 0,0 l/m 16,1 km/h (3 Bft) S 180 0 min 0,0 UV-I 0 W/m 6,5 C 1,9 C 22,5 km/h (4 Bft)
07.01.2023 01:59 7,7 C 6,7 C 92 % 1020,3 hPa 0,0 l/m 12,9 km/h (3 Bft) S 180 0 min 0,0 UV-I 0 W/m 6,5 C 3,4 C 17,7 km/h (3 Bft)
07.01.2023 02:00 7,7 C 6,7 C 92 % 1020,3 hPa 0,0 l/m 14,5 km/h (3 Bft) S 180 0 min 0,0 UV-I 0 W/m 6,5 C 2,6 C 19,3 km/h (3 Bft)
07.01.2023 02:01 7,7 C 6,7 C 92 % 1020,2 hPa 0,0 l/m 9,7 km/h (2 Bft) S 180 0 min 0,0 UV-I 0 W/m 6,5 C 5,2 C 17,7 km/h (3 Bft)
07.01.2023 02:02 7,7 C 6,7 C 92 % 1020,3 hPa 0,0 l/m 11,3 km/h (2 Bft) S 180 0 min 0,0 UV-I 0 W/m 6,5 C 4,3 C 16,1 km/h (3 Bft)
07.01.2023 02:03 7,7 C 6,7 C 92 % 1020,3 hPa 0,0 l/m 12,9 km/h (3 Bft) S 180 0 min 0,0 UV-I 0 W/m 6,5 C 3,4 C 19,3 km/h (3 Bft)
07.01.2023 02:04 7,7 C 6,7 C 92 % 1020,3 hPa 0,0 l/m 11,3 km/h (2 Bft) S-SW 202 0 min 0,0 UV-I 0 W/m 6,5 C 4,3 C 16,1 km/h (3 Bft)
07.01.2023 02:05 7,7 C 6,7 C 92 % 1020,3 hPa 0,0 l/m 14,5 km/h (3 Bft) S-SW 202 0 min 0,0 UV-I 0 W/m 6,5 C 2,6 C 20,9 km/h (4 Bft)
07.01.2023 02:06 7,7 C 6,7 C 92 % 1020,3 hPa 0,0 l/m 12,9 km/h (3 Bft) S-SW 202 0 min 0,0 UV-I 0 W/m 6,5 C 3,4 C 16,1 km/h (3 Bft)
07.01.2023 02:07 7,7 C 6,7 C 92 % 1020,1 hPa 0,0 l/m 9,7 km/h (2 Bft) S 180 0 min 0,0 UV-I 0 W/m 6,5 C 5,2 C 11,3 km/h (2 Bft)
07.01.2023 02:08 7,7 C 6,7 C 92 % 1020,2 hPa 0,0 l/m 9,7 km/h (2 Bft) S 180 0 min 0,0 UV-I 0 W/m 6,5 C 5,2 C 11,3 km/h (2 Bft)
07.01.2023 02:09 7,7 C 6,7 C 92 % 1020,2 hPa 0,0 l/m 9,7 km/h (2 Bft) S 180 0 min 0,0 UV-I 0 W/m 6,5 C 5,2 C 12,9 km/h (3 Bft)
07.01.2023 02:10 7,7 C 6,7 C 92 % 1020,2 hPa 0,0 l/m 8,0 km/h (2 Bft) S 180 0 min 0,0 UV-I 0 W/m 6,5 C 6,4 C 12,9 km/h (3 Bft)
07.01.2023 02:11 7,7 C 6,7 C 92 % 1020,1 hPa 0,0 l/m 12,9 km/h (3 Bft) S 180 0 min 0,0 UV-I 0 W/m 6,5 C 3,4 C 22,5 km/h (4 Bft)
07.01.2023 02:12 7,7 C 6,7 C 92 % 1020,2 hPa 0,0 l/m 12,9 km/h (3 Bft) S-SW 202 0 min 0,0 UV-I 0 W/m 6,5 C 3,4 C 16,1 km/h (3 Bft)
07.01.2023 02:13 7,6 C 6,7 C 92 % 1020,1 hPa 0,0 l/m 9,7 km/h (2 Bft) S 180 0 min 0,0 UV-I 0 W/m 6,4 C 5,1 C 17,7 km/h (3 Bft)
07.01.2023 02:14 7,7 C 6,7 C 92 % 1020,1 hPa 0,0 l/m 14,5 km/h (3 Bft) S 180 0 min 0,0 UV-I 0 W/m 6,5 C 2,6 C 24,1 km/h (4 Bft)
07.01.2023 02:15 7,7 C 6,7 C 92 % 1020,1 hPa 0,0 l/m 11,3 km/h (2 Bft) S 180 0 min 0,0 UV-I 0 W/m 6,5 C 4,3 C 14,5 km/h (3 Bft)
07.01.2023 02:16 7,6 C 6,7 C 92 % 1020,0 hPa 0,0 l/m 11,3 km/h (2 Bft) S 180 0 min 0,0 UV-I 0 W/m 6,4 C 4,1 C 14,5 km/h (3 Bft)
07.01.2023 02:17 7,6 C 6,7 C 92 % 1020,1 hPa 0,0 l/m 11,3 km/h (2 Bft) S 180 0 min 0,0 UV-I 0 W/m 6,4 C 4,1 C 22,5 km/h (4 Bft)
07.01.2023 02:18 7,6 C 6,7 C 92 % 1020,1 hPa 0,0 l/m 9,7 km/h (2 Bft) S 180 0 min 0,0 UV-I 0 W/m 6,4 C 5,1 C 11,3 km/h (2 Bft)
07.01.2023 02:19 7,7 C 6,7 C 92 % 1020,1 hPa 0,0 l/m 12,9 km/h (3 Bft) S 180 0 min 0,0 UV-I 0 W/m 6,5 C 3,4 C 20,9 km/h (4 Bft)
07.01.2023 02:20 7,6 C 6,7 C 92 % 1020,1 hPa 0,0 l/m 11,3 km/h (2 Bft) S 180 0 min 0,0 UV-I 0 W/m 6,4 C 4,1 C 16,1 km/h (3 Bft)
07.01.2023 02:21 7,7 C 6,7 C 92 % 1020,0 hPa 0,0 l/m 9,7 km/h (2 Bft) S-SO 157 0 min 0,0 UV-I 0 W/m 6,5 C 5,2 C 14,5 km/h (3 Bft)
07.01.2023 02:22 7,6 C 6,7 C 92 % 1020,1 hPa 0,0 l/m 11,3 km/h (2 Bft) S-SW 202 0 min 0,0 UV-I 0 W/m 6,4 C 4,1 C 14,5 km/h (3 Bft)
07.01.2023 02:23 7,6 C 6,7 C 92 % 1020,1 hPa 0,0 l/m 12,9 km/h (3 Bft) S 180 0 min 0,0 UV-I 0 W/m 6,4 C 3,3 C 19,3 km/h (3 Bft)
07.01.2023 02:24 7,6 C 6,7 C 92 % 1020,1 hPa 0,0 l/m 12,9 km/h (3 Bft) S 180 0 min 0,0 UV-I 0 W/m 6,4 C 3,3 C 17,7 km/h (3 Bft)
07.01.2023 02:25 7,6 C 6,7 C 92 % 1020,0 hPa 0,0 l/m 9,7 km/h (2 Bft) S 180 0 min 0,0 UV-I 0 W/m 6,4 C 5,1 C 14,5 km/h (3 Bft)
07.01.2023 02:26 7,6 C 6,7 C 92 % 1020,0 hPa 0,0 l/m 9,7 km/h (2 Bft) S-SW 202 0 min 0,0 UV-I 0 W/m 6,4 C 5,1 C 12,9 km/h (3 Bft)
07.01.2023 02:27 7,6 C 6,7 C 92 % 1020,0 hPa 0,0 l/m 9,7 km/h (2 Bft) S 180 0 min 0,0 UV-I 0 W/m 6,4 C 5,1 C 12,9 km/h (3 Bft)
07.01.2023 02:28 7,6 C 6,7 C 92 % 1020,0 hPa 0,0 l/m 14,5 km/h (3 Bft) S 180 0 min 0,0 UV-I 0 W/m 6,4 C 2,5 C 25,7 km/h (4 Bft)
07.01.2023 02:29 7,6 C 6,7 C 92 % 1020,1 hPa 0,0 l/m 12,9 km/h (3 Bft) S 180 0 min 0,0 UV-I 0 W/m 6,4 C 3,3 C 17,7 km/h (3 Bft)
07.01.2023 02:30 7,6 C 6,7 C 92 % 1020,0 hPa 0,0 l/m 14,5 km/h (3 Bft) S 180 0 min 0,0 UV-I 0 W/m 6,4 C 2,5 C 20,9 km/h (4 Bft)
07.01.2023 02:31 7,6 C 6,7 C 92 % 1020,0 hPa 0,0 l/m 12,9 km/h (3 Bft) S 180 0 min 0,0 UV-I 0 W/m 6,4 C 3,3 C 17,7 km/h (3 Bft)
07.01.2023 02:32 7,6 C 6,7 C 92 % 1020,1 hPa 0,0 l/m 9,7 km/h (2 Bft) S 180 0 min 0,0 UV-I 0 W/m 6,4 C 5,1 C 17,7 km/h (3 Bft)
07.01.2023 02:33 7,6 C 6,7 C 92 % 1019,9 hPa 0,0 l/m 9,7 km/h (2 Bft) S 180 0 min 0,0 UV-I 0 W/m 6,4 C 5,1 C 17,7 km/h (3 Bft)
07.01.2023 02:34 7,6 C 6,7 C 92 % 1020,0 hPa 0,0 l/m 9,7 km/h (2 Bft) S-SW 202 0 min 0,0 UV-I 0 W/m 6,4 C 5,1 C 14,5 km/h (3 Bft)
07.01.2023 02:35 7,6 C 6,7 C 92 % 1020,0 hPa 0,0 l/m 8,0 km/h (2 Bft) S-SW 202 0 min 0,0 UV-I 0 W/m 6,4 C 6,3 C 11,3 km/h (2 Bft)
07.01.2023 02:36 7,6 C 6,7 C 92 % 1020,0 hPa 0,0 l/m 8,0 km/h (2 Bft) S 180 0 min 0,0 UV-I 0 W/m 6,4 C 6,3 C 12,9 km/h (3 Bft)
07.01.2023 02:37 7,6 C 6,7 C 92 % 1020,0 hPa 0,0 l/m 9,7 km/h (2 Bft) S 180 0 min 0,0 UV-I 0 W/m 6,4 C 5,1 C 12,9 km/h (3 Bft)
07.01.2023 02:38 7,6 C 6,7 C 91 % 1020,1 hPa 0,0 l/m 9,7 km/h (2 Bft) S-SW 202 0 min 0,0 UV-I 0 W/m 6,2 C 5,1 C 12,9 km/h (3 Bft)
07.01.2023 02:39 7,6 C 6,7 C 92 % 1020,0 hPa 0,0 l/m 11,3 km/h (2 Bft) S 180 0 min 0,0 UV-I 0 W/m 6,4 C 4,1 C 14,5 km/h (3 Bft)
07.01.2023 02:40 7,6 C 6,7 C 91 % 1020,0 hPa 0,0 l/m 9,7 km/h (2 Bft) S 180 0 min 0,0 UV-I 0 W/m 6,2 C 5,1 C 12,9 km/h (3 Bft)
07.01.2023 02:41 7,6 C 6,7 C 91 % 1020,0 hPa 0,0 l/m 9,7 km/h (2 Bft) S 180 0 min 0,0 UV-I 0 W/m 6,2 C 5,1 C 14,5 km/h (3 Bft)
07.01.2023 02:42 7,6 C 6,7 C 91 % 1020,0 hPa 0,0 l/m 8,0 km/h (2 Bft) S 180 0 min 0,0 UV-I 0 W/m 6,2 C 6,3 C 11,3 km/h (2 Bft)
07.01.2023 02:43 7,6 C 6,7 C 92 % 1020,0 hPa 0,0 l/m 12,9 km/h (3 Bft) S 180 0 min 0,0 UV-I 0 W/m 6,4 C 3,3 C 19,3 km/h (3 Bft)
07.01.2023 02:44 7,6 C 6,7 C 91 % 1020,1 hPa 0,0 l/m 9,7 km/h (2 Bft) S-SW 202 0 min 0,0 UV-I 0 W/m 6,2 C 5,1 C 12,9 km/h (3 Bft)
07.01.2023 02:45 7,6 C 6,7 C 91 % 1020,0 hPa 0,0 l/m 9,7 km/h (2 Bft) S 180 0 min 0,0 UV-I 0 W/m 6,2 C 5,1 C 12,9 km/h (3 Bft)
07.01.2023 02:46 7,6 C 6,7 C 91 % 1020,0 hPa 0,0 l/m 9,7 km/h (2 Bft) S 180 0 min 0,0 UV-I 0 W/m 6,2 C 5,1 C 16,1 km/h (3 Bft)
07.01.2023 02:47 7,6 C 6,7 C 91 % 1020,0 hPa 0,0 l/m 9,7 km/h (2 Bft) S-SW 202 0 min 0,0 UV-I 0 W/m 6,2 C 5,1 C 11,3 km/h (2 Bft)
07.01.2023 02:48 7,6 C 6,7 C 91 % 1020,0 hPa 0,0 l/m 8,0 km/h (2 Bft) S-SW 202 0 min 0,0 UV-I 0 W/m 6,2 C 6,3 C 11,3 km/h (2 Bft)
07.01.2023 02:49 7,6 C 6,7 C 91 % 1020,0 hPa 0,0 l/m 4,8 km/h (1 Bft) S 180 0 min 0,0 UV-I 0 W/m 6,2 C 7,6 C 6,4 km/h (2 Bft)
07.01.2023 02:50 7,6 C 6,7 C 91 % 1020,0 hPa 0,0 l/m 8,0 km/h (2 Bft) S 180 0 min 0,0 UV-I 0 W/m 6,2 C 6,3 C 11,3 km/h (2 Bft)
07.01.2023 02:51 7,5 C 6,7 C 91 % 1020,0 hPa 0,0 l/m 8,0 km/h (2 Bft) S 180 0 min 0,0 UV-I 0 W/m 6,1 C 6,2 C 11,3 km/h (2 Bft)
07.01.2023 02:52 7,6 C 6,7 C 91 % 1020,0 hPa 0,0 l/m 8,0 km/h (2 Bft) S-SO 157 0 min 0,0 UV-I 0 W/m 6,2 C 6,3 C 9,7 km/h (2 Bft)
07.01.2023 02:53 7,6 C 6,7 C 91 % 1019,9 hPa 0,0 l/m 6,4 km/h (2 Bft) S 180 0 min 0,0 UV-I 0 W/m 6,2 C 7,6 C 9,7 km/h (2 Bft)
07.01.2023 02:54 7,6 C 6,7 C 91 % 1019,9 hPa 0,0 l/m 11,3 km/h (2 Bft) S 180 0 min 0,0 UV-I 0 W/m 6,2 C 4,1 C 17,7 km/h (3 Bft)
07.01.2023 02:55 7,6 C 6,7 C 91 % 1019,9 hPa 0,0 l/m 19,3 km/h (3 Bft) S-SO 157 0 min 0,0 UV-I 0 W/m 6,2 C 0,4 C 24,1 km/h (4 Bft)
07.01.2023 02:56 7,5 C 6,7 C 91 % 1020,0 hPa 0,0 l/m 12,9 km/h (3 Bft) S 180 0 min 0,0 UV-I 0 W/m 6,1 C 3,1 C 17,7 km/h (3 Bft)
07.01.2023 02:57 7,5 C 6,7 C 91 % 1019,9 hPa 0,0 l/m 11,3 km/h (2 Bft) S 180 0 min 0,0 UV-I 0 W/m 6,1 C 4,0 C 17,7 km/h (3 Bft)
07.01.2023 02:58 7,5 C 6,7 C 91 % 1019,9 hPa 0,0 l/m 12,9 km/h (3 Bft) S 180 0 min 0,0 UV-I 0 W/m 6,1 C 3,1 C 16,1 km/h (3 Bft)
07.01.2023 02:59 7,5 C 6,7 C 91 % 1019,9 hPa 0,0 l/m 11,3 km/h (2 Bft) S 180 0 min 0,0 UV-I 0 W/m 6,1 C 4,0 C 14,5 km/h (3 Bft)
07.01.2023 03:00 7,5 C 6,7 C 91 % 1019,9 hPa 0,0 l/m 8,0 km/h (2 Bft) S 180 0 min 0,0 UV-I 0 W/m 6,1 C 6,2 C 14,5 km/h (3 Bft)
07.01.2023 03:01 7,5 C 6,7 C 91 % 1019,9 hPa 0,0 l/m 11,3 km/h (2 Bft) S 180 0 min 0,0 UV-I 0 W/m 6,1 C 4,0 C 19,3 km/h (3 Bft)
07.01.2023 03:02 7,5 C 6,7 C 91 % 1019,8 hPa 0,0 l/m 12,9 km/h (3 Bft) S 180 0 min 0,0 UV-I 0 W/m 6,1 C 3,1 C 19,3 km/h (3 Bft)
07.01.2023 03:03 7,5 C 6,7 C 91 % 1019,8 hPa 0,0 l/m 8,0 km/h (2 Bft) S 180 0 min 0,0 UV-I 0 W/m 6,1 C 6,2 C 14,5 km/h (3 Bft)
07.01.2023 03:04 7,5 C 6,7 C 91 % 1019,9 hPa 0,0 l/m 9,7 km/h (2 Bft) S 180 0 min 0,0 UV-I 0 W/m 6,1 C 5,0 C 14,5 km/h (3 Bft)
07.01.2023 03:05 7,5 C 6,7 C 91 % 1019,8 hPa 0,0 l/m 11,3 km/h (2 Bft) S-SO 157 0 min 0,0 UV-I 0 W/m 6,1 C 4,0 C 16,1 km/h (3 Bft)
07.01.2023 03:06 7,5 C 6,7 C 91 % 1019,8 hPa 0,0 l/m 9,7 km/h (2 Bft) S 180 0 min 0,0 UV-I 0 W/m 6,1 C 5,0 C 12,9 km/h (3 Bft)
07.01.2023 03:07 7,5 C 6,7 C 91 % 1019,8 hPa 0,0 l/m 9,7 km/h (2 Bft) S-SO 157 0 min 0,0 UV-I 0 W/m 6,1 C 5,0 C 14,5 km/h (3 Bft)
07.01.2023 03:08 7,5 C 6,7 C 91 % 1019,8 hPa 0,0 l/m 9,7 km/h (2 Bft) S 180 0 min 0,0 UV-I 0 W/m 6,1 C 5,0 C 14,5 km/h (3 Bft)
07.01.2023 03:09 7,5 C 6,7 C 91 % 1019,7 hPa 0,0 l/m 8,0 km/h (2 Bft) S 180 0 min 0,0 UV-I 0 W/m 6,1 C 6,2 C 12,9 km/h (3 Bft)
07.01.2023 03:10 7,5 C 6,7 C 91 % 1019,8 hPa 0,0 l/m 8,0 km/h (2 Bft) S 180 0 min 0,0 UV-I 0 W/m 6,1 C 6,2 C 11,3 km/h (2 Bft)
07.01.2023 03:11 7,5 C 6,7 C 91 % 1019,8 hPa 0,0 l/m 9,7 km/h (2 Bft) S 180 0 min 0,0 UV-I 0 W/m 6,1 C 5,0 C 14,5 km/h (3 Bft)
07.01.2023 03:12 7,5 C 6,7 C 91 % 1019,9 hPa 0,0 l/m 11,3 km/h (2 Bft) S 180 0 min 0,0 UV-I 0 W/m 6,1 C 4,0 C 17,7 km/h (3 Bft)
07.01.2023 03:13 7,5 C 6,7 C 91 % 1019,7 hPa 0,0 l/m 11,3 km/h (2 Bft) S-SW 202 0 min 0,0 UV-I 0 W/m 6,1 C 4,0 C 12,9 km/h (3 Bft)
07.01.2023 03:14 7,5 C 6,7 C 91 % 1019,8 hPa 0,0 l/m 8,0 km/h (2 Bft) S-SO 157 0 min 0,0 UV-I 0 W/m 6,1 C 6,2 C 14,5 km/h (3 Bft)
07.01.2023 03:15 7,5 C 6,7 C 91 % 1019,7 hPa 0,0 l/m 8,0 km/h (2 Bft) S-SO 157 0 min 0,0 UV-I 0 W/m 6,1 C 6,2 C 12,9 km/h (3 Bft)
07.01.2023 03:16 7,4 C 6,7 C 91 % 1019,7 hPa 0,0 l/m 11,3 km/h (2 Bft) S-SO 157 0 min 0,0 UV-I 0 W/m 6,0 C 3,9 C 14,5 km/h (3 Bft)
07.01.2023 03:17 7,4 C 6,7 C 91 % 1019,9 hPa 0,0 l/m 9,7 km/h (2 Bft) S 180 0 min 0,0 UV-I 0 W/m 6,0 C 4,9 C 19,3 km/h (3 Bft)
07.01.2023 03:18 7,5 C 6,7 C 91 % 1019,8 hPa 0,0 l/m 12,9 km/h (3 Bft) S-SO 157 0 min 0,0 UV-I 0 W/m 6,1 C 3,1 C 17,7 km/h (3 Bft)
07.01.2023 03:19 7,4 C 6,7 C 91 % 1019,7 hPa 0,0 l/m 12,9 km/h (3 Bft) S 180 0 min 0,0 UV-I 0 W/m 6,0 C 3,0 C 17,7 km/h (3 Bft)
07.01.2023 03:20 7,4 C 6,7 C 91 % 1019,7 hPa 0,0 l/m 12,9 km/h (3 Bft) S-SO 157 0 min 0,0 UV-I 0 W/m 6,0 C 3,0 C 16,1 km/h (3 Bft)
07.01.2023 03:21 7,5 C 6,7 C 91 % 1019,8 hPa 0,0 l/m 9,7 km/h (2 Bft) S-SW 202 0 min 0,0 UV-I 0 W/m 6,1 C 5,0 C 11,3 km/h (2 Bft)
07.01.2023 03:22 7,4 C 6,7 C 91 % 1019,6 hPa 0,0 l/m 11,3 km/h (2 Bft) S 180 0 min 0,0 UV-I 0 W/m 6,0 C 3,9 C 14,5 km/h (3 Bft)
07.01.2023 03:23 7,5 C 6,7 C 91 % 1019,7 hPa 0,0 l/m 9,7 km/h (2 Bft) S 180 0 min 0,0 UV-I 0 W/m 6,1 C 5,0 C 11,3 km/h (2 Bft)
07.01.2023 03:24 7,4 C 6,7 C 91 % 1019,7 hPa 0,0 l/m 9,7 km/h (2 Bft) S 180 0 min 0,0 UV-I 0 W/m 6,0 C 4,9 C 16,1 km/h (3 Bft)
07.01.2023 03:25 7,4 C 6,7 C 91 % 1019,7 hPa 0,0 l/m 9,7 km/h (2 Bft) S 180 0 min 0,0 UV-I 0 W/m 6,0 C 4,9 C 12,9 km/h (3 Bft)
07.01.2023 03:26 7,5 C 6,7 C 91 % 1019,7 hPa 0,0 l/m 11,3 km/h (2 Bft) S 180 0 min 0,0 UV-I 0 W/m 6,1 C 4,0 C 16,1 km/h (3 Bft)
07.01.2023 03:27 7,4 C 6,7 C 91 % 1019,7 hPa 0,0 l/m 12,9 km/h (3 Bft) S 180 0 min 0,0 UV-I 0 W/m 6,0 C 3,0 C 17,7 km/h (3 Bft)
07.01.2023 03:28 7,4 C 6,7 C 91 % 1019,6 hPa 0,0 l/m 11,3 km/h (2 Bft) S 180 0 min 0,0 UV-I 0 W/m 6,0 C 3,9 C 16,1 km/h (3 Bft)
07.01.2023 03:29 7,4 C 6,7 C 91 % 1019,7 hPa 0,0 l/m 11,3 km/h (2 Bft) S 180 0 min 0,0 UV-I 0 W/m 6,0 C 3,9 C 16,1 km/h (3 Bft)
07.01.2023 03:30 7,4 C 6,7 C 91 % 1019,7 hPa 0,0 l/m 11,3 km/h (2 Bft) S 180 0 min 0,0 UV-I 0 W/m 6,0 C 3,9 C 14,5 km/h (3 Bft)
07.01.2023 03:31 7,4 C 6,7 C 91 % 1019,6 hPa 0,0 l/m 9,7 km/h (2 Bft) S-SO 157 0 min 0,0 UV-I 0 W/m 6,0 C 4,9 C 14,5 km/h (3 Bft)
07.01.2023 03:32 7,4 C 6,7 C 91 % 1019,8 hPa 0,0 l/m 8,0 km/h (2 Bft) S-SO 157 0 min 0,0 UV-I 0 W/m 6,0 C 6,1 C 11,3 km/h (2 Bft)
07.01.2023 03:33 7,4 C 6,7 C 91 % 1019,7 hPa 0,0 l/m 8,0 km/h (2 Bft) S 180 0 min 0,0 UV-I 0 W/m 6,0 C 6,1 C 14,5 km/h (3 Bft)
07.01.2023 03:34 7,4 C 6,7 C 91 % 1019,6 hPa 0,0 l/m 8,0 km/h (2 Bft) S 180 0 min 0,0 UV-I 0 W/m 6,0 C 6,1 C 12,9 km/h (3 Bft)
07.01.2023 03:35 7,4 C 6,7 C 91 % 1019,7 hPa 0,0 l/m 6,4 km/h (2 Bft) S 180 0 min 0,0 UV-I 0 W/m 6,0 C 7,4 C 8,0 km/h (2 Bft)
07.01.2023 03:36 7,4 C 6,7 C 91 % 1019,6 hPa 0,0 l/m 8,0 km/h (2 Bft) S 180 0 min 0,0 UV-I 0 W/m 6,0 C 6,1 C 16,1 km/h (3 Bft)
07.01.2023 03:37 7,4 C 6,7 C 91 % 1019,7 hPa 0,0 l/m 11,3 km/h (2 Bft) S 180 0 min 0,0 UV-I 0 W/m 6,0 C 3,9 C 16,1 km/h (3 Bft)
07.01.2023 03:38 7,4 C 6,7 C 91 % 1019,6 hPa 0,0 l/m 12,9 km/h (3 Bft) S-SO 157 0 min 0,0 UV-I 0 W/m 6,0 C 3,0 C 17,7 km/h (3 Bft)
07.01.2023 03:39 7,4 C 6,7 C 91 % 1019,7 hPa 0,0 l/m 12,9 km/h (3 Bft) S-SO 157 0 min 0,0 UV-I 0 W/m 6,0 C 3,0 C 16,1 km/h (3 Bft)
07.01.2023 03:40 7,4 C 6,7 C 91 % 1019,7 hPa 0,0 l/m 11,3 km/h (2 Bft) S 180 0 min 0,0 UV-I 0 W/m 6,0 C 3,9 C 17,7 km/h (3 Bft)
07.01.2023 03:41 7,4 C 6,7 C 91 % 1019,7 hPa 0,0 l/m 9,7 km/h (2 Bft) S 180 0 min 0,0 UV-I 0 W/m 6,0 C 4,9 C 17,7 km/h (3 Bft)
07.01.2023 03:42 7,4 C 6,7 C 91 % 1019,6 hPa 0,0 l/m 4,8 km/h (1 Bft) S 180 0 min 0,0 UV-I 0 W/m 6,0 C 7,4 C 6,4 km/h (2 Bft)
07.01.2023 03:43 7,4 C 6,7 C 91 % 1019,7 hPa 0,0 l/m 9,7 km/h (2 Bft) S 180 0 min 0,0 UV-I 0 W/m 6,0 C 4,9 C 14,5 km/h (3 Bft)
07.01.2023 03:44 7,4 C 6,7 C 91 % 1019,7 hPa 0,0 l/m 11,3 km/h (2 Bft) S-SO 157 0 min 0,0 UV-I 0 W/m 6,0 C 3,9 C 19,3 km/h (3 Bft)
07.01.2023 03:45 7,4 C 6,7 C 91 % 1019,7 hPa 0,0 l/m 12,9 km/h (3 Bft) S 180 0 min 0,0 UV-I 0 W/m 6,0 C 3,0 C 17,7 km/h (3 Bft)
07.01.2023 03:46 7,4 C 6,7 C 91 % 1019,7 hPa 0,0 l/m 9,7 km/h (2 Bft) S 180 0 min 0,0 UV-I 0 W/m 6,0 C 4,9 C 12,9 km/h (3 Bft)
07.01.2023 03:47 7,4 C 6,7 C 91 % 1019,6 hPa 0,0 l/m 9,7 km/h (2 Bft) S 180 0 min 0,0 UV-I 0 W/m 6,0 C 4,9 C 11,3 km/h (2 Bft)
07.01.2023 03:48 7,4 C 6,7 C 91 % 1019,7 hPa 0,0 l/m 8,0 km/h (2 Bft) S 180 0 min 0,0 UV-I 0 W/m 6,0 C 6,1 C 11,3 km/h (2 Bft)
07.01.2023 03:49 7,4 C 6,7 C 91 % 1019,6 hPa 0,0 l/m 8,0 km/h (2 Bft) S 180 0 min 0,0 UV-I 0 W/m 6,0 C 6,1 C 12,9 km/h (3 Bft)
07.01.2023 03:50 7,4 C 6,7 C 91 % 1019,6 hPa 0,0 l/m 8,0 km/h (2 Bft) S 180 0 min 0,0 UV-I 0 W/m 6,0 C 6,1 C 9,7 km/h (2 Bft)
07.01.2023 03:51 7,4 C 6,7 C 91 % 1019,7 hPa 0,0 l/m 9,7 km/h (2 Bft) S 180 0 min 0,0 UV-I 0 W/m 6,0 C 4,9 C 12,9 km/h (3 Bft)
07.01.2023 03:52 7,4 C 6,7 C 91 % 1019,7 hPa 0,0 l/m 11,3 km/h (2 Bft) S-SO 157 0 min 0,0 UV-I 0 W/m 6,0 C 3,9 C 17,7 km/h (3 Bft)
07.01.2023 03:53 7,4 C 6,7 C 91 % 1019,6 hPa 0,0 l/m 9,7 km/h (2 Bft) S-SO 157 0 min 0,0 UV-I 0 W/m 6,0 C 4,9 C 11,3 km/h (2 Bft)
07.01.2023 03:54 7,4 C 6,7 C 91 % 1019,6 hPa 0,0 l/m 8,0 km/h (2 Bft) S-SO 157 0 min 0,0 UV-I 0 W/m 6,0 C 6,1 C 11,3 km/h (2 Bft)
07.01.2023 03:55 7,4 C 6,7 C 91 % 1019,6 hPa 0,0 l/m 8,0 km/h (2 Bft) S 180 0 min 0,0 UV-I 0 W/m 6,0 C 6,1 C 12,9 km/h (3 Bft)
07.01.2023 03:56 7,4 C 6,7 C 91 % 1019,6 hPa 0,0 l/m 9,7 km/h (2 Bft) S 180 0 min 0,0 UV-I 0 W/m 6,0 C 4,9 C 11,3 km/h (2 Bft)
07.01.2023 03:57 7,4 C 6,7 C 91 % 1019,6 hPa 0,0 l/m 9,7 km/h (2 Bft) S-SO 157 0 min 0,0 UV-I 0 W/m 6,0 C 4,9 C 14,5 km/h (3 Bft)
07.01.2023 03:58 7,4 C 6,7 C 91 % 1019,6 hPa 0,0 l/m 8,0 km/h (2 Bft) S 180 0 min 0,0 UV-I 0 W/m 6,0 C 6,1 C 14,5 km/h (3 Bft)
07.01.2023 03:59 7,4 C 6,7 C 91 % 1019,5 hPa 0,0 l/m 6,4 km/h (2 Bft) S 180 0 min 0,0 UV-I 0 W/m 6,0 C 7,4 C 9,7 km/h (2 Bft)
07.01.2023 04:00 7,4 C 6,7 C 91 % 1019,5 hPa 0,0 l/m 6,4 km/h (2 Bft) S 180 0 min 0,0 UV-I 0 W/m 6,0 C 7,4 C 9,7 km/h (2 Bft)
07.01.2023 04:01 7,4 C 6,7 C 91 % 1019,6 hPa 0,0 l/m 11,3 km/h (2 Bft) S 180 0 min 0,0 UV-I 0 W/m 6,0 C 3,9 C 14,5 km/h (3 Bft)
07.01.2023 04:02 7,4 C 6,7 C 91 % 1019,5 hPa 0,0 l/m 8,0 km/h (2 Bft) S 180 0 min 0,0 UV-I 0 W/m 6,0 C 6,1 C 12,9 km/h (3 Bft)
07.01.2023 04:03 7,4 C 6,7 C 91 % 1019,5 hPa 0,0 l/m 8,0 km/h (2 Bft) S-SO 157 0 min 0,0 UV-I 0 W/m 6,0 C 6,1 C 11,3 km/h (2 Bft)
07.01.2023 04:04 7,4 C 6,7 C 91 % 1019,5 hPa 0,0 l/m 11,3 km/h (2 Bft) S 180 0 min 0,0 UV-I 0 W/m 6,0 C 3,9 C 14,5 km/h (3 Bft)
07.01.2023 04:05 7,4 C 6,7 C 91 % 1019,5 hPa 0,0 l/m 8,0 km/h (2 Bft) S-SO 157 0 min 0,0 UV-I 0 W/m 6,0 C 6,1 C 14,5 km/h (3 Bft)
07.01.2023 04:06 7,4 C 6,7 C 91 % 1019,5 hPa 0,0 l/m 6,4 km/h (2 Bft) S 180 0 min 0,0 UV-I 0 W/m 6,0 C 7,4 C 14,5 km/h (3 Bft)
07.01.2023 04:07 7,3 C 6,7 C 91 % 1019,4 hPa 0,0 l/m 8,0 km/h (2 Bft) S 180 0 min 0,0 UV-I 0 W/m 5,9 C 6,0 C 14,5 km/h (3 Bft)
07.01.2023 04:08 7,4 C 6,7 C 91 % 1019,5 hPa 0,0 l/m 12,9 km/h (3 Bft) S 180 0 min 0,0 UV-I 0 W/m 6,0 C 3,0 C 17,7 km/h (3 Bft)
07.01.2023 04:09 7,4 C 6,7 C 91 % 1019,4 hPa 0,0 l/m 14,5 km/h (3 Bft) S 180 0 min 0,0 UV-I 0 W/m 6,0 C 2,2 C 19,3 km/h (3 Bft)
07.01.2023 04:10 7,3 C 6,7 C 91 % 1019,4 hPa 0,0 l/m 11,3 km/h (2 Bft) S 180 0 min 0,0 UV-I 0 W/m 5,9 C 3,8 C 16,1 km/h (3 Bft)
07.01.2023 04:11 7,4 C 6,7 C 91 % 1019,4 hPa 0,0 l/m 12,9 km/h (3 Bft) S 180 0 min 0,0 UV-I 0 W/m 6,0 C 3,0 C 17,7 km/h (3 Bft)
07.01.2023 04:12 7,3 C 6,7 C 91 % 1019,4 hPa 0,0 l/m 11,3 km/h (2 Bft) S 180 0 min 0,0 UV-I 0 W/m 5,9 C 3,8 C 22,5 km/h (4 Bft)
07.01.2023 04:13 7,3 C 6,7 C 91 % 1019,3 hPa 0,0 l/m 12,9 km/h (3 Bft) S-SW 202 0 min 0,0 UV-I 0 W/m 5,9 C 2,9 C 16,1 km/h (3 Bft)
07.01.2023 04:14 7,3 C 6,7 C 91 % 1019,3 hPa 0,0 l/m 14,5 km/h (3 Bft) S 180 0 min 0,0 UV-I 0 W/m 5,9 C 2,1 C 19,3 km/h (3 Bft)
07.01.2023 04:15 7,3 C 6,7 C 91 % 1019,4 hPa 0,0 l/m 11,3 km/h (2 Bft) S-SO 157 0 min 0,0 UV-I 0 W/m 5,9 C 3,8 C 16,1 km/h (3 Bft)
07.01.2023 04:16 7,3 C 6,7 C 91 % 1019,2 hPa 0,0 l/m 14,5 km/h (3 Bft) S 180 0 min 0,0 UV-I 0 W/m 5,9 C 2,1 C 19,3 km/h (3 Bft)
07.01.2023 04:17 7,3 C 6,7 C 91 % 1019,3 hPa 0,0 l/m 16,1 km/h (3 Bft) S 180 0 min 0,0 UV-I 0 W/m 5,9 C 1,4 C 25,7 km/h (4 Bft)
07.01.2023 04:18 7,3 C 6,7 C 91 % 1019,3 hPa 0,0 l/m 12,9 km/h (3 Bft) S-SO 157 0 min 0,0 UV-I 0 W/m 5,9 C 2,9 C 22,5 km/h (4 Bft)
07.01.2023 04:19 7,3 C 6,7 C 91 % 1019,4 hPa 0,0 l/m 14,5 km/h (3 Bft) S-SO 157 0 min 0,0 UV-I 0 W/m 5,9 C 2,1 C 16,1 km/h (3 Bft)
07.01.2023 04:20 7,3 C 6,7 C 90 % 1019,2 hPa 0,0 l/m 9,7 km/h (2 Bft) S 180 0 min 0,0 UV-I 0 W/m 5,8 C 4,8 C 12,9 km/h (3 Bft)
07.01.2023 04:21 7,3 C 6,7 C 91 % 1019,3 hPa 0,0 l/m 11,3 km/h (2 Bft) S 180 0 min 0,0 UV-I 0 W/m 5,9 C 3,8 C 16,1 km/h (3 Bft)
07.01.2023 04:22 7,3 C 6,7 C 91 % 1019,3 hPa 0,0 l/m 11,3 km/h (2 Bft) S-SO 157 0 min 0,0 UV-I 0 W/m 5,9 C 3,8 C 17,7 km/h (3 Bft)
07.01.2023 04:23 7,3 C 6,7 C 91 % 1019,3 hPa 0,0 l/m 11,3 km/h (2 Bft) S 180 0 min 0,0 UV-I 0 W/m 5,9 C 3,8 C 16,1 km/h (3 Bft)
07.01.2023 04:24 7,3 C 6,7 C 91 % 1019,3 hPa 0,0 l/m 8,0 km/h (2 Bft) S 180 0 min 0,0 UV-I 0 W/m 5,9 C 6,0 C 11,3 km/h (2 Bft)
07.01.2023 04:25 7,3 C 6,7 C 91 % 1019,3 hPa 0,0 l/m 8,0 km/h (2 Bft) S 180 0 min 0,0 UV-I 0 W/m 5,9 C 6,0 C 16,1 km/h (3 Bft)
07.01.2023 04:26 7,3 C 6,7 C 91 % 1019,2 hPa 0,0 l/m 12,9 km/h (3 Bft) S 180 0 min 0,0 UV-I 0 W/m 5,9 C 2,9 C 17,7 km/h (3 Bft)
07.01.2023 04:27 7,3 C 6,7 C 91 % 1019,2 hPa 0,0 l/m 8,0 km/h (2 Bft) S 180 0 min 0,0 UV-I 0 W/m 5,9 C 6,0 C 11,3 km/h (2 Bft)
07.01.2023 04:28 7,3 C 6,7 C 91 % 1019,2 hPa 0,0 l/m 9,7 km/h (2 Bft) S-SO 157 0 min 0,0 UV-I 0 W/m 5,9 C 4,8 C 14,5 km/h (3 Bft)
07.01.2023 04:29 7,3 C 6,7 C 90 % 1019,2 hPa 0,0 l/m 8,0 km/h (2 Bft) S 180 0 min 0,0 UV-I 0 W/m 5,8 C 6,0 C 14,5 km/h (3 Bft)
07.01.2023 04:30 7,3 C 6,7 C 90 % 1019,2 hPa 0,0 l/m 12,9 km/h (3 Bft) S-SO 157 0 min 0,0 UV-I 0 W/m 5,8 C 2,9 C 17,7 km/h (3 Bft)
07.01.2023 04:31 7,3 C 6,7 C 90 % 1019,2 hPa 0,0 l/m 9,7 km/h (2 Bft) S 180 0 min 0,0 UV-I 0 W/m 5,8 C 4,8 C 12,9 km/h (3 Bft)
07.01.2023 04:32 7,3 C 6,7 C 90 % 1019,2 hPa 0,0 l/m 11,3 km/h (2 Bft) S-SO 157 0 min 0,0 UV-I 0 W/m 5,8 C 3,8 C 14,5 km/h (3 Bft)
07.01.2023 04:33 7,3 C 6,7 C 91 % 1019,2 hPa 0,0 l/m 8,0 km/h (2 Bft) S-SO 157 0 min 0,0 UV-I 0 W/m 5,9 C 6,0 C 9,7 km/h (2 Bft)
07.01.2023 04:34 7,3 C 6,7 C 90 % 1019,2 hPa 0,0 l/m 8,0 km/h (2 Bft) S 180 0 min 0,0 UV-I 0 W/m 5,8 C 6,0 C 16,1 km/h (3 Bft)
07.01.2023 04:35 7,3 C 6,7 C 90 % 1019,1 hPa 0,0 l/m 9,7 km/h (2 Bft) S 180 0 min 0,0 UV-I 0 W/m 5,8 C 4,8 C 14,5 km/h (3 Bft)
07.01.2023 04:36 7,3 C 6,7 C 90 % 1019,1 hPa 0,0 l/m 11,3 km/h (2 Bft) S-SO 157 0 min 0,0 UV-I 0 W/m 5,8 C 3,8 C 14,5 km/h (3 Bft)
07.01.2023 04:37 7,3 C 6,7 C 90 % 1019,2 hPa 0,0 l/m 14,5 km/h (3 Bft) S 180 0 min 0,0 UV-I 0 W/m 5,8 C 2,1 C 19,3 km/h (3 Bft)
07.01.2023 04:38 7,3 C 6,7 C 90 % 1019,1 hPa 0,0 l/m 12,9 km/h (3 Bft) S 180 0 min 0,0 UV-I 0 W/m 5,8 C 2,9 C 19,3 km/h (3 Bft)
07.01.2023 04:39 7,3 C 6,7 C 90 % 1019,1 hPa 0,0 l/m 11,3 km/h (2 Bft) S-SO 157 0 min 0,0 UV-I 0 W/m 5,8 C 3,8 C 16,1 km/h (3 Bft)
07.01.2023 04:40 7,3 C 6,7 C 90 % 1019,2 hPa 0,0 l/m 11,3 km/h (2 Bft) S-SO 157 0 min 0,0 UV-I 0 W/m 5,8 C 3,8 C 14,5 km/h (3 Bft)
07.01.2023 04:41 7,3 C 6,7 C 90 % 1019,1 hPa 0,0 l/m 8,0 km/h (2 Bft) S 180 0 min 0,0 UV-I 0 W/m 5,8 C 6,0 C 12,9 km/h (3 Bft)
07.01.2023 04:42 7,3 C 6,7 C 90 % 1019,1 hPa 0,0 l/m 12,9 km/h (3 Bft) S 180 0 min 0,0 UV-I 0 W/m 5,8 C 2,9 C 17,7 km/h (3 Bft)
07.01.2023 04:43 7,3 C 6,7 C 90 % 1019,1 hPa 0,0 l/m 8,0 km/h (2 Bft) S 180 0 min 0,0 UV-I 0 W/m 5,8 C 6,0 C 11,3 km/h (2 Bft)
07.01.2023 04:44 7,3 C 6,7 C 90 % 1019,1 hPa 0,0 l/m 8,0 km/h (2 Bft) S-SO 157 0 min 0,0 UV-I 0 W/m 5,8 C 6,0 C 11,3 km/h (2 Bft)
07.01.2023 04:45 7,3 C 6,7 C 90 % 1019,1 hPa 0,0 l/m 8,0 km/h (2 Bft) S-SO 157 0 min 0,0 UV-I 0 W/m 5,8 C 6,0 C 11,3 km/h (2 Bft)
07.01.2023 04:46 7,3 C 6,7 C 90 % 1019,1 hPa 0,0 l/m 8,0 km/h (2 Bft) S-SO 157 0 min 0,0 UV-I 0 W/m 5,8 C 6,0 C 12,9 km/h (3 Bft)
07.01.2023 04:47 7,3 C 6,7 C 90 % 1019,1 hPa 0,0 l/m 9,7 km/h (2 Bft) S-SO 157 0 min 0,0 UV-I 0 W/m 5,8 C 4,8 C 17,7 km/h (3 Bft)
07.01.2023 04:48 7,3 C 6,7 C 90 % 1019,1 hPa 0,0 l/m 12,9 km/h (3 Bft) S-SO 157 0 min 0,0 UV-I 0 W/m 5,8 C 2,9 C 16,1 km/h (3 Bft)
07.01.2023 04:49 7,3 C 6,7 C 90 % 1019,1 hPa 0,0 l/m 8,0 km/h (2 Bft) S-SO 157 0 min 0,0 UV-I 0 W/m 5,8 C 6,0 C 11,3 km/h (2 Bft)
07.01.2023 04:50 7,2 C 6,7 C 90 % 1019,0 hPa 0,0 l/m 11,3 km/h (2 Bft) SO 135 0 min 0,0 UV-I 0 W/m 5,7 C 3,7 C 16,1 km/h (3 Bft)
07.01.2023 04:51 7,2 C 6,7 C 90 % 1019,1 hPa 0,0 l/m 8,0 km/h (2 Bft) S-SO 157 0 min 0,0 UV-I 0 W/m 5,7 C 5,9 C 9,7 km/h (2 Bft)
07.01.2023 04:52 7,2 C 6,7 C 90 % 1019,1 hPa 0,0 l/m 6,4 km/h (2 Bft) S-SO 157 0 min 0,0 UV-I 0 W/m 5,7 C 7,2 C 9,7 km/h (2 Bft)
07.01.2023 04:53 7,3 C 6,7 C 90 % 1019,0 hPa 0,0 l/m 9,7 km/h (2 Bft) S-SO 157 0 min 0,0 UV-I 0 W/m 5,8 C 4,8 C 12,9 km/h (3 Bft)
07.01.2023 04:54 7,2 C 6,7 C 90 % 1019,0 hPa 0,0 l/m 9,7 km/h (2 Bft) S-SO 157 0 min 0,0 UV-I 0 W/m 5,7 C 4,7 C 14,5 km/h (3 Bft)
07.01.2023 04:55 7,2 C 6,7 C 90 % 1019,1 hPa 0,0 l/m 8,0 km/h (2 Bft) S 180 0 min 0,0 UV-I 0 W/m 5,7 C 5,9 C 11,3 km/h (2 Bft)
07.01.2023 04:56 7,2 C 6,7 C 90 % 1019,0 hPa 0,0 l/m 8,0 km/h (2 Bft) S 180 0 min 0,0 UV-I 0 W/m 5,7 C 5,9 C 11,3 km/h (2 Bft)
07.01.2023 04:57 7,2 C 6,7 C 90 % 1019,0 hPa 0,0 l/m 6,4 km/h (2 Bft) S-SO 157 0 min 0,0 UV-I 0 W/m 5,7 C 7,2 C 8,0 km/h (2 Bft)
07.01.2023 04:58 7,2 C 6,7 C 90 % 1019,1 hPa 0,0 l/m 9,7 km/h (2 Bft) SO 135 0 min 0,0 UV-I 0 W/m 5,7 C 4,7 C 17,7 km/h (3 Bft)
07.01.2023 04:59 7,2 C 6,7 C 90 % 1019,0 hPa 0,0 l/m 9,7 km/h (2 Bft) S-SO 157 0 min 0,0 UV-I 0 W/m 5,7 C 4,7 C 16,1 km/h (3 Bft)
07.01.2023 05:00 7,2 C 6,7 C 90 % 1019,0 hPa 0,0 l/m 12,9 km/h (3 Bft) S-SO 157 0 min 0,0 UV-I 0 W/m 5,7 C 2,8 C 16,1 km/h (3 Bft)
07.01.2023 05:01 7,2 C 6,7 C 90 % 1019,0 hPa 0,0 l/m 9,7 km/h (2 Bft) S-SO 157 0 min 0,0 UV-I 0 W/m 5,7 C 4,7 C 14,5 km/h (3 Bft)
07.01.2023 05:02 7,2 C 6,7 C 90 % 1019,0 hPa 0,0 l/m 9,7 km/h (2 Bft) S-SO 157 0 min 0,0 UV-I 0 W/m 5,7 C 4,7 C 14,5 km/h (3 Bft)
07.01.2023 05:03 7,2 C 6,7 C 90 % 1018,9 hPa 0,0 l/m 12,9 km/h (3 Bft) S-SO 157 0 min 0,0 UV-I 0 W/m 5,7 C 2,8 C 16,1 km/h (3 Bft)
07.01.2023 05:04 7,2 C 6,7 C 90 % 1018,9 hPa 0,0 l/m 8,0 km/h (2 Bft) S-SO 157 0 min 0,0 UV-I 0 W/m 5,7 C 5,9 C 14,5 km/h (3 Bft)
07.01.2023 05:05 7,2 C 6,7 C 90 % 1018,9 hPa 0,0 l/m 12,9 km/h (3 Bft) S-SO 157 0 min 0,0 UV-I 0 W/m 5,7 C 2,8 C 17,7 km/h (3 Bft)
07.01.2023 05:06 7,2 C 6,7 C 90 % 1018,8 hPa 0,0 l/m 8,0 km/h (2 Bft) SO 135 0 min 0,0 UV-I 0 W/m 5,7 C 5,9 C 14,5 km/h (3 Bft)
07.01.2023 05:07 7,2 C 6,7 C 90 % 1018,8 hPa 0,0 l/m 9,7 km/h (2 Bft) S-SO 157 0 min 0,0 UV-I 0 W/m 5,7 C 4,7 C 16,1 km/h (3 Bft)
07.01.2023 05:08 7,2 C 6,7 C 90 % 1018,8 hPa 0,0 l/m 8,0 km/h (2 Bft) S-SO 157 0 min 0,0 UV-I 0 W/m 5,7 C 5,9 C 12,9 km/h (3 Bft)
07.01.2023 05:09 7,2 C 6,7 C 90 % 1018,8 hPa 0,0 l/m 9,7 km/h (2 Bft) S-SO 157 0 min 0,0 UV-I 0 W/m 5,7 C 4,7 C 12,9 km/h (3 Bft)
07.01.2023 05:10 7,2 C 6,7 C 90 % 1018,8 hPa 0,0 l/m 8,0 km/h (2 Bft) SO 135 0 min 0,0 UV-I 0 W/m 5,7 C 5,9 C 9,7 km/h (2 Bft)
07.01.2023 05:11 7,2 C 6,7 C 90 % 1018,8 hPa 0,0 l/m 8,0 km/h (2 Bft) SO 135 0 min 0,0 UV-I 0 W/m 5,7 C 5,9 C 11,3 km/h (2 Bft)
07.01.2023 05:12 7,2 C 6,7 C 90 % 1018,8 hPa 0,0 l/m 9,7 km/h (2 Bft) SO 135 0 min 0,0 UV-I 0 W/m 5,7 C 4,7 C 12,9 km/h (3 Bft)
07.01.2023 05:13 7,2 C 6,7 C 90 % 1018,9 hPa 0,0 l/m 6,4 km/h (2 Bft) SO 135 0 min 0,0 UV-I 0 W/m 5,7 C 7,2 C 11,3 km/h (2 Bft)
07.01.2023 05:14 7,2 C 6,7 C 90 % 1018,8 hPa 0,0 l/m 8,0 km/h (2 Bft) S-SO 157 0 min 0,0 UV-I 0 W/m 5,7 C 5,9 C 11,3 km/h (2 Bft)
07.01.2023 05:15 7,2 C 6,7 C 90 % 1018,8 hPa 0,0 l/m 9,7 km/h (2 Bft) S-SO 157 0 min 0,0 UV-I 0 W/m 5,7 C 4,7 C 14,5 km/h (3 Bft)
07.01.2023 05:16 7,2 C 6,7 C 90 % 1018,8 hPa 0,0 l/m 11,3 km/h (2 Bft) S-SO 157 0 min 0,0 UV-I 0 W/m 5,7 C 3,7 C 14,5 km/h (3 Bft)
07.01.2023 05:17 7,2 C 6,7 C 90 % 1018,7 hPa 0,0 l/m 8,0 km/h (2 Bft) SO 135 0 min 0,0 UV-I 0 W/m 5,7 C 5,9 C 12,9 km/h (3 Bft)
07.01.2023 05:18 7,2 C 6,7 C 90 % 1018,7 hPa 0,0 l/m 9,7 km/h (2 Bft) SO 135 0 min 0,0 UV-I 0 W/m 5,7 C 4,7 C 16,1 km/h (3 Bft)
07.01.2023 05:19 7,2 C 6,7 C 90 % 1018,6 hPa 0,0 l/m 11,3 km/h (2 Bft) S-SO 157 0 min 0,0 UV-I 0 W/m 5,7 C 3,7 C 14,5 km/h (3 Bft)
07.01.2023 05:20 7,2 C 6,7 C 90 % 1018,6 hPa 0,0 l/m 9,7 km/h (2 Bft) SO 135 0 min 0,0 UV-I 0 W/m 5,7 C 4,7 C 14,5 km/h (3 Bft)
07.01.2023 05:21 7,1 C 6,7 C 90 % 1018,6 hPa 0,0 l/m 12,9 km/h (3 Bft) S-SO 157 0 min 0,0 UV-I 0 W/m 5,6 C 2,7 C 17,7 km/h (3 Bft)
07.01.2023 05:22 7,1 C 6,7 C 90 % 1018,6 hPa 0,0 l/m 11,3 km/h (2 Bft) SO 135 0 min 0,0 UV-I 0 W/m 5,6 C 3,6 C 14,5 km/h (3 Bft)
07.01.2023 05:23 7,1 C 6,7 C 90 % 1018,6 hPa 0,0 l/m 8,0 km/h (2 Bft) SO 135 0 min 0,0 UV-I 0 W/m 5,6 C 5,8 C 11,3 km/h (2 Bft)
07.01.2023 05:24 7,2 C 6,1 C 90 % 1018,5 hPa 0,0 l/m 8,0 km/h (2 Bft) SO 135 0 min 0,0 UV-I 0 W/m 5,7 C 5,9 C 12,9 km/h (3 Bft)
07.01.2023 05:25 7,1 C 6,1 C 90 % 1018,5 hPa 0,0 l/m 9,7 km/h (2 Bft) S-SO 157 0 min 0,0 UV-I 0 W/m 5,6 C 4,6 C 12,9 km/h (3 Bft)
07.01.2023 05:26 7,1 C 6,1 C 90 % 1018,5 hPa 0,0 l/m 6,4 km/h (2 Bft) SO 135 0 min 0,0 UV-I 0 W/m 5,6 C 7,1 C 11,3 km/h (2 Bft)
07.01.2023 05:27 7,1 C 6,1 C 90 % 1018,5 hPa 0,0 l/m 6,4 km/h (2 Bft) S-SO 157 0 min 0,0 UV-I 0 W/m 5,6 C 7,1 C 9,7 km/h (2 Bft)
07.01.2023 05:28 7,1 C 6,1 C 90 % 1018,4 hPa 0,0 l/m 9,7 km/h (2 Bft) SO 135 0 min 0,0 UV-I 0 W/m 5,6 C 4,6 C 12,9 km/h (3 Bft)
07.01.2023 05:29 7,1 C 6,1 C 90 % 1018,3 hPa 0,0 l/m 11,3 km/h (2 Bft) S-SO 157 0 min 0,0 UV-I 0 W/m 5,6 C 3,6 C 14,5 km/h (3 Bft)
07.01.2023 05:30 7,1 C 6,1 C 90 % 1018,3 hPa 0,0 l/m 11,3 km/h (2 Bft) S-SO 157 0 min 0,0 UV-I 0 W/m 5,6 C 3,6 C 14,5 km/h (3 Bft)
07.01.2023 05:31 7,1 C 6,1 C 90 % 1018,4 hPa 0,0 l/m 8,0 km/h (2 Bft) S-SO 157 0 min 0,0 UV-I 0 W/m 5,6 C 5,8 C 9,7 km/h (2 Bft)
07.01.2023 05:32 7,1 C 6,1 C 90 % 1018,5 hPa 0,0 l/m 8,0 km/h (2 Bft) S-SO 157 0 min 0,0 UV-I 0 W/m 5,6 C 5,8 C 12,9 km/h (3 Bft)
07.01.2023 05:33 7,1 C 6,1 C 90 % 1018,4 hPa 0,0 l/m 12,9 km/h (3 Bft) S-SO 157 0 min 0,0 UV-I 0 W/m 5,6 C 2,7 C 16,1 km/h (3 Bft)
07.01.2023 05:34 7,1 C 6,1 C 90 % 1018,3 hPa 0,0 l/m 11,3 km/h (2 Bft) S-SO 157 0 min 0,0 UV-I 0 W/m 5,6 C 3,6 C 14,5 km/h (3 Bft)
07.01.2023 05:35 7,1 C 6,1 C 90 % 1018,4 hPa 0,0 l/m 11,3 km/h (2 Bft) S-SO 157 0 min 0,0 UV-I 0 W/m 5,6 C 3,6 C 16,1 km/h (3 Bft)
07.01.2023 05:36 7,1 C 6,1 C 90 % 1018,4 hPa 0,0 l/m 9,7 km/h (2 Bft) S-SO 157 0 min 0,0 UV-I 0 W/m 5,6 C 4,6 C 12,9 km/h (3 Bft)
07.01.2023 05:37 7,1 C 6,1 C 90 % 1018,4 hPa 0,0 l/m 9,7 km/h (2 Bft) S-SO 157 0 min 0,0 UV-I 0 W/m 5,6 C 4,6 C 11,3 km/h (2 Bft)
07.01.2023 05:38 7,1 C 6,1 C 90 % 1018,3 hPa 0,0 l/m 8,0 km/h (2 Bft) S-SO 157 0 min 0,0 UV-I 0 W/m 5,6 C 5,8 C 11,3 km/h (2 Bft)
07.01.2023 05:39 7,1 C 6,1 C 90 % 1018,4 hPa 0,0 l/m 9,7 km/h (2 Bft) S-SO 157 0 min 0,0 UV-I 0 W/m 5,6 C 4,6 C 16,1 km/h (3 Bft)
07.01.2023 05:40 7,1 C 6,1 C 90 % 1018,4 hPa 0,0 l/m 9,7 km/h (2 Bft) S-SO 157 0 min 0,0 UV-I 0 W/m 5,6 C 4,6 C 12,9 km/h (3 Bft)
07.01.2023 05:41 7,1 C 6,1 C 90 % 1018,2 hPa 0,0 l/m 9,7 km/h (2 Bft) S 180 0 min 0,0 UV-I 0 W/m 5,6 C 4,6 C 17,7 km/h (3 Bft)
07.01.2023 05:42 7,1 C 6,1 C 90 % 1018,3 hPa 0,0 l/m 8,0 km/h (2 Bft) S-SO 157 0 min 0,0 UV-I 0 W/m 5,6 C 5,8 C 12,9 km/h (3 Bft)
07.01.2023 05:43 7,1 C 6,1 C 90 % 1018,3 hPa 0,0 l/m 11,3 km/h (2 Bft) S-SO 157 0 min 0,0 UV-I 0 W/m 5,6 C 3,6 C 14,5 km/h (3 Bft)
07.01.2023 05:44 7,1 C 6,1 C 90 % 1018,2 hPa 0,0 l/m 11,3 km/h (2 Bft) S-SO 157 0 min 0,0 UV-I 0 W/m 5,6 C 3,6 C 16,1 km/h (3 Bft)
07.01.2023 05:45 7,0 C 6,1 C 90 % 1018,3 hPa 0,0 l/m 9,7 km/h (2 Bft) S 180 0 min 0,0 UV-I 0 W/m 5,5 C 4,5 C 11,3 km/h (2 Bft)
07.01.2023 05:46 7,1 C 6,1 C 90 % 1018,2 hPa 0,0 l/m 11,3 km/h (2 Bft) S-SO 157 0 min 0,0 UV-I 0 W/m 5,6 C 3,6 C 17,7 km/h (3 Bft)
07.01.2023 05:47 7,0 C 6,1 C 90 % 1018,3 hPa 0,0 l/m 6,4 km/h (2 Bft) S 180 0 min 0,0 UV-I 0 W/m 5,5 C 7,0 C 14,5 km/h (3 Bft)
07.01.2023 05:48 7,1 C 6,1 C 90 % 1018,2 hPa 0,0 l/m 8,0 km/h (2 Bft) S-SO 157 0 min 0,0 UV-I 0 W/m 5,6 C 5,8 C 14,5 km/h (3 Bft)
07.01.2023 05:49 7,0 C 6,1 C 90 % 1018,1 hPa 0,0 l/m 11,3 km/h (2 Bft) S 180 0 min 0,0 UV-I 0 W/m 5,5 C 3,5 C 17,7 km/h (3 Bft)
07.01.2023 05:50 7,0 C 6,1 C 90 % 1018,1 hPa 0,0 l/m 11,3 km/h (2 Bft) S-SO 157 0 min 0,0 UV-I 0 W/m 5,5 C 3,5 C 20,9 km/h (4 Bft)
07.01.2023 05:51 7,0 C 6,1 C 90 % 1018,2 hPa 0,0 l/m 9,7 km/h (2 Bft) S 180 0 min 0,0 UV-I 0 W/m 5,5 C 4,5 C 12,9 km/h (3 Bft)
07.01.2023 05:52 7,0 C 6,1 C 90 % 1018,2 hPa 0,0 l/m 12,9 km/h (3 Bft) S 180 0 min 0,0 UV-I 0 W/m 5,5 C 2,6 C 16,1 km/h (3 Bft)
07.01.2023 05:53 6,9 C 6,1 C 90 % 1018,2 hPa 0,0 l/m 11,3 km/h (2 Bft) S 180 0 min 0,0 UV-I 0 W/m 5,4 C 3,4 C 19,3 km/h (3 Bft)
07.01.2023 05:54 7,0 C 6,1 C 90 % 1018,1 hPa 0,0 l/m 9,7 km/h (2 Bft) S 180 0 min 0,0 UV-I 0 W/m 5,5 C 4,5 C 16,1 km/h (3 Bft)
07.01.2023 05:55 6,9 C 6,1 C 90 % 1018,0 hPa 0,0 l/m 12,9 km/h (3 Bft) S 180 0 min 0,0 UV-I 0 W/m 5,4 C 2,4 C 17,7 km/h (3 Bft)
07.01.2023 05:56 6,9 C 6,1 C 90 % 1018,0 hPa 0,0 l/m 12,9 km/h (3 Bft) S-SO 157 0 min 0,0 UV-I 0 W/m 5,4 C 2,4 C 24,1 km/h (4 Bft)
07.01.2023 05:57 6,9 C 6,1 C 90 % 1018,1 hPa 0,0 l/m 12,9 km/h (3 Bft) S 180 0 min 0,0 UV-I 0 W/m 5,4 C 2,4 C 20,9 km/h (4 Bft)
07.01.2023 05:58 6,9 C 6,1 C 90 % 1018,0 hPa 0,0 l/m 9,7 km/h (2 Bft) S 180 0 min 0,0 UV-I 0 W/m 5,4 C 4,4 C 12,9 km/h (3 Bft)
07.01.2023 05:59 6,9 C 6,1 C 90 % 1018,1 hPa 0,0 l/m 11,3 km/h (2 Bft) S 180 0 min 0,0 UV-I 0 W/m 5,4 C 3,4 C 17,7 km/h (3 Bft)
07.01.2023 06:00 6,9 C 6,1 C 90 % 1018,0 hPa 0,0 l/m 14,5 km/h (3 Bft) S 180 0 min 0,0 UV-I 0 W/m 5,4 C 1,6 C 20,9 km/h (4 Bft)
07.01.2023 06:01 6,9 C 6,1 C 90 % 1018,0 hPa 0,0 l/m 12,9 km/h (3 Bft) S 180 0 min 0,0 UV-I 0 W/m 5,4 C 2,4 C 14,5 km/h (3 Bft)
07.01.2023 06:02 6,9 C 6,1 C 90 % 1017,9 hPa 0,0 l/m 11,3 km/h (2 Bft) S 180 0 min 0,0 UV-I 0 W/m 5,4 C 3,4 C 16,1 km/h (3 Bft)
07.01.2023 06:03 6,9 C 6,1 C 90 % 1017,8 hPa 0,0 l/m 8,0 km/h (2 Bft) S 180 0 min 0,0 UV-I 0 W/m 5,4 C 5,6 C 11,3 km/h (2 Bft)
07.01.2023 06:04 6,9 C 6,1 C 90 % 1017,9 hPa 0,0 l/m 12,9 km/h (3 Bft) S-SO 157 0 min 0,0 UV-I 0 W/m 5,4 C 2,4 C 16,1 km/h (3 Bft)
07.01.2023 06:05 6,9 C 6,1 C 90 % 1017,9 hPa 0,0 l/m 12,9 km/h (3 Bft) S-SO 157 0 min 0,0 UV-I 0 W/m 5,4 C 2,4 C 19,3 km/h (3 Bft)
07.01.2023 06:06 6,9 C 6,1 C 90 % 1017,8 hPa 0,0 l/m 11,3 km/h (2 Bft) S-SO 157 0 min 0,0 UV-I 0 W/m 5,4 C 3,4 C 17,7 km/h (3 Bft)
07.01.2023 06:07 6,9 C 6,1 C 90 % 1017,8 hPa 0,0 l/m 9,7 km/h (2 Bft) S 180 0 min 0,0 UV-I 0 W/m 5,4 C 4,4 C 14,5 km/h (3 Bft)
07.01.2023 06:08 6,9 C 6,1 C 90 % 1017,8 hPa 0,0 l/m 11,3 km/h (2 Bft) S-SO 157 0 min 0,0 UV-I 0 W/m 5,4 C 3,4 C 14,5 km/h (3 Bft)
07.01.2023 06:09 6,9 C 6,1 C 90 % 1017,8 hPa 0,0 l/m 9,7 km/h (2 Bft) S-SO 157 0 min 0,0 UV-I 0 W/m 5,4 C 4,4 C 12,9 km/h (3 Bft)
07.01.2023 06:10 6,9 C 6,1 C 90 % 1017,8 hPa 0,0 l/m 14,5 km/h (3 Bft) S 180 0 min 0,0 UV-I 0 W/m 5,4 C 1,6 C 17,7 km/h (3 Bft)
07.01.2023 06:11 6,9 C 6,1 C 90 % 1017,9 hPa 0,0 l/m 12,9 km/h (3 Bft) S 180 0 min 0,0 UV-I 0 W/m 5,4 C 2,4 C 20,9 km/h (4 Bft)
07.01.2023 06:12 6,9 C 6,1 C 90 % 1017,8 hPa 0,0 l/m 11,3 km/h (2 Bft) S 180 0 min 0,0 UV-I 0 W/m 5,4 C 3,4 C 14,5 km/h (3 Bft)
07.01.2023 06:13 6,9 C 6,1 C 90 % 1017,7 hPa 0,0 l/m 11,3 km/h (2 Bft) S-SO 157 0 min 0,0 UV-I 0 W/m 5,4 C 3,4 C 19,3 km/h (3 Bft)
07.01.2023 06:14 6,9 C 6,1 C 90 % 1017,7 hPa 0,0 l/m 12,9 km/h (3 Bft) S 180 0 min 0,0 UV-I 0 W/m 5,4 C 2,4 C 17,7 km/h (3 Bft)
07.01.2023 06:15 6,9 C 6,1 C 90 % 1017,8 hPa 0,0 l/m 8,0 km/h (2 Bft) S 180 0 min 0,0 UV-I 0 W/m 5,4 C 5,6 C 12,9 km/h (3 Bft)
07.01.2023 06:16 6,9 C 6,1 C 90 % 1017,7 hPa 0,0 l/m 8,0 km/h (2 Bft) S 180 0 min 0,0 UV-I 0 W/m 5,4 C 5,6 C 12,9 km/h (3 Bft)
07.01.2023 06:17 6,9 C 6,1 C 90 % 1017,8 hPa 0,0 l/m 12,9 km/h (3 Bft) S-SO 157 0 min 0,0 UV-I 0 W/m 5,4 C 2,4 C 22,5 km/h (4 Bft)
07.01.2023 06:18 6,9 C 6,1 C 90 % 1017,7 hPa 0,0 l/m 14,5 km/h (3 Bft) S-SO 157 0 min 0,0 UV-I 0 W/m 5,4 C 1,6 C 19,3 km/h (3 Bft)
07.01.2023 06:19 6,9 C 6,1 C 90 % 1017,7 hPa 0,0 l/m 16,1 km/h (3 Bft) S-SO 157 0 min 0,0 UV-I 0 W/m 5,4 C 0,9 C 22,5 km/h (4 Bft)
07.01.2023 06:20 6,9 C 6,1 C 90 % 1017,7 hPa 0,0 l/m 16,1 km/h (3 Bft) S-SO 157 0 min 0,0 UV-I 0 W/m 5,4 C 0,9 C 24,1 km/h (4 Bft)
07.01.2023 06:21 6,9 C 6,1 C 90 % 1017,6 hPa 0,0 l/m 14,5 km/h (3 Bft) S 180 0 min 0,0 UV-I 0 W/m 5,4 C 1,6 C 20,9 km/h (4 Bft)
07.01.2023 06:22 6,9 C 6,1 C 90 % 1017,6 hPa 0,0 l/m 14,5 km/h (3 Bft) S-SO 157 0 min 0,0 UV-I 0 W/m 5,4 C 1,6 C 20,9 km/h (4 Bft)
07.01.2023 06:23 6,9 C 6,1 C 90 % 1017,6 hPa 0,0 l/m 16,1 km/h (3 Bft) S-SO 157 0 min 0,0 UV-I 0 W/m 5,4 C 0,9 C 22,5 km/h (4 Bft)
07.01.2023 06:24 6,9 C 6,1 C 90 % 1017,6 hPa 0,0 l/m 12,9 km/h (3 Bft) S-SO 157 0 min 0,0 UV-I 0 W/m 5,4 C 2,4 C 19,3 km/h (3 Bft)
07.01.2023 06:25 6,9 C 6,1 C 89 % 1017,6 hPa 0,0 l/m 11,3 km/h (2 Bft) S-SO 157 0 min 0,0 UV-I 0 W/m 5,2 C 3,4 C 16,1 km/h (3 Bft)
07.01.2023 06:26 6,9 C 6,1 C 89 % 1017,6 hPa 0,0 l/m 14,5 km/h (3 Bft) S-SO 157 0 min 0,0 UV-I 0 W/m 5,2 C 1,6 C 19,3 km/h (3 Bft)
07.01.2023 06:27 6,9 C 6,1 C 89 % 1017,5 hPa 0,0 l/m 17,7 km/h (3 Bft) S-SO 157 0 min 0,0 UV-I 0 W/m 5,2 C 0,2 C 25,7 km/h (4 Bft)
07.01.2023 06:28 6,9 C 6,1 C 89 % 1017,5 hPa 0,0 l/m 14,5 km/h (3 Bft) S-SO 157 0 min 0,0 UV-I 0 W/m 5,2 C 1,6 C 22,5 km/h (4 Bft)
07.01.2023 06:29 6,9 C 6,1 C 89 % 1017,6 hPa 0,0 l/m 11,3 km/h (2 Bft) S-SO 157 0 min 0,0 UV-I 0 W/m 5,2 C 3,4 C 16,1 km/h (3 Bft)
07.01.2023 06:30 6,9 C 6,1 C 89 % 1017,5 hPa 0,0 l/m 9,7 km/h (2 Bft) SO 135 0 min 0,0 UV-I 0 W/m 5,2 C 4,4 C 16,1 km/h (3 Bft)
07.01.2023 06:31 6,9 C 6,1 C 89 % 1017,6 hPa 0,0 l/m 9,7 km/h (2 Bft) S 180 0 min 0,0 UV-I 0 W/m 5,2 C 4,4 C 14,5 km/h (3 Bft)
07.01.2023 06:32 6,9 C 6,1 C 89 % 1017,5 hPa 0,0 l/m 17,7 km/h (3 Bft) S-SO 157 0 min 0,0 UV-I 0 W/m 5,2 C 0,2 C 27,4 km/h (4 Bft)
07.01.2023 06:33 6,9 C 6,1 C 89 % 1017,6 hPa 0,0 l/m 14,5 km/h (3 Bft) S-SO 157 0 min 0,0 UV-I 0 W/m 5,2 C 1,6 C 19,3 km/h (3 Bft)
07.01.2023 06:34 6,9 C 6,1 C 89 % 1017,6 hPa 0,0 l/m 14,5 km/h (3 Bft) S-SO 157 0 min 0,0 UV-I 0 W/m 5,2 C 1,6 C 29,0 km/h (5 Bft)
07.01.2023 06:35 6,9 C 6,1 C 89 % 1017,6 hPa 0,0 l/m 19,3 km/h (3 Bft) S-SO 157 0 min 0,0 UV-I 0 W/m 5,2 C -0,5 C 30,6 km/h (5 Bft)
07.01.2023 06:36 6,9 C 6,1 C 89 % 1017,4 hPa 0,0 l/m 14,5 km/h (3 Bft) S-SO 157 0 min 0,0 UV-I 0 W/m 5,2 C 1,6 C 29,0 km/h (5 Bft)
07.01.2023 06:37 6,9 C 6,1 C 89 % 1017,4 hPa 0,0 l/m 14,5 km/h (3 Bft) SO 135 0 min 0,0 UV-I 0 W/m 5,2 C 1,6 C 20,9 km/h (4 Bft)
07.01.2023 06:38 6,9 C 6,1 C 89 % 1017,4 hPa 0,0 l/m 12,9 km/h (3 Bft) S-SO 157 0 min 0,0 UV-I 0 W/m 5,2 C 2,4 C 17,7 km/h (3 Bft)
07.01.2023 06:39 6,9 C 6,1 C 89 % 1017,4 hPa 0,0 l/m 12,9 km/h (3 Bft) S-SO 157 0 min 0,0 UV-I 0 W/m 5,2 C 2,4 C 17,7 km/h (3 Bft)
07.01.2023 06:40 6,9 C 6,1 C 89 % 1017,4 hPa 0,0 l/m 12,9 km/h (3 Bft) SO 135 0 min 0,0 UV-I 0 W/m 5,2 C 2,4 C 16,1 km/h (3 Bft)
07.01.2023 06:41 6,9 C 6,1 C 89 % 1017,4 hPa 0,0 l/m 16,1 km/h (3 Bft) S 180 0 min 0,0 UV-I 0 W/m 5,2 C 0,9 C 22,5 km/h (4 Bft)
07.01.2023 06:42 6,9 C 6,1 C 89 % 1017,5 hPa 0,0 l/m 12,9 km/h (3 Bft) S-SO 157 0 min 0,0 UV-I 0 W/m 5,2 C 2,4 C 19,3 km/h (3 Bft)
07.01.2023 06:43 6,9 C 6,1 C 89 % 1017,4 hPa 0,0 l/m 11,3 km/h (2 Bft) S-SO 157 0 min 0,0 UV-I 0 W/m 5,2 C 3,4 C 16,1 km/h (3 Bft)
07.01.2023 06:44 6,9 C 6,1 C 89 % 1017,4 hPa 0,0 l/m 8,0 km/h (2 Bft) S 180 0 min 0,0 UV-I 0 W/m 5,2 C 5,6 C 16,1 km/h (3 Bft)
07.01.2023 06:45 6,9 C 6,1 C 89 % 1017,4 hPa 0,0 l/m 11,3 km/h (2 Bft) S 180 0 min 0,0 UV-I 0 W/m 5,2 C 3,4 C 20,9 km/h (4 Bft)
07.01.2023 06:46 6,9 C 6,1 C 89 % 1017,4 hPa 0,0 l/m 12,9 km/h (3 Bft) S 180 0 min 0,0 UV-I 0 W/m 5,2 C 2,4 C 17,7 km/h (3 Bft)
07.01.2023 06:47 6,9 C 6,1 C 89 % 1017,4 hPa 0,0 l/m 14,5 km/h (3 Bft) S 180 0 min 0,0 UV-I 0 W/m 5,2 C 1,6 C 17,7 km/h (3 Bft)
07.01.2023 06:48 6,9 C 6,1 C 89 % 1017,3 hPa 0,0 l/m 12,9 km/h (3 Bft) S 180 0 min 0,0 UV-I 0 W/m 5,2 C 2,4 C 16,1 km/h (3 Bft)
07.01.2023 06:49 6,9 C 6,1 C 89 % 1017,3 hPa 0,0 l/m 11,3 km/h (2 Bft) S-SO 157 0 min 0,0 UV-I 0 W/m 5,2 C 3,4 C 14,5 km/h (3 Bft)
07.01.2023 06:50 6,9 C 6,1 C 89 % 1017,5 hPa 0,0 l/m 8,0 km/h (2 Bft) S 180 0 min 0,0 UV-I 0 W/m 5,2 C 5,6 C 11,3 km/h (2 Bft)
07.01.2023 06:51 6,9 C 6,1 C 89 % 1017,3 hPa 0,0 l/m 9,7 km/h (2 Bft) S 180 0 min 0,0 UV-I 0 W/m 5,2 C 4,4 C 14,5 km/h (3 Bft)
07.01.2023 06:52 6,9 C 6,1 C 89 % 1017,4 hPa 0,0 l/m 11,3 km/h (2 Bft) S-SO 157 0 min 0,0 UV-I 0 W/m 5,2 C 3,4 C 16,1 km/h (3 Bft)
07.01.2023 06:53 6,9 C 6,1 C 89 % 1017,4 hPa 0,0 l/m 9,7 km/h (2 Bft) S-SO 157 0 min 0,0 UV-I 0 W/m 5,2 C 4,4 C 14,5 km/h (3 Bft)
07.01.2023 06:54 6,9 C 6,1 C 89 % 1017,3 hPa 0,0 l/m 16,1 km/h (3 Bft) S 180 0 min 0,0 UV-I 0 W/m 5,2 C 0,9 C 20,9 km/h (4 Bft)
07.01.2023 06:55 6,9 C 6,1 C 89 % 1017,3 hPa 0,0 l/m 12,9 km/h (3 Bft) S-SO 157 0 min 0,0 UV-I 0 W/m 5,2 C 2,4 C 22,5 km/h (4 Bft)
07.01.2023 06:56 6,9 C 6,1 C 89 % 1017,3 hPa 0,0 l/m 11,3 km/h (2 Bft) S-SO 157 0 min 0,0 UV-I 0 W/m 5,2 C 3,4 C 16,1 km/h (3 Bft)
07.01.2023 06:57 6,9 C 6,1 C 89 % 1017,3 hPa 0,0 l/m 8,0 km/h (2 Bft) S 180 0 min 0,0 UV-I 0 W/m 5,2 C 5,6 C 11,3 km/h (2 Bft)
07.01.2023 06:58 6,9 C 6,1 C 89 % 1017,3 hPa 0,0 l/m 9,7 km/h (2 Bft) S-SO 157 0 min 0,0 UV-I 0 W/m 5,2 C 4,4 C 14,5 km/h (3 Bft)
07.01.2023 06:59 6,9 C 6,1 C 89 % 1017,3 hPa 0,0 l/m 9,7 km/h (2 Bft) S 180 0 min 0,0 UV-I 0 W/m 5,2 C 4,4 C 17,7 km/h (3 Bft)
07.01.2023 07:00 6,9 C 6,1 C 89 % 1017,3 hPa 0,0 l/m 9,7 km/h (2 Bft) S-SO 157 0 min 0,0 UV-I 0 W/m 5,2 C 4,4 C 12,9 km/h (3 Bft)
07.01.2023 07:01 6,9 C 6,1 C 89 % 1017,3 hPa 0,0 l/m 9,7 km/h (2 Bft) S-SO 157 0 min 0,0 UV-I 0 W/m 5,2 C 4,4 C 16,1 km/h (3 Bft)
07.01.2023 07:02 6,9 C 6,1 C 89 % 1017,3 hPa 0,0 l/m 12,9 km/h (3 Bft) S 180 0 min 0,0 UV-I 0 W/m 5,2 C 2,4 C 22,5 km/h (4 Bft)
07.01.2023 07:03 6,8 C 6,1 C 89 % 1017,3 hPa 0,0 l/m 12,9 km/h (3 Bft) S 180 0 min 0,0 UV-I 0 W/m 5,1 C 2,3 C 22,5 km/h (4 Bft)
07.01.2023 07:04 6,8 C 6,1 C 89 % 1017,2 hPa 0,0 l/m 12,9 km/h (3 Bft) S-SO 157 0 min 0,0 UV-I 0 W/m 5,1 C 2,3 C 17,7 km/h (3 Bft)
07.01.2023 07:05 6,9 C 6,1 C 89 % 1017,2 hPa 0,0 l/m 14,5 km/h (3 Bft) S-SO 157 0 min 0,0 UV-I 0 W/m 5,2 C 1,6 C 22,5 km/h (4 Bft)
07.01.2023 07:06 6,8 C 6,1 C 89 % 1017,1 hPa 0,0 l/m 14,5 km/h (3 Bft) S 180 0 min 0,0 UV-I 0 W/m 5,1 C 1,5 C 19,3 km/h (3 Bft)
07.01.2023 07:07 6,8 C 6,1 C 89 % 1017,2 hPa 0,0 l/m 8,0 km/h (2 Bft) SO 135 0 min 0,0 UV-I 0 W/m 5,1 C 5,5 C 12,9 km/h (3 Bft)
07.01.2023 07:08 6,8 C 6,1 C 89 % 1017,1 hPa 0,0 l/m 9,7 km/h (2 Bft) S-SO 157 0 min 0,0 UV-I 0 W/m 5,1 C 4,3 C 14,5 km/h (3 Bft)
07.01.2023 07:09 6,8 C 6,1 C 89 % 1017,2 hPa 0,0 l/m 8,0 km/h (2 Bft) S 180 0 min 0,0 UV-I 0 W/m 5,1 C 5,5 C 12,9 km/h (3 Bft)
07.01.2023 07:10 6,8 C 6,1 C 89 % 1017,1 hPa 0,0 l/m 9,7 km/h (2 Bft) S-SO 157 0 min 0,0 UV-I 0 W/m 5,1 C 4,3 C 11,3 km/h (2 Bft)
07.01.2023 07:11 6,9 C 6,1 C 89 % 1017,2 hPa 0,0 l/m 8,0 km/h (2 Bft) S 180 0 min 0,0 UV-I 0 W/m 5,2 C 5,6 C 11,3 km/h (2 Bft)
07.01.2023 07:12 6,8 C 6,1 C 89 % 1017,2 hPa 0,0 l/m 9,7 km/h (2 Bft) S-SO 157 0 min 0,0 UV-I 0 W/m 5,1 C 4,3 C 14,5 km/h (3 Bft)
07.01.2023 07:13 6,8 C 6,1 C 89 % 1017,1 hPa 0,0 l/m 11,3 km/h (2 Bft) S-SO 157 0 min 0,0 UV-I 0 W/m 5,1 C 3,2 C 17,7 km/h (3 Bft)
07.01.2023 07:14 6,8 C 6,1 C 89 % 1017,3 hPa 0,0 l/m 8,0 km/h (2 Bft) S-SO 157 0 min 0,0 UV-I 0 W/m 5,1 C 5,5 C 14,5 km/h (3 Bft)
07.01.2023 07:15 6,8 C 6,1 C 89 % 1017,3 hPa 0,0 l/m 9,7 km/h (2 Bft) S-SO 157 0 min 0,0 UV-I 0 W/m 5,1 C 4,3 C 12,9 km/h (3 Bft)
07.01.2023 07:16 6,8 C 6,1 C 89 % 1017,1 hPa 0,0 l/m 12,9 km/h (3 Bft) S-SO 157 0 min 0,0 UV-I 0 W/m 5,1 C 2,3 C 17,7 km/h (3 Bft)
07.01.2023 07:17 6,8 C 6,1 C 89 % 1017,1 hPa 0,0 l/m 12,9 km/h (3 Bft) S 180 0 min 0,0 UV-I 0 W/m 5,1 C 2,3 C 19,3 km/h (3 Bft)
07.01.2023 07:18 6,8 C 6,1 C 89 % 1017,1 hPa 0,0 l/m 11,3 km/h (2 Bft) S 180 0 min 0,0 UV-I 0 W/m 5,1 C 3,2 C 14,5 km/h (3 Bft)
07.01.2023 07:19 6,8 C 6,1 C 89 % 1017,2 hPa 0,0 l/m 14,5 km/h (3 Bft) S 180 0 min 0,0 UV-I 0 W/m 5,1 C 1,5 C 19,3 km/h (3 Bft)
07.01.2023 07:20 6,8 C 6,1 C 89 % 1017,1 hPa 0,0 l/m 16,1 km/h (3 Bft) S-SO 157 0 min 0,0 UV-I 0 W/m 5,1 C 0,7 C 24,1 km/h (4 Bft)
07.01.2023 07:21 6,8 C 6,1 C 89 % 1017,2 hPa 0,0 l/m 11,3 km/h (2 Bft) S-SO 157 0 min 0,0 UV-I 0 W/m 5,1 C 3,2 C 17,7 km/h (3 Bft)
07.01.2023 07:22 6,8 C 6,1 C 89 % 1017,1 hPa 0,0 l/m 12,9 km/h (3 Bft) S-SO 157 0 min 0,0 UV-I 0 W/m 5,1 C 2,3 C 17,7 km/h (3 Bft)
07.01.2023 07:23 6,8 C 6,1 C 89 % 1017,2 hPa 0,0 l/m 11,3 km/h (2 Bft) S-SO 157 0 min 0,0 UV-I 0 W/m 5,1 C 3,2 C 14,5 km/h (3 Bft)
07.01.2023 07:24 6,8 C 6,1 C 89 % 1017,1 hPa 0,0 l/m 14,5 km/h (3 Bft) SO 135 0 min 0,0 UV-I 0 W/m 5,1 C 1,5 C 19,3 km/h (3 Bft)
07.01.2023 07:25 6,8 C 6,1 C 89 % 1017,1 hPa 0,0 l/m 12,9 km/h (3 Bft) S-SO 157 0 min 0,0 UV-I 0 W/m 5,1 C 2,3 C 16,1 km/h (3 Bft)
07.01.2023 07:26 6,8 C 6,1 C 89 % 1017,1 hPa 0,0 l/m 11,3 km/h (2 Bft) S-SO 157 0 min 0,0 UV-I 0 W/m 5,1 C 3,2 C 16,1 km/h (3 Bft)
07.01.2023 07:27 6,8 C 6,1 C 89 % 1017,0 hPa 0,0 l/m 11,3 km/h (2 Bft) SO 135 0 min 0,0 UV-I 0 W/m 5,1 C 3,2 C 14,5 km/h (3 Bft)
07.01.2023 07:28 6,8 C 6,1 C 89 % 1017,1 hPa 0,0 l/m 8,0 km/h (2 Bft) SO 135 0 min 0,0 UV-I 0 W/m 5,1 C 5,5 C 12,9 km/h (3 Bft)
07.01.2023 07:29 6,8 C 6,1 C 89 % 1017,0 hPa 0,0 l/m 8,0 km/h (2 Bft) S 180 0 min 0,0 UV-I 0 W/m 5,1 C 5,5 C 11,3 km/h (2 Bft)
07.01.2023 07:30 6,8 C 6,1 C 89 % 1017,0 hPa 0,0 l/m 9,7 km/h (2 Bft) S-SO 157 0 min 0,0 UV-I 0 W/m 5,1 C 4,3 C 17,7 km/h (3 Bft)
07.01.2023 07:31 6,8 C 6,1 C 89 % 1016,9 hPa 0,0 l/m 14,5 km/h (3 Bft) S 180 0 min 0,0 UV-I 0 W/m 5,1 C 1,5 C 22,5 km/h (4 Bft)
07.01.2023 07:32 6,8 C 6,1 C 89 % 1017,0 hPa 0,0 l/m 12,9 km/h (3 Bft) S-SO 157 0 min 0,0 UV-I 0 W/m 5,1 C 2,3 C 22,5 km/h (4 Bft)
07.01.2023 07:33 6,8 C 6,1 C 89 % 1016,9 hPa 0,0 l/m 14,5 km/h (3 Bft) S-SO 157 0 min 0,0 UV-I 0 W/m 5,1 C 1,5 C 19,3 km/h (3 Bft)
07.01.2023 07:34 6,8 C 6,1 C 89 % 1016,9 hPa 0,0 l/m 12,9 km/h (3 Bft) S-SO 157 0 min 0,0 UV-I 0 W/m 5,1 C 2,3 C 19,3 km/h (3 Bft)
07.01.2023 07:35 6,8 C 6,1 C 89 % 1017,0 hPa 0,0 l/m 16,1 km/h (3 Bft) S 180 0 min 0,0 UV-I 0 W/m 5,1 C 0,7 C 22,5 km/h (4 Bft)
07.01.2023 07:36 6,8 C 6,1 C 89 % 1016,8 hPa 0,0 l/m 12,9 km/h (3 Bft) S 180 0 min 0,0 UV-I 0 W/m 5,1 C 2,3 C 19,3 km/h (3 Bft)
07.01.2023 07:37 6,7 C 6,1 C 89 % 1016,9 hPa 0,0 l/m 14,5 km/h (3 Bft) S-SO 157 0 min 0,0 UV-I 0 W/m 5,0 C 1,4 C 20,9 km/h (4 Bft)
07.01.2023 07:38 6,7 C 6,1 C 89 % 1016,8 hPa 0,0 l/m 11,3 km/h (2 Bft) S-SO 157 0 min 0,0 UV-I 0 W/m 5,0 C 3,1 C 14,5 km/h (3 Bft)
07.01.2023 07:39 6,7 C 6,1 C 89 % 1016,8 hPa 0,0 l/m 11,3 km/h (2 Bft) S-SO 157 0 min 0,0 UV-I 0 W/m 5,0 C 3,1 C 14,5 km/h (3 Bft)
07.01.2023 07:40 6,7 C 6,1 C 89 % 1016,8 hPa 0,0 l/m 11,3 km/h (2 Bft) SO 135 0 min 0,0 UV-I 0 W/m 5,0 C 3,1 C 14,5 km/h (3 Bft)
07.01.2023 07:41 6,7 C 6,1 C 89 % 1016,7 hPa 0,0 l/m 9,7 km/h (2 Bft) S 180 0 min 0,0 UV-I 0 W/m 5,0 C 4,2 C 14,5 km/h (3 Bft)
07.01.2023 07:42 6,7 C 6,1 C 89 % 1016,8 hPa 0,0 l/m 11,3 km/h (2 Bft) S-SO 157 0 min 0,0 UV-I 0 W/m 5,0 C 3,1 C 16,1 km/h (3 Bft)
07.01.2023 07:43 6,7 C 6,1 C 89 % 1016,8 hPa 0,0 l/m 8,0 km/h (2 Bft) S-SO 157 0 min 0,0 UV-I 0 W/m 5,0 C 5,4 C 20,9 km/h (4 Bft)
07.01.2023 07:44 6,7 C 6,1 C 89 % 1016,7 hPa 0,0 l/m 9,7 km/h (2 Bft) S-SO 157 0 min 0,0 UV-I 0 W/m 5,0 C 4,2 C 19,3 km/h (3 Bft)
07.01.2023 07:45 6,7 C 6,1 C 89 % 1016,7 hPa 0,0 l/m 12,9 km/h (3 Bft) SO 135 0 min 0,0 UV-I 0 W/m 5,0 C 2,2 C 17,7 km/h (3 Bft)
07.01.2023 07:46 6,7 C 6,1 C 89 % 1016,6 hPa 0,0 l/m 14,5 km/h (3 Bft) S-SO 157 0 min 0,0 UV-I 0 W/m 5,0 C 1,4 C 19,3 km/h (3 Bft)
07.01.2023 07:47 6,7 C 6,1 C 89 % 1016,7 hPa 0,0 l/m 14,5 km/h (3 Bft) S-SO 157 0 min 0,0 UV-I 0 W/m 5,0 C 1,4 C 25,7 km/h (4 Bft)
07.01.2023 07:48 6,7 C 6,1 C 90 % 1016,7 hPa 0,0 l/m 14,5 km/h (3 Bft) S-SO 157 0 min 0,0 UV-I 0 W/m 5,2 C 1,4 C 19,3 km/h (3 Bft)
07.01.2023 07:49 6,7 C 6,1 C 89 % 1016,6 hPa 0,0 l/m 8,0 km/h (2 Bft) SO 135 0 min 0,0 UV-I 0 W/m 5,0 C 5,4 C 14,5 km/h (3 Bft)
07.01.2023 07:50 6,7 C 6,1 C 89 % 1016,6 hPa 0,0 l/m 9,7 km/h (2 Bft) SO 135 0 min 0,0 UV-I 0 W/m 5,0 C 4,2 C 16,1 km/h (3 Bft)
07.01.2023 07:51 6,6 C 6,1 C 89 % 1016,5 hPa 0,0 l/m 11,3 km/h (2 Bft) SO 135 0 min 0,0 UV-I 0 W/m 4,9 C 3,0 C 17,7 km/h (3 Bft)
07.01.2023 07:52 6,7 C 6,1 C 89 % 1016,5 hPa 0,0 l/m 9,7 km/h (2 Bft) S-SO 157 0 min 0,0 UV-I 0 W/m 5,0 C 4,2 C 12,9 km/h (3 Bft)
07.01.2023 07:53 6,7 C 6,1 C 89 % 1016,4 hPa 0,0 l/m 11,3 km/h (2 Bft) S 180 0 min 0,0 UV-I 0 W/m 5,0 C 3,1 C 19,3 km/h (3 Bft)
07.01.2023 07:54 6,6 C 6,1 C 89 % 1016,6 hPa 0,0 l/m 6,4 km/h (2 Bft) S-SO 157 0 min 0,0 UV-I 0 W/m 4,9 C 6,6 C 12,9 km/h (3 Bft)
07.01.2023 07:55 6,6 C 6,1 C 89 % 1016,4 hPa 0,0 l/m 9,7 km/h (2 Bft) S-SO 157 0 min 0,0 UV-I 0 W/m 4,9 C 4,0 C 12,9 km/h (3 Bft)
07.01.2023 07:56 6,6 C 6,1 C 89 % 1016,5 hPa 0,0 l/m 11,3 km/h (2 Bft) SO 135 0 min 0,0 UV-I 0 W/m 4,9 C 3,0 C 17,7 km/h (3 Bft)
07.01.2023 07:57 6,6 C 6,1 C 89 % 1016,5 hPa 0,0 l/m 11,3 km/h (2 Bft) S-SO 157 0 min 0,0 UV-I 0 W/m 4,9 C 3,0 C 16,1 km/h (3 Bft)
07.01.2023 07:58 6,6 C 6,1 C 89 % 1016,4 hPa 0,0 l/m 6,4 km/h (2 Bft) S-SO 157 0 min 0,0 UV-I 0 W/m 4,9 C 6,6 C 11,3 km/h (2 Bft)
07.01.2023 07:59 6,6 C 6,1 C 89 % 1016,4 hPa 0,0 l/m 8,0 km/h (2 Bft) SO 135 0 min 0,0 UV-I 0 W/m 4,9 C 5,3 C 12,9 km/h (3 Bft)
07.01.2023 08:00 6,6 C 6,1 C 89 % 1016,5 hPa 0,0 l/m 11,3 km/h (2 Bft) S 180 0 min 0,0 UV-I 0 W/m 4,9 C 3,0 C 17,7 km/h (3 Bft)
07.01.2023 08:01 6,6 C 6,1 C 89 % 1016,4 hPa 0,0 l/m 9,7 km/h (2 Bft) SO 135 0 min 0,0 UV-I 0 W/m 4,9 C 4,0 C 14,5 km/h (3 Bft)
07.01.2023 08:02 6,6 C 6,1 C 89 % 1016,4 hPa 0,0 l/m 12,9 km/h (3 Bft) SO 135 0 min 0,0 UV-I 0 W/m 4,9 C 2,1 C 22,5 km/h (4 Bft)
07.01.2023 08:03 6,6 C 6,1 C 89 % 1016,3 hPa 0,0 l/m 14,5 km/h (3 Bft) S-SO 157 0 min 0,0 UV-I 0 W/m 4,9 C 1,3 C 19,3 km/h (3 Bft)
07.01.2023 08:04 6,6 C 6,1 C 90 % 1016,3 hPa 0,0 l/m 12,9 km/h (3 Bft) S-SO 157 0 min 0,0 UV-I 0 W/m 5,1 C 2,1 C 17,7 km/h (3 Bft)
07.01.2023 08:05 6,6 C 6,1 C 89 % 1016,3 hPa 0,0 l/m 9,7 km/h (2 Bft) S-SO 157 0 min 0,0 UV-I 0 W/m 4,9 C 4,0 C 12,9 km/h (3 Bft)
07.01.2023 08:06 6,6 C 6,1 C 90 % 1016,3 hPa 0,0 l/m 9,7 km/h (2 Bft) S-SO 157 0 min 0,0 UV-I 0 W/m 5,1 C 4,0 C 12,9 km/h (3 Bft)
07.01.2023 08:07 6,6 C 6,1 C 90 % 1016,3 hPa 0,0 l/m 6,4 km/h (2 Bft) S-SO 157 0 min 0,0 UV-I 0 W/m 5,1 C 6,6 C 9,7 km/h (2 Bft)
07.01.2023 08:08 6,6 C 6,1 C 90 % 1016,4 hPa 0,0 l/m 6,4 km/h (2 Bft) S-SO 157 0 min 0,0 UV-I 0 W/m 5,1 C 6,6 C 11,3 km/h (2 Bft)
07.01.2023 08:09 6,6 C 6,1 C 90 % 1016,3 hPa 0,0 l/m 4,8 km/h (1 Bft) S-SO 157 0 min 0,0 UV-I 0 W/m 5,1 C 6,6 C 9,7 km/h (2 Bft)
07.01.2023 08:10 6,6 C 6,1 C 90 % 1016,4 hPa 0,0 l/m 11,3 km/h (2 Bft) S 180 0 min 0,0 UV-I 0 W/m 5,1 C 3,0 C 16,1 km/h (3 Bft)
07.01.2023 08:11 6,6 C 6,1 C 90 % 1016,4 hPa 0,0 l/m 11,3 km/h (2 Bft) S-SO 157 0 min 0,0 UV-I 0 W/m 5,1 C 3,0 C 14,5 km/h (3 Bft)
07.01.2023 08:12 6,6 C 6,1 C 90 % 1016,4 hPa 0,0 l/m 9,7 km/h (2 Bft) S 180 0 min 0,0 UV-I 0 W/m 5,1 C 4,0 C 16,1 km/h (3 Bft)
07.01.2023 08:13 6,6 C 6,1 C 90 % 1016,3 hPa 0,0 l/m 8,0 km/h (2 Bft) SO 135 0 min 0,0 UV-I 0 W/m 5,1 C 5,3 C 12,9 km/h (3 Bft)
07.01.2023 08:14 6,6 C 6,1 C 90 % 1016,3 hPa 0,0 l/m 8,0 km/h (2 Bft) SO 135 0 min 0,0 UV-I 0 W/m 5,1 C 5,3 C 12,9 km/h (3 Bft)
07.01.2023 08:15 6,6 C 6,1 C 90 % 1016,3 hPa 0,0 l/m 11,3 km/h (2 Bft) S-SO 157 0 min 0,0 UV-I 0 W/m 5,1 C 3,0 C 16,1 km/h (3 Bft)
07.01.2023 08:16 6,6 C 6,1 C 90 % 1016,3 hPa 0,0 l/m 11,3 km/h (2 Bft) SO 135 0 min 0,0 UV-I 0 W/m 5,1 C 3,0 C 17,7 km/h (3 Bft)
07.01.2023 08:17 6,6 C 6,1 C 90 % 1016,3 hPa 0,0 l/m 9,7 km/h (2 Bft) S-SO 157 0 min 0,0 UV-I 0 W/m 5,1 C 4,0 C 14,5 km/h (3 Bft)
07.01.2023 08:18 6,6 C 6,1 C 90 % 1016,3 hPa 0,0 l/m 14,5 km/h (3 Bft) SO 135 0 min 0,0 UV-I 0 W/m 5,1 C 1,3 C 22,5 km/h (4 Bft)
07.01.2023 08:19 6,6 C 6,1 C 90 % 1016,3 hPa 0,0 l/m 11,3 km/h (2 Bft) S-SO 157 0 min 0,0 UV-I 0 W/m 5,1 C 3,0 C 16,1 km/h (3 Bft)
07.01.2023 08:20 6,6 C 6,1 C 90 % 1016,3 hPa 0,0 l/m 8,0 km/h (2 Bft) S-SO 157 0 min 0,0 UV-I 0 W/m 5,1 C 5,3 C 12,9 km/h (3 Bft)
07.01.2023 08:21 6,6 C 6,1 C 90 % 1016,4 hPa 0,0 l/m 6,4 km/h (2 Bft) S-SO 157 0 min 0,0 UV-I 0 W/m 5,1 C 6,6 C 8,0 km/h (2 Bft)
07.01.2023 08:22 6,6 C 6,1 C 90 % 1016,3 hPa 0,0 l/m 6,4 km/h (2 Bft) SO 135 0 min 0,0 UV-I 0 W/m 5,1 C 6,6 C 11,3 km/h (2 Bft)
07.01.2023 08:23 6,6 C 6,1 C 90 % 1016,3 hPa 0,0 l/m 8,0 km/h (2 Bft) S-SO 157 0 min 0,0 UV-I 0 W/m 5,1 C 5,3 C 12,9 km/h (3 Bft)
07.01.2023 08:24 6,6 C 6,1 C 90 % 1016,3 hPa 0,0 l/m 8,0 km/h (2 Bft) SO 135 0 min 0,0 UV-I 0 W/m 5,1 C 5,3 C 9,7 km/h (2 Bft)
07.01.2023 08:25 6,5 C 6,1 C 90 % 1016,3 hPa 0,0 l/m 9,7 km/h (2 Bft) SO 135 0 min 0,0 UV-I 0 W/m 5,0 C 3,9 C 12,9 km/h (3 Bft)
07.01.2023 08:26 6,5 C 6,1 C 90 % 1016,3 hPa 0,0 l/m 9,7 km/h (2 Bft) SO 135 0 min 0,0 UV-I 0 W/m 5,0 C 3,9 C 12,9 km/h (3 Bft)
07.01.2023 08:27 6,5 C 6,1 C 90 % 1016,3 hPa 0,0 l/m 6,4 km/h (2 Bft) SO 135 0 min 0,0 UV-I 0 W/m 5,0 C 6,5 C 12,9 km/h (3 Bft)
07.01.2023 08:28 6,6 C 6,1 C 90 % 1016,3 hPa 0,0 l/m 6,4 km/h (2 Bft) S-SO 157 0 min 0,0 UV-I 0 W/m 5,1 C 6,6 C 8,0 km/h (2 Bft)
07.01.2023 08:29 6,5 C 6,1 C 90 % 1016,3 hPa 0,0 l/m 8,0 km/h (2 Bft) SO 135 0 min 0,0 UV-I 0 W/m 5,0 C 5,2 C 12,9 km/h (3 Bft)
07.01.2023 08:30 6,5 C 6,1 C 90 % 1016,2 hPa 0,0 l/m 12,9 km/h (3 Bft) S-SO 157 0 min 0,0 UV-I 0 W/m 5,0 C 2,0 C 16,1 km/h (3 Bft)
07.01.2023 08:31 6,5 C 6,1 C 90 % 1016,2 hPa 0,0 l/m 11,3 km/h (2 Bft) S 180 0 min 0,0 UV-I 0 W/m 5,0 C 2,9 C 17,7 km/h (3 Bft)
07.01.2023 08:32 6,5 C 6,1 C 90 % 1016,2 hPa 0,0 l/m 9,7 km/h (2 Bft) S-SO 157 0 min 0,0 UV-I 0 W/m 5,0 C 3,9 C 16,1 km/h (3 Bft)
07.01.2023 08:33 6,5 C 6,1 C 90 % 1016,1 hPa 0,0 l/m 9,7 km/h (2 Bft) SO 135 0 min 0,0 UV-I 0 W/m 5,0 C 3,9 C 14,5 km/h (3 Bft)
07.01.2023 08:34 6,5 C 6,1 C 90 % 1016,2 hPa 0,0 l/m 11,3 km/h (2 Bft) SO 135 0 min 0,0 UV-I 0 W/m 5,0 C 2,9 C 17,7 km/h (3 Bft)
07.01.2023 08:35 6,5 C 6,1 C 90 % 1016,2 hPa 0,0 l/m 9,7 km/h (2 Bft) SO 135 0 min 0,0 UV-I 0 W/m 5,0 C 3,9 C 16,1 km/h (3 Bft)
07.01.2023 08:36 6,5 C 6,1 C 90 % 1016,1 hPa 0,0 l/m 4,8 km/h (1 Bft) SO 135 0 min 0,0 UV-I 0 W/m 5,0 C 6,5 C 6,4 km/h (2 Bft)
07.01.2023 08:37 6,5 C 6,1 C 90 % 1016,2 hPa 0,0 l/m 8,0 km/h (2 Bft) S-SO 157 0 min 0,0 UV-I 0 W/m 5,0 C 5,2 C 12,9 km/h (3 Bft)
07.01.2023 08:38 6,5 C 6,1 C 90 % 1016,2 hPa 0,0 l/m 9,7 km/h (2 Bft) S-SO 157 0 min 0,0 UV-I 0 W/m 5,0 C 3,9 C 11,3 km/h (2 Bft)
07.01.2023 08:39 6,5 C 6,1 C 90 % 1016,1 hPa 0,0 l/m 12,9 km/h (3 Bft) S 180 0 min 0,0 UV-I 0 W/m 5,0 C 2,0 C 17,7 km/h (3 Bft)
07.01.2023 08:40 6,5 C 6,1 C 90 % 1016,1 hPa 0,0 l/m 14,5 km/h (3 Bft) SO 135 0 min 0,0 UV-I 0 W/m 5,0 C 1,1 C 19,3 km/h (3 Bft)
07.01.2023 08:41 6,5 C 6,1 C 90 % 1016,2 hPa 0,0 l/m 11,3 km/h (2 Bft) S-SO 157 0 min 0,0 UV-I 0 W/m 5,0 C 2,9 C 14,5 km/h (3 Bft)
07.01.2023 08:42 6,5 C 6,1 C 90 % 1016,1 hPa 0,0 l/m 11,3 km/h (2 Bft) SO 135 0 min 0,0 UV-I 0 W/m 5,0 C 2,9 C 14,5 km/h (3 Bft)
07.01.2023 08:43 6,5 C 6,1 C 90 % 1016,1 hPa 0,0 l/m 6,4 km/h (2 Bft) SO 135 0 min 0,0 UV-I 0 W/m 5,0 C 6,5 C 12,9 km/h (3 Bft)
07.01.2023 08:44 6,5 C 6,1 C 90 % 1016,1 hPa 0,0 l/m 9,7 km/h (2 Bft) SO 135 0 min 0,0 UV-I 0 W/m 5,0 C 3,9 C 12,9 km/h (3 Bft)
07.01.2023 08:45 6,5 C 6,1 C 90 % 1016,1 hPa 0,0 l/m 6,4 km/h (2 Bft) S-SO 157 0 min 0,0 UV-I 5 W/m 5,0 C 6,5 C 11,3 km/h (2 Bft)
07.01.2023 08:46 6,5 C 6,1 C 90 % 1016,1 hPa 0,0 l/m 8,0 km/h (2 Bft) SO 135 0 min 0,0 UV-I 5 W/m 5,0 C 5,2 C 12,9 km/h (3 Bft)
07.01.2023 08:47 6,5 C 6,1 C 90 % 1016,1 hPa 0,0 l/m 11,3 km/h (2 Bft) SO 135 0 min 0,0 UV-I 7 W/m 5,0 C 2,9 C 14,5 km/h (3 Bft)
07.01.2023 08:48 6,5 C 6,1 C 90 % 1016,1 hPa 0,0 l/m 11,3 km/h (2 Bft) SO 135 0 min 0,0 UV-I 7 W/m 5,0 C 2,9 C 17,7 km/h (3 Bft)
07.01.2023 08:49 6,5 C 6,1 C 90 % 1015,9 hPa 0,0 l/m 8,0 km/h (2 Bft) S 180 0 min 0,0 UV-I 6 W/m 5,0 C 5,2 C 11,3 km/h (2 Bft)
07.01.2023 08:50 6,5 C 6,1 C 90 % 1016,0 hPa 0,0 l/m 6,4 km/h (2 Bft) SO 135 0 min 0,0 UV-I 7 W/m 5,0 C 6,5 C 12,9 km/h (3 Bft)
07.01.2023 08:51 6,5 C 6,1 C 90 % 1016,1 hPa 0,0 l/m 11,3 km/h (2 Bft) SO 135 0 min 0,0 UV-I 7 W/m 5,0 C 2,9 C 12,9 km/h (3 Bft)
07.01.2023 08:52 6,5 C 6,1 C 90 % 1016,0 hPa 0,0 l/m 9,7 km/h (2 Bft) SO 135 0 min 0,0 UV-I 7 W/m 5,0 C 3,9 C 16,1 km/h (3 Bft)
07.01.2023 08:53 6,5 C 6,1 C 90 % 1015,9 hPa 0,0 l/m 8,0 km/h (2 Bft) S-SO 157 0 min 0,0 UV-I 7 W/m 5,0 C 5,2 C 14,5 km/h (3 Bft)
07.01.2023 08:54 6,5 C 6,1 C 90 % 1015,9 hPa 0,0 l/m 11,3 km/h (2 Bft) S-SO 157 0 min 0,0 UV-I 9 W/m 5,0 C 2,9 C 12,9 km/h (3 Bft)
07.01.2023 08:55 6,5 C 6,1 C 90 % 1015,9 hPa 0,0 l/m 8,0 km/h (2 Bft) SO 135 0 min 0,0 UV-I 9 W/m 5,0 C 5,2 C 12,9 km/h (3 Bft)
07.01.2023 08:56 6,5 C 6,1 C 90 % 1016,0 hPa 0,0 l/m 8,0 km/h (2 Bft) SO 135 0 min 0,0 UV-I 11 W/m 5,0 C 5,2 C 12,9 km/h (3 Bft)
07.01.2023 08:57 6,5 C 6,1 C 90 % 1015,9 hPa 0,0 l/m 9,7 km/h (2 Bft) SO 135 0 min 0,0 UV-I 9 W/m 5,0 C 3,9 C 12,9 km/h (3 Bft)
07.01.2023 08:58 6,5 C 6,1 C 90 % 1015,9 hPa 0,0 l/m 6,4 km/h (2 Bft) S-SO 157 0 min 0,0 UV-I 11 W/m 5,0 C 6,5 C 9,7 km/h (2 Bft)
07.01.2023 08:59 6,5 C 6,1 C 90 % 1015,8 hPa 0,0 l/m 8,0 km/h (2 Bft) O-SO 112 0 min 0,0 UV-I 11 W/m 5,0 C 5,2 C 12,9 km/h (3 Bft)
07.01.2023 09:00 6,5 C 6,1 C 90 % 1015,8 hPa 0,0 l/m 6,4 km/h (2 Bft) S-SO 157 0 min 0,0 UV-I 11 W/m 5,0 C 6,5 C 14,5 km/h (3 Bft)
07.01.2023 09:01 6,5 C 6,1 C 90 % 1015,8 hPa 0,0 l/m 11,3 km/h (2 Bft) SO 135 0 min 0,0 UV-I 12 W/m 5,0 C 2,9 C 19,3 km/h (3 Bft)
07.01.2023 09:02 6,5 C 6,1 C 90 % 1015,8 hPa 0,0 l/m 17,7 km/h (3 Bft) SO 135 0 min 0,0 UV-I 12 W/m 5,0 C -0,3 C 22,5 km/h (4 Bft)
07.01.2023 09:03 6,5 C 6,1 C 90 % 1015,8 hPa 0,0 l/m 14,5 km/h (3 Bft) SO 135 0 min 0,0 UV-I 12 W/m 5,0 C 1,1 C 19,3 km/h (3 Bft)
07.01.2023 09:04 6,5 C 6,1 C 90 % 1015,8 hPa 0,0 l/m 16,1 km/h (3 Bft) S-SO 157 0 min 0,0 UV-I 12 W/m 5,0 C 0,4 C 19,3 km/h (3 Bft)
07.01.2023 09:05 6,5 C 6,1 C 90 % 1015,8 hPa 0,0 l/m 12,9 km/h (3 Bft) S-SO 157 0 min 0,0 UV-I 14 W/m 5,0 C 2,0 C 19,3 km/h (3 Bft)
07.01.2023 09:06 6,5 C 6,1 C 90 % 1015,8 hPa 0,0 l/m 12,9 km/h (3 Bft) S-SO 157 0 min 0,0 UV-I 14 W/m 5,0 C 2,0 C 14,5 km/h (3 Bft)
07.01.2023 09:07 6,4 C 6,1 C 90 % 1015,8 hPa 0,0 l/m 19,3 km/h (3 Bft) SO 135 0 min 0,0 UV-I 17 W/m 4,9 C -1,1 C 25,7 km/h (4 Bft)
07.01.2023 09:08 6,5 C 6,1 C 90 % 1015,8 hPa 0,0 l/m 9,7 km/h (2 Bft) SO 135 0 min 0,0 UV-I 16 W/m 5,0 C 3,9 C 16,1 km/h (3 Bft)
07.01.2023 09:09 6,4 C 6,1 C 90 % 1015,8 hPa 0,0 l/m 14,5 km/h (3 Bft) S-SO 157 0 min 0,0 UV-I 16 W/m 4,9 C 1,0 C 22,5 km/h (4 Bft)
07.01.2023 09:10 6,4 C 6,1 C 90 % 1015,8 hPa 0,0 l/m 12,9 km/h (3 Bft) SO 135 0 min 0,0 UV-I 19 W/m 4,9 C 1,9 C 16,1 km/h (3 Bft)
07.01.2023 09:11 6,4 C 6,1 C 90 % 1015,8 hPa 0,0 l/m 12,9 km/h (3 Bft) S 180 0 min 0,0 UV-I 18 W/m 4,9 C 1,9 C 16,1 km/h (3 Bft)
07.01.2023 09:12 6,4 C 6,1 C 90 % 1015,8 hPa 0,0 l/m 14,5 km/h (3 Bft) S-SO 157 0 min 0,0 UV-I 23 W/m 4,9 C 1,0 C 19,3 km/h (3 Bft)
07.01.2023 09:13 6,4 C 6,1 C 90 % 1015,8 hPa 0,0 l/m 14,5 km/h (3 Bft) S 180 0 min 0,0 UV-I 25 W/m 4,9 C 1,0 C 24,1 km/h (4 Bft)
07.01.2023 09:14 6,4 C 6,1 C 90 % 1015,8 hPa 0,0 l/m 17,7 km/h (3 Bft) S-SO 157 0 min 0,0 UV-I 25 W/m 4,9 C -0,4 C 24,1 km/h (4 Bft)
07.01.2023 09:15 6,4 C 6,1 C 90 % 1015,7 hPa 0,0 l/m 16,1 km/h (3 Bft) SO 135 0 min 0,0 UV-I 25 W/m 4,9 C 0,3 C 22,5 km/h (4 Bft)
07.01.2023 09:16 6,4 C 6,1 C 90 % 1015,8 hPa 0,0 l/m 14,5 km/h (3 Bft) SO 135 0 min 0,0 UV-I 26 W/m 4,9 C 1,0 C 17,7 km/h (3 Bft)
07.01.2023 09:17 6,4 C 6,1 C 90 % 1015,8 hPa 0,0 l/m 14,5 km/h (3 Bft) SO 135 0 min 0,0 UV-I 26 W/m 4,9 C 1,0 C 17,7 km/h (3 Bft)
07.01.2023 09:18 6,4 C 6,1 C 90 % 1015,7 hPa 0,0 l/m 12,9 km/h (3 Bft) SO 135 0 min 0,0 UV-I 26 W/m 4,9 C 1,9 C 19,3 km/h (3 Bft)
07.01.2023 09:21 6,4 C 6,1 C 90 % 1015,7 hPa 0,0 l/m 9,5 km/h (2 Bft) S-SO 155 0 min 0,0 UV-I 29 W/m 4,9 C 4,0 C 14,5 km/h (3 Bft)
07.01.2023 09:24 6,4 C 6,1 C 90 % 1015,6 hPa 0,0 l/m 12,8 km/h (3 Bft) S-SO 157 0 min 0,0 UV-I 34 W/m 4,9 C 1,9 C 20,9 km/h (4 Bft)
07.01.2023 09:27 6,4 C 6,1 C 90 % 1015,7 hPa 0,0 l/m 11,3 km/h (2 Bft) S 169 0 min 0,0 UV-I 37 W/m 4,9 C 2,8 C 20,9 km/h (4 Bft)
07.01.2023 09:30 6,4 C 6,1 C 90 % 1015,6 hPa 0,0 l/m 10,4 km/h (2 Bft) S 179 0 min 0,0 UV-I 38 W/m 4,9 C 3,4 C 17,7 km/h (3 Bft)
07.01.2023 09:33 6,4 C 6,1 C 89 % 1015,7 hPa 0,0 l/m 13,5 km/h (3 Bft) S 178 0 min 0,0 UV-I 38 W/m 4,7 C 1,5 C 22,5 km/h (4 Bft)
07.01.2023 09:36 6,4 C 6,1 C 89 % 1015,8 hPa 0,0 l/m 10,2 km/h (2 Bft) S 171 0 min 0,0 UV-I 40 W/m 4,7 C 3,5 C 19,3 km/h (3 Bft)
07.01.2023 09:39 6,3 C 6,1 C 89 % 1015,6 hPa 0,0 l/m 14,9 km/h (3 Bft) S-SO 157 0 min 0,0 UV-I 38 W/m 4,6 C 0,7 C 25,7 km/h (4 Bft)
07.01.2023 09:42 6,4 C 6,1 C 89 % 1015,6 hPa 0,0 l/m 16,0 km/h (3 Bft) S 180 0 min 0,0 UV-I 46 W/m 4,7 C 0,3 C 22,5 km/h (4 Bft)
07.01.2023 09:45 6,4 C 6,1 C 89 % 1015,6 hPa 0,0 l/m 15,2 km/h (3 Bft) S-SO 155 0 min 0,0 UV-I 52 W/m 4,7 C 0,7 C 24,1 km/h (4 Bft)
07.01.2023 09:48 6,4 C 6,1 C 89 % 1015,6 hPa 0,0 l/m 12,8 km/h (3 Bft) SO 146 0 min 0,0 UV-I 63 W/m 4,7 C 1,9 C 19,3 km/h (3 Bft)
07.01.2023 09:51 6,4 C 6,1 C 89 % 1015,4 hPa 0,0 l/m 16,8 km/h (3 Bft) S-SO 163 0 min 0,0 UV-I 68 W/m 4,7 C -0,1 C 30,6 km/h (5 Bft)
07.01.2023 09:54 6,4 C 6,7 C 89 % 1015,5 hPa 0,0 l/m 14,4 km/h (3 Bft) S-SO 149 0 min 0,0 UV-I 85 W/m 4,7 C 1,1 C 25,7 km/h (4 Bft)
07.01.2023 09:57 6,5 C 6,7 C 89 % 1015,5 hPa 0,0 l/m 8,1 km/h (2 Bft) S 178 0 min 0,0 UV-I 94 W/m 4,8 C 5,1 C 12,9 km/h (3 Bft)
07.01.2023 10:00 6,5 C 7,2 C 89 % 1015,4 hPa 0,0 l/m 11,9 km/h (2 Bft) S-SO 160 0 min 0,0 UV-I 105 W/m 4,8 C 2,5 C 19,3 km/h (3 Bft)
07.01.2023 10:03 6,5 C 6,7 C 89 % 1015,3 hPa 0,0 l/m 13,8 km/h (3 Bft) S-SW 200 0 min 0,0 UV-I 84 W/m 4,8 C 1,5 C 22,5 km/h (4 Bft)
07.01.2023 10:06 6,5 C 6,7 C 89 % 1015,2 hPa 0,0 l/m 10,6 km/h (2 Bft) S-SO 165 0 min 0,0 UV-I 80 W/m 4,8 C 3,3 C 17,7 km/h (3 Bft)
07.01.2023 10:09 6,5 C 6,7 C 89 % 1015,3 hPa 0,0 l/m 13,7 km/h (3 Bft) S-SW 204 0 min 0,0 UV-I 78 W/m 4,8 C 1,5 C 20,9 km/h (4 Bft)
07.01.2023 10:12 6,5 C 6,7 C 89 % 1015,4 hPa 0,0 l/m 16,7 km/h (3 Bft) S 186 0 min 0,0 UV-I 82 W/m 4,8 C 0,1 C 25,7 km/h (4 Bft)
07.01.2023 10:15 6,5 C 7,2 C 89 % 1015,2 hPa 0,0 l/m 11,1 km/h (2 Bft) S 169 0 min 0,0 UV-I 106 W/m 4,8 C 3,0 C 17,7 km/h (3 Bft)
07.01.2023 10:18 6,6 C 7,2 C 89 % 1015,2 hPa 0,0 l/m 12,4 km/h (3 Bft) S 182 0 min 0,0 UV-I 112 W/m 4,9 C 2,4 C 22,5 km/h (4 Bft)
07.01.2023 10:21 6,6 C 6,7 C 88 % 1015,2 hPa 0,0 l/m 14,5 km/h (3 Bft) S-SO 161 0 min 0,0 UV-I 99 W/m 4,8 C 1,3 C 29,0 km/h (5 Bft)
07.01.2023 10:24 6,6 C 6,7 C 88 % 1015,1 hPa 0,0 l/m 15,0 km/h (3 Bft) S-SO 163 0 min 0,0 UV-I 84 W/m 4,8 C 1,0 C 29,0 km/h (5 Bft)
07.01.2023 10:27 6,6 C 6,7 C 88 % 1015,1 hPa 0,0 l/m 17,3 km/h (3 Bft) S-SO 161 0 min 0,0 UV-I 103 W/m 4,8 C -0,0 C 25,7 km/h (4 Bft)
07.01.2023 10:30 6,6 C 6,7 C 88 % 1015,0 hPa 0,0 l/m 17,9 km/h (3 Bft) S-SO 151 0 min 0,0 UV-I 94 W/m 4,8 C -0,3 C 35,4 km/h (5 Bft)
07.01.2023 10:33 6,6 C 7,2 C 88 % 1014,9 hPa 0,0 l/m 16,0 km/h (3 Bft) SO 130 0 min 0,0 UV-I 101 W/m 4,8 C 0,5 C 27,4 km/h (4 Bft)
07.01.2023 10:36 6,7 C 7,2 C 88 % 1015,0 hPa 0,0 l/m 14,5 km/h (3 Bft) S 190 0 min 0,0 UV-I 97 W/m 4,9 C 1,4 C 29,0 km/h (5 Bft)
07.01.2023 10:39 6,6 C 6,7 C 88 % 1015,1 hPa 0,0 l/m 16,2 km/h (3 Bft) S-SO 151 0 min 0,0 UV-I 84 W/m 4,8 C 0,5 C 24,1 km/h (4 Bft)
07.01.2023 10:42 6,7 C 6,7 C 88 % 1015,1 hPa 0,0 l/m 13,7 km/h (3 Bft) S 169 0 min 0,0 UV-I 86 W/m 4,9 C 1,8 C 25,7 km/h (4 Bft)
07.01.2023 10:45 6,6 C 6,7 C 87 % 1015,2 hPa 0,0 l/m 19,5 km/h (3 Bft) SW 217 0 min 0,0 UV-I 84 W/m 4,6 C -0,9 C 38,6 km/h (5 Bft)
07.01.2023 10:48 6,6 C 6,7 C 87 % 1015,1 hPa 0,0 l/m 18,4 km/h (3 Bft) SO 144 0 min 0,0 UV-I 88 W/m 4,6 C -0,5 C 30,6 km/h (5 Bft)
07.01.2023 10:51 6,6 C 6,7 C 88 % 1015,1 hPa 0,0 l/m 13,9 km/h (3 Bft) S-SO 156 0 min 0,2 UV-I 102 W/m 4,8 C 1,6 C 27,4 km/h (4 Bft)
07.01.2023 10:54 6,7 C 6,7 C 87 % 1015,1 hPa 0,0 l/m 16,9 km/h (3 Bft) S 172 0 min 0,1 UV-I 103 W/m 4,7 C 0,3 C 27,4 km/h (4 Bft)
07.01.2023 10:57 6,7 C 6,7 C 87 % 1015,1 hPa 0,0 l/m 17,1 km/h (3 Bft) S-SO 163 0 min 0,5 UV-I 106 W/m 4,7 C 0,2 C 25,7 km/h (4 Bft)
07.01.2023 11:00 6,7 C 6,7 C 87 % 1015,1 hPa 0,0 l/m 14,7 km/h (3 Bft) S-SO 151 0 min 0,0 UV-I 85 W/m 4,7 C 1,3 C 24,1 km/h (4 Bft)
07.01.2023 11:03 6,7 C 6,7 C 87 % 1015,1 hPa 0,0 l/m 21,8 km/h (4 Bft) S-SO 165 0 min 0,0 UV-I 68 W/m 4,7 C -1,6 C 41,8 km/h (6 Bft)
07.01.2023 11:06 6,7 C 6,7 C 87 % 1015,1 hPa 0,0 l/m 16,3 km/h (3 Bft) S-SW 202 0 min 0,0 UV-I 96 W/m 4,7 C 0,5 C 25,7 km/h (4 Bft)
07.01.2023 11:09 6,7 C 6,7 C 87 % 1015,0 hPa 0,0 l/m 15,8 km/h (3 Bft) SO 130 0 min 0,0 UV-I 99 W/m 4,7 C 0,8 C 30,6 km/h (5 Bft)
07.01.2023 11:12 6,7 C 6,7 C 87 % 1015,0 hPa 0,0 l/m 16,8 km/h (3 Bft) S 186 0 min 0,0 UV-I 85 W/m 4,7 C 0,3 C 25,7 km/h (4 Bft)
07.01.2023 11:15 6,8 C 6,7 C 87 % 1015,1 hPa 0,0 l/m 12,5 km/h (3 Bft) SO 140 0 min 0,0 UV-I 93 W/m 4,8 C 2,5 C 27,4 km/h (4 Bft)
07.01.2023 11:18 6,8 C 7,2 C 87 % 1015,1 hPa 0,0 l/m 12,7 km/h (3 Bft) S-SO 157 0 min 0,0 UV-I 103 W/m 4,8 C 2,4 C 22,5 km/h (4 Bft)
07.01.2023 11:21 6,8 C 7,2 C 87 % 1015,0 hPa 0,0 l/m 16,8 km/h (3 Bft) S-SO 165 0 min 0,0 UV-I 102 W/m 4,8 C 0,4 C 29,0 km/h (5 Bft)
07.01.2023 11:24 6,8 C 7,2 C 87 % 1015,0 hPa 0,0 l/m 11,3 km/h (2 Bft) S 182 0 min 0,0 UV-I 107 W/m 4,8 C 3,2 C 19,3 km/h (3 Bft)
07.01.2023 11:27 6,9 C 7,2 C 86 % 1015,0 hPa 0,0 l/m 14,0 km/h (3 Bft) S-SO 166 0 min 0,0 UV-I 89 W/m 4,7 C 1,9 C 22,5 km/h (4 Bft)
07.01.2023 11:30 6,8 C 6,7 C 86 % 1014,9 hPa 0,0 l/m 15,9 km/h (3 Bft) S-SO 168 0 min 0,0 UV-I 78 W/m 4,6 C 0,8 C 25,7 km/h (4 Bft)
07.01.2023 11:33 6,8 C 6,7 C 86 % 1015,0 hPa 0,0 l/m 16,4 km/h (3 Bft) S-SW 192 0 min 0,0 UV-I 92 W/m 4,6 C 0,6 C 32,2 km/h (5 Bft)
07.01.2023 11:36 6,9 C 7,2 C 86 % 1014,9 hPa 0,0 l/m 15,1 km/h (3 Bft) S 169 0 min 0,2 UV-I 112 W/m 4,7 C 1,3 C 29,0 km/h (5 Bft)
07.01.2023 11:39 6,9 C 7,2 C 86 % 1014,7 hPa 0,0 l/m 21,8 km/h (4 Bft) S-SW 209 0 min 0,5 UV-I 116 W/m 4,7 C -1,4 C 38,6 km/h (5 Bft)
07.01.2023 11:42 6,9 C 7,2 C 86 % 1014,8 hPa 0,0 l/m 19,3 km/h (3 Bft) S 184 0 min 0,5 UV-I 102 W/m 4,7 C -0,5 C 27,4 km/h (4 Bft)
07.01.2023 11:45 6,9 C 7,2 C 85 % 1014,7 hPa 0,0 l/m 19,5 km/h (3 Bft) S 171 0 min 0,5 UV-I 96 W/m 4,6 C -0,5 C 38,6 km/h (5 Bft)
07.01.2023 11:48 6,9 C 7,2 C 85 % 1014,6 hPa 0,0 l/m 18,9 km/h (3 Bft) SO 137 0 min 0,5 UV-I 104 W/m 4,6 C -0,3 C 29,0 km/h (5 Bft)
07.01.2023 11:51 6,9 C 7,2 C 85 % 1014,5 hPa 0,0 l/m 20,2 km/h (4 Bft) S 178 0 min 0,5 UV-I 108 W/m 4,6 C -0,8 C 32,2 km/h (5 Bft)
07.01.2023 11:54 6,9 C 7,2 C 85 % 1014,4 hPa 0,0 l/m 16,4 km/h (3 Bft) S 185 0 min 0,5 UV-I 111 W/m 4,6 C 0,7 C 27,4 km/h (4 Bft)
07.01.2023 11:57 7,0 C 7,2 C 85 % 1014,3 hPa 0,0 l/m 13,4 km/h (3 Bft) SO 134 0 min 0,6 UV-I 111 W/m 4,7 C 2,3 C 22,5 km/h (4 Bft)
07.01.2023 12:00 7,0 C 7,2 C 85 % 1014,3 hPa 0,0 l/m 16,1 km/h (3 Bft) SO 141 0 min 0,5 UV-I 110 W/m 4,7 C 1,0 C 29,0 km/h (5 Bft)
07.01.2023 12:03 7,1 C 7,2 C 85 % 1014,3 hPa 0,0 l/m 17,4 km/h (3 Bft) S-SW 194 0 min 0,5 UV-I 103 W/m 4,8 C 0,6 C 32,2 km/h (5 Bft)
07.01.2023 12:06 7,1 C 7,2 C 85 % 1014,1 hPa 0,0 l/m 15,8 km/h (3 Bft) S 180 0 min 0,5 UV-I 97 W/m 4,8 C 1,3 C 29,0 km/h (5 Bft)
07.01.2023 12:09 7,1 C 7,2 C 85 % 1014,1 hPa 0,0 l/m 15,5 km/h (3 Bft) S-SO 163 0 min 0,5 UV-I 95 W/m 4,8 C 1,4 C 27,4 km/h (4 Bft)
07.01.2023 12:12 7,1 C 7,2 C 85 % 1014,1 hPa 0,0 l/m 15,6 km/h (3 Bft) S 169 0 min 0,5 UV-I 98 W/m 4,8 C 1,3 C 29,0 km/h (5 Bft)
07.01.2023 12:15 7,1 C 7,2 C 85 % 1014,0 hPa 0,0 l/m 17,9 km/h (3 Bft) S-SO 158 0 min 0,3 UV-I 94 W/m 4,8 C 0,4 C 32,2 km/h (5 Bft)
07.01.2023 12:18 7,1 C 7,2 C 84 % 1013,8 hPa 0,0 l/m 20,3 km/h (4 Bft) SO 143 0 min 0,0 UV-I 84 W/m 4,6 C -0,6 C 33,8 km/h (5 Bft)
07.01.2023 12:21 7,1 C 7,2 C 84 % 1013,8 hPa 0,0 l/m 17,8 km/h (3 Bft) S-SW 192 0 min 0,0 UV-I 78 W/m 4,6 C 0,4 C 27,4 km/h (4 Bft)
07.01.2023 12:24 7,1 C 7,2 C 85 % 1013,7 hPa 0,0 l/m 9,9 km/h (2 Bft) S 182 0 min 0,0 UV-I 76 W/m 4,8 C 4,5 C 24,1 km/h (4 Bft)
07.01.2023 12:27 7,1 C 7,2 C 85 % 1013,7 hPa 0,0 l/m 16,7 km/h (3 Bft) S 178 0 min 0,0 UV-I 80 W/m 4,8 C 0,9 C 30,6 km/h (5 Bft)
07.01.2023 12:30 7,1 C 7,2 C 85 % 1013,6 hPa 0,0 l/m 11,4 km/h (2 Bft) SO 137 0 min 0,2 UV-I 98 W/m 4,8 C 3,5 C 22,5 km/h (4 Bft)
07.01.2023 12:33 7,1 C 7,2 C 85 % 1013,5 hPa 0,0 l/m 18,7 km/h (3 Bft) S 180 0 min 0,5 UV-I 104 W/m 4,8 C 0,0 C 32,2 km/h (5 Bft)
07.01.2023 12:36 7,1 C 7,2 C 85 % 1013,3 hPa 0,0 l/m 17,3 km/h (3 Bft) S-SO 165 0 min 0,3 UV-I 97 W/m 4,8 C 0,6 C 25,7 km/h (4 Bft)
07.01.2023 12:39 7,1 C 7,2 C 85 % 1013,3 hPa 0,0 l/m 20,1 km/h (4 Bft) S 169 0 min 0,0 UV-I 91 W/m 4,8 C -0,5 C 32,2 km/h (5 Bft)
07.01.2023 12:42 7,1 C 7,2 C 85 % 1013,2 hPa 0,0 l/m 18,7 km/h (3 Bft) SO 144 0 min 0,4 UV-I 103 W/m 4,8 C 0,0 C 30,6 km/h (5 Bft)
07.01.2023 12:45 7,1 C 7,2 C 85 % 1013,1 hPa 0,0 l/m 20,2 km/h (4 Bft) SO 144 0 min 0,5 UV-I 120 W/m 4,8 C -0,5 C 30,6 km/h (5 Bft)
07.01.2023 12:48 7,2 C 7,8 C 85 % 1013,1 hPa 0,0 l/m 16,9 km/h (3 Bft) S 179 0 min 0,6 UV-I 134 W/m 4,9 C 0,9 C 30,6 km/h (5 Bft)
07.01.2023 12:51 7,2 C 7,2 C 85 % 1013,0 hPa 0,0 l/m 19,1 km/h (3 Bft) S-SO 153 0 min 0,5 UV-I 109 W/m 4,9 C 0,0 C 29,0 km/h (5 Bft)
07.01.2023 12:54 7,2 C 7,2 C 85 % 1013,0 hPa 0,0 l/m 16,9 km/h (3 Bft) S-SW 194 0 min 0,6 UV-I 120 W/m 4,9 C 0,9 C 27,4 km/h (4 Bft)
07.01.2023 12:57 7,2 C 7,2 C 85 % 1013,1 hPa 0,0 l/m 13,2 km/h (3 Bft) S 169 0 min 0,5 UV-I 97 W/m 4,9 C 2,6 C 22,5 km/h (4 Bft)
07.01.2023 13:00 7,2 C 7,2 C 85 % 1013,1 hPa 0,0 l/m 18,5 km/h (3 Bft) S-SW 192 0 min 0,1 UV-I 92 W/m 4,9 C 0,2 C 35,4 km/h (5 Bft)
07.01.2023 13:03 7,2 C 7,2 C 85 % 1013,0 hPa 0,0 l/m 15,4 km/h (3 Bft) S 180 0 min 0,0 UV-I 86 W/m 4,9 C 1,6 C 22,5 km/h (4 Bft)
07.01.2023 13:06 7,2 C 7,2 C 85 % 1013,0 hPa 0,0 l/m 16,3 km/h (3 Bft) S-SO 149 0 min 0,1 UV-I 90 W/m 4,9 C 1,2 C 30,6 km/h (5 Bft)
07.01.2023 13:09 7,2 C 7,2 C 85 % 1012,9 hPa 0,0 l/m 16,7 km/h (3 Bft) S-SO 157 0 min 0,0 UV-I 83 W/m 4,9 C 1,0 C 25,7 km/h (4 Bft)
07.01.2023 13:12 7,2 C 7,2 C 84 % 1012,9 hPa 0,0 l/m 25,1 km/h (4 Bft) S-SO 151 0 min 0,1 UV-I 79 W/m 4,7 C -2,0 C 38,6 km/h (5 Bft)
07.01.2023 13:15 7,2 C 7,2 C 85 % 1012,8 hPa 0,0 l/m 15,9 km/h (3 Bft) S-SO 161 0 min 0,0 UV-I 72 W/m 4,9 C 1,3 C 29,0 km/h (5 Bft)
07.01.2023 13:18 7,1 C 7,2 C 85 % 1013,0 hPa 0,0 l/m 14,4 km/h (3 Bft) S 179 0 min 0,0 UV-I 69 W/m 4,8 C 1,9 C 24,1 km/h (4 Bft)
07.01.2023 13:21 7,1 C 7,2 C 85 % 1012,8 hPa 0,0 l/m 19,7 km/h (3 Bft) S 171 0 min 0,0 UV-I 75 W/m 4,8 C -0,3 C 33,8 km/h (5 Bft)
07.01.2023 13:24 7,1 C 7,2 C 85 % 1013,0 hPa 0,0 l/m 17,0 km/h (3 Bft) S 185 0 min 0,0 UV-I 65 W/m 4,8 C 0,7 C 37,0 km/h (5 Bft)
07.01.2023 13:27 7,1 C 7,2 C 85 % 1012,8 hPa 0,0 l/m 20,2 km/h (4 Bft) S 172 0 min 0,0 UV-I 69 W/m 4,8 C -0,5 C 29,0 km/h (5 Bft)
07.01.2023 13:30 7,1 C 7,2 C 85 % 1012,7 hPa 0,0 l/m 21,6 km/h (4 Bft) S 182 0 min 0,0 UV-I 68 W/m 4,8 C -1,0 C 32,2 km/h (5 Bft)
07.01.2023 13:33 7,1 C 6,7 C 84 % 1012,7 hPa 0,0 l/m 21,5 km/h (4 Bft) S-SO 157 0 min 0,0 UV-I 63 W/m 4,6 C -1,0 C 35,4 km/h (5 Bft)
07.01.2023 13:36 7,1 C 6,7 C 84 % 1012,7 hPa 0,0 l/m 19,2 km/h (3 Bft) S-SO 165 0 min 0,0 UV-I 49 W/m 4,6 C -0,2 C 32,2 km/h (5 Bft)
07.01.2023 13:39 7,1 C 6,7 C 85 % 1012,7 hPa 0,0 l/m 18,4 km/h (3 Bft) S-SW 202 0 min 0,0 UV-I 69 W/m 4,8 C 0,1 C 30,6 km/h (5 Bft)
07.01.2023 13:42 7,1 C 7,2 C 85 % 1012,7 hPa 0,0 l/m 18,7 km/h (3 Bft) S 178 0 min 0,0 UV-I 72 W/m 4,8 C 0,0 C 30,6 km/h (5 Bft)
07.01.2023 13:45 7,1 C 7,2 C 84 % 1012,5 hPa 0,0 l/m 18,4 km/h (3 Bft) O-SO 110 0 min 0,4 UV-I 98 W/m 4,6 C 0,1 C 30,6 km/h (5 Bft)
07.01.2023 13:48 7,2 C 7,2 C 84 % 1012,5 hPa 0,0 l/m 16,4 km/h (3 Bft) S 173 0 min 0,5 UV-I 110 W/m 4,7 C 1,1 C 30,6 km/h (5 Bft)
07.01.2023 13:51 7,2 C 7,2 C 84 % 1012,5 hPa 0,0 l/m 19,5 km/h (3 Bft) S 178 0 min 0,5 UV-I 105 W/m 4,7 C -0,1 C 30,6 km/h (5 Bft)
07.01.2023 13:54 7,2 C 7,2 C 84 % 1012,4 hPa 0,0 l/m 16,8 km/h (3 Bft) S-SO 150 0 min 0,4 UV-I 73 W/m 4,7 C 0,9 C 24,1 km/h (4 Bft)
07.01.2023 13:57 7,1 C 7,2 C 84 % 1012,3 hPa 0,0 l/m 18,0 km/h (3 Bft) SO 134 0 min 0,5 UV-I 91 W/m 4,6 C 0,3 C 37,0 km/h (5 Bft)
07.01.2023 14:00 7,1 C 7,2 C 85 % 1012,3 hPa 0,0 l/m 15,0 km/h (3 Bft) S 181 0 min 0,5 UV-I 84 W/m 4,8 C 1,6 C 27,4 km/h (4 Bft)
07.01.2023 14:03 7,1 C 7,2 C 84 % 1012,3 hPa 0,0 l/m 19,8 km/h (3 Bft) S-SO 160 0 min 0,3 UV-I 81 W/m 4,6 C -0,4 C 29,0 km/h (5 Bft)
07.01.2023 14:06 7,1 C 7,2 C 84 % 1012,2 hPa 0,0 l/m 20,8 km/h (4 Bft) S-SO 157 0 min 0,0 UV-I 83 W/m 4,6 C -0,7 C 33,8 km/h (5 Bft)
07.01.2023 14:09 7,1 C 7,2 C 84 % 1012,3 hPa 0,0 l/m 19,4 km/h (3 Bft) S 175 0 min 0,0 UV-I 79 W/m 4,6 C -0,2 C 32,2 km/h (5 Bft)
07.01.2023 14:12 7,1 C 6,7 C 84 % 1012,2 hPa 0,0 l/m 18,0 km/h (3 Bft) S 170 0 min 0,0 UV-I 68 W/m 4,6 C 0,3 C 32,2 km/h (5 Bft)
07.01.2023 14:15 7,1 C 7,2 C 84 % 1012,2 hPa 0,0 l/m 16,8 km/h (3 Bft) S-SO 148 0 min 0,0 UV-I 87 W/m 4,6 C 0,8 C 24,1 km/h (4 Bft)
07.01.2023 14:18 7,1 C 7,2 C 84 % 1012,1 hPa 0,0 l/m 18,3 km/h (3 Bft) S-SO 158 0 min 0,0 UV-I 91 W/m 4,6 C 0,2 C 30,6 km/h (5 Bft)
07.01.2023 14:21 7,1 C 6,7 C 84 % 1012,1 hPa 0,0 l/m 18,7 km/h (3 Bft) SO 140 0 min 0,0 UV-I 72 W/m 4,6 C 0,0 C 29,0 km/h (5 Bft)
07.01.2023 14:24 7,1 C 6,7 C 84 % 1012,1 hPa 0,0 l/m 17,2 km/h (3 Bft) S-SW 194 0 min 0,0 UV-I 71 W/m 4,6 C 0,6 C 29,0 km/h (5 Bft)
07.01.2023 14:27 7,0 C 6,7 C 84 % 1012,1 hPa 0,0 l/m 18,9 km/h (3 Bft) S 177 0 min 0,0 UV-I 58 W/m 4,5 C -0,2 C 30,6 km/h (5 Bft)
07.01.2023 14:30 7,0 C 6,7 C 84 % 1012,1 hPa 0,0 l/m 17,1 km/h (3 Bft) S 179 0 min 0,0 UV-I 67 W/m 4,5 C 0,6 C 27,4 km/h (4 Bft)
07.01.2023 14:33 6,9 C 6,7 C 84 % 1012,1 hPa 0,0 l/m 16,8 km/h (3 Bft) S-SO 159 0 min 0,0 UV-I 54 W/m 4,4 C 0,6 C 22,5 km/h (4 Bft)
07.01.2023 14:36 6,9 C 6,7 C 85 % 1012,1 hPa 0,0 l/m 17,1 km/h (3 Bft) S-SO 162 0 min 0,0 UV-I 66 W/m 4,6 C 0,4 C 29,0 km/h (5 Bft)
07.01.2023 14:39 6,9 C 6,7 C 84 % 1012,1 hPa 0,0 l/m 17,6 km/h (3 Bft) S 173 0 min 0,0 UV-I 64 W/m 4,4 C 0,2 C 30,6 km/h (5 Bft)
07.01.2023 14:42 6,9 C 6,7 C 84 % 1012,0 hPa 0,0 l/m 15,5 km/h (3 Bft) S 172 0 min 0,0 UV-I 65 W/m 4,4 C 1,1 C 29,0 km/h (5 Bft)
07.01.2023 14:45 6,9 C 6,7 C 84 % 1012,1 hPa 0,0 l/m 14,4 km/h (3 Bft) S 183 0 min 0,0 UV-I 66 W/m 4,4 C 1,7 C 25,7 km/h (4 Bft)
07.01.2023 14:48 6,9 C 6,7 C 84 % 1012,0 hPa 0,0 l/m 15,4 km/h (3 Bft) SO 140 0 min 0,0 UV-I 55 W/m 4,4 C 1,2 C 24,1 km/h (4 Bft)
07.01.2023 14:51 6,9 C 6,7 C 84 % 1011,9 hPa 0,0 l/m 16,3 km/h (3 Bft) SW 225 0 min 0,0 UV-I 62 W/m 4,4 C 0,8 C 24,1 km/h (4 Bft)
07.01.2023 14:54 6,9 C 6,7 C 84 % 1011,9 hPa 0,0 l/m 22,2 km/h (4 Bft) S 169 0 min 0,0 UV-I 76 W/m 4,4 C -1,5 C 41,8 km/h (6 Bft)
07.01.2023 14:57 6,9 C 7,2 C 84 % 1011,8 hPa 0,0 l/m 19,0 km/h (3 Bft) S 180 0 min 0,0 UV-I 89 W/m 4,4 C -0,3 C 37,0 km/h (5 Bft)
07.01.2023 15:00 6,9 C 6,7 C 84 % 1011,7 hPa 0,0 l/m 15,5 km/h (3 Bft) S-SO 160 0 min 0,0 UV-I 69 W/m 4,4 C 1,1 C 24,1 km/h (4 Bft)
07.01.2023 15:03 6,9 C 6,7 C 84 % 1011,8 hPa 0,0 l/m 16,9 km/h (3 Bft) S 183 0 min 0,0 UV-I 62 W/m 4,4 C 0,5 C 30,6 km/h (5 Bft)
07.01.2023 15:06 6,9 C 6,7 C 84 % 1011,7 hPa 0,0 l/m 17,7 km/h (3 Bft) S 171 0 min 0,0 UV-I 63 W/m 4,4 C 0,2 C 29,0 km/h (5 Bft)
07.01.2023 15:09 6,9 C 6,7 C 84 % 1011,7 hPa 0,0 l/m 16,5 km/h (3 Bft) S 169 0 min 0,0 UV-I 55 W/m 4,4 C 0,7 C 29,0 km/h (5 Bft)
07.01.2023 15:12 6,8 C 6,7 C 84 % 1011,6 hPa 0,0 l/m 15,6 km/h (3 Bft) S 176 0 min 0,0 UV-I 67 W/m 4,3 C 1,0 C 24,1 km/h (4 Bft)
07.01.2023 15:15 6,8 C 6,7 C 84 % 1011,6 hPa 0,0 l/m 17,5 km/h (3 Bft) S-SW 194 0 min 0,0 UV-I 63 W/m 4,3 C 0,1 C 25,7 km/h (4 Bft)
07.01.2023 15:18 6,9 C 6,7 C 84 % 1011,6 hPa 0,0 l/m 13,7 km/h (3 Bft) SO 129 0 min 0,0 UV-I 67 W/m 4,4 C 2,0 C 22,5 km/h (4 Bft)
07.01.2023 15:21 6,9 C 6,7 C 85 % 1011,6 hPa 0,0 l/m 17,2 km/h (3 Bft) S 172 0 min 0,0 UV-I 58 W/m 4,6 C 0,4 C 32,2 km/h (5 Bft)
07.01.2023 15:24 6,9 C 6,7 C 84 % 1011,4 hPa 0,0 l/m 17,7 km/h (3 Bft) SO 129 0 min 0,0 UV-I 58 W/m 4,4 C 0,2 C 30,6 km/h (5 Bft)
07.01.2023 15:27 6,9 C 6,7 C 84 % 1011,6 hPa 0,0 l/m 18,7 km/h (3 Bft) S-SW 200 0 min 0,0 UV-I 50 W/m 4,4 C -0,2 C 30,6 km/h (5 Bft)
07.01.2023 15:30 6,9 C 6,7 C 84 % 1011,5 hPa 0,0 l/m 19,0 km/h (3 Bft) S 178 0 min 0,0 UV-I 38 W/m 4,4 C -0,3 C 38,6 km/h (5 Bft)
07.01.2023 15:33 6,9 C 6,7 C 84 % 1011,5 hPa 0,0 l/m 16,1 km/h (3 Bft) S-SO 149 0 min 0,0 UV-I 34 W/m 4,4 C 0,9 C 29,0 km/h (5 Bft)
07.01.2023 15:36 6,9 C 6,7 C 84 % 1011,5 hPa 0,0 l/m 15,1 km/h (3 Bft) S 191 0 min 0,0 UV-I 39 W/m 4,4 C 1,3 C 25,7 km/h (4 Bft)
07.01.2023 15:39 6,9 C 6,7 C 84 % 1011,4 hPa 0,0 l/m 16,6 km/h (3 Bft) S-SO 163 0 min 0,0 UV-I 56 W/m 4,4 C 0,6 C 29,0 km/h (5 Bft)
07.01.2023 15:42 6,9 C 6,7 C 84 % 1011,4 hPa 0,0 l/m 18,5 km/h (3 Bft) S-SW 197 0 min 0,0 UV-I 48 W/m 4,4 C -0,1 C 30,6 km/h (5 Bft)
07.01.2023 15:45 6,8 C 6,7 C 84 % 1011,4 hPa 0,0 l/m 13,9 km/h (3 Bft) S-SO 154 0 min 0,0 UV-I 42 W/m 4,3 C 1,8 C 20,9 km/h (4 Bft)
07.01.2023 15:48 6,8 C 6,7 C 85 % 1011,5 hPa 0,0 l/m 16,7 km/h (3 Bft) S 188 0 min 0,0 UV-I 47 W/m 4,5 C 0,5 C 33,8 km/h (5 Bft)
07.01.2023 15:51 6,8 C 6,1 C 85 % 1011,4 hPa 0,0 l/m 13,9 km/h (3 Bft) SW 219 0 min 0,0 UV-I 41 W/m 4,5 C 1,8 C 24,1 km/h (4 Bft)
07.01.2023 15:54 6,8 C 6,1 C 85 % 1011,4 hPa 0,0 l/m 14,3 km/h (3 Bft) S 171 0 min 0,0 UV-I 41 W/m 4,5 C 1,6 C 22,5 km/h (4 Bft)
07.01.2023 15:57 6,7 C 6,1 C 85 % 1011,3 hPa 0,0 l/m 14,5 km/h (3 Bft) S 178 0 min 0,0 UV-I 37 W/m 4,4 C 1,4 C 24,1 km/h (4 Bft)
07.01.2023 16:00 6,7 C 6,1 C 85 % 1011,4 hPa 0,0 l/m 14,0 km/h (3 Bft) S-SO 162 0 min 0,0 UV-I 32 W/m 4,4 C 1,6 C 20,9 km/h (4 Bft)
07.01.2023 16:03 6,7 C 6,1 C 85 % 1011,3 hPa 0,0 l/m 18,4 km/h (3 Bft) S-SO 161 0 min 0,0 UV-I 31 W/m 4,4 C -0,4 C 30,6 km/h (5 Bft)
07.01.2023 16:06 6,6 C 6,1 C 86 % 1011,3 hPa 0,0 l/m 13,1 km/h (3 Bft) S 188 0 min 0,0 UV-I 25 W/m 4,4 C 2,0 C 24,1 km/h (4 Bft)
07.01.2023 16:09 6,6 C 6,1 C 86 % 1011,3 hPa 0,0 l/m 16,0 km/h (3 Bft) S-SO 166 0 min 0,0 UV-I 25 W/m 4,4 C 0,5 C 29,0 km/h (5 Bft)
07.01.2023 16:12 6,6 C 6,1 C 86 % 1011,4 hPa 0,0 l/m 14,6 km/h (3 Bft) S 183 0 min 0,0 UV-I 25 W/m 4,4 C 1,2 C 22,5 km/h (4 Bft)
07.01.2023 16:15 6,7 C 6,1 C 86 % 1011,2 hPa 0,0 l/m 18,9 km/h (3 Bft) S-SO 159 0 min 0,0 UV-I 24 W/m 4,5 C -0,6 C 30,6 km/h (5 Bft)
07.01.2023 16:18 6,7 C 6,1 C 86 % 1011,3 hPa 0,0 l/m 18,8 km/h (3 Bft) S 177 0 min 0,0 UV-I 25 W/m 4,5 C -0,5 C 32,2 km/h (5 Bft)
07.01.2023 16:21 6,7 C 6,1 C 86 % 1011,2 hPa 0,0 l/m 17,6 km/h (3 Bft) S 174 0 min 0,0 UV-I 21 W/m 4,5 C -0,0 C 29,0 km/h (5 Bft)
07.01.2023 16:24 6,7 C 6,1 C 85 % 1011,2 hPa 0,0 l/m 19,8 km/h (3 Bft) S-SO 153 0 min 0,0 UV-I 19 W/m 4,4 C -0,9 C 37,0 km/h (5 Bft)
07.01.2023 16:27 6,8 C 6,1 C 85 % 1011,1 hPa 0,0 l/m 17,6 km/h (3 Bft) S-SO 150 0 min 0,0 UV-I 18 W/m 4,5 C 0,1 C 35,4 km/h (5 Bft)
07.01.2023 16:30 6,8 C 6,1 C 85 % 1010,9 hPa 0,0 l/m 13,0 km/h (3 Bft) S-SO 165 0 min 0,0 UV-I 15 W/m 4,5 C 2,3 C 20,9 km/h (4 Bft)
07.01.2023 16:33 6,7 C 5,6 C 85 % 1010,8 hPa 0,0 l/m 15,3 km/h (3 Bft) S 180 0 min 0,0 UV-I 12 W/m 4,4 C 1,0 C 27,4 km/h (4 Bft)
07.01.2023 16:36 6,7 C 5,6 C 85 % 1010,8 hPa 0,0 l/m 14,1 km/h (3 Bft) S 182 0 min 0,0 UV-I 10 W/m 4,4 C 1,6 C 20,9 km/h (4 Bft)
07.01.2023 16:39 6,7 C 5,6 C 85 % 1010,7 hPa 0,0 l/m 14,6 km/h (3 Bft) S 176 0 min 0,0 UV-I 8 W/m 4,4 C 1,3 C 20,9 km/h (4 Bft)
07.01.2023 16:42 6,6 C 5,6 C 86 % 1010,8 hPa 0,0 l/m 15,4 km/h (3 Bft) S-SO 166 0 min 0,0 UV-I 6 W/m 4,4 C 0,8 C 27,4 km/h (4 Bft)
07.01.2023 16:45 6,5 C 5,6 C 86 % 1010,7 hPa 0,0 l/m 16,2 km/h (3 Bft) SO 142 0 min 0,0 UV-I 5 W/m 4,3 C 0,3 C 27,4 km/h (4 Bft)
07.01.2023 16:48 6,4 C 5,6 C 86 % 1010,8 hPa 0,0 l/m 14,3 km/h (3 Bft) S-SO 167 0 min 0,0 UV-I 4 W/m 4,2 C 1,1 C 20,9 km/h (4 Bft)
07.01.2023 16:51 6,4 C 5,6 C 86 % 1010,7 hPa 0,0 l/m 14,8 km/h (3 Bft) S 184 0 min 0,0 UV-I 0 W/m 4,2 C 0,9 C 25,7 km/h (4 Bft)
07.01.2023 16:54 6,4 C 5,6 C 86 % 1010,7 hPa 0,0 l/m 13,1 km/h (3 Bft) SO 146 0 min 0,0 UV-I 0 W/m 4,2 C 1,7 C 27,4 km/h (4 Bft)
07.01.2023 16:57 6,4 C 5,6 C 86 % 1010,6 hPa 0,0 l/m 15,8 km/h (3 Bft) S 186 0 min 0,0 UV-I 0 W/m 4,2 C 0,4 C 27,4 km/h (4 Bft)
07.01.2023 17:00 6,4 C 5,6 C 86 % 1010,6 hPa 0,0 l/m 14,7 km/h (3 Bft) SO 139 0 min 0,0 UV-I 0 W/m 4,2 C 0,9 C 25,7 km/h (4 Bft)
07.01.2023 17:03 6,3 C 5,6 C 86 % 1010,6 hPa 0,0 l/m 16,9 km/h (3 Bft) S-SO 148 0 min 0,0 UV-I 0 W/m 4,1 C -0,2 C 29,0 km/h (5 Bft)
07.01.2023 17:06 6,3 C 5,6 C 86 % 1010,7 hPa 0,0 l/m 13,8 km/h (3 Bft) S-SO 162 0 min 0,0 UV-I 0 W/m 4,1 C 1,3 C 24,1 km/h (4 Bft)
07.01.2023 17:09 6,3 C 5,0 C 87 % 1010,7 hPa 0,0 l/m 12,5 km/h (3 Bft) S 185 0 min 0,0 UV-I 0 W/m 4,3 C 2,0 C 19,3 km/h (3 Bft)
07.01.2023 17:12 6,3 C 5,6 C 87 % 1010,7 hPa 0,0 l/m 12,9 km/h (3 Bft) S-SO 163 0 min 0,0 UV-I 0 W/m 4,3 C 1,7 C 20,9 km/h (4 Bft)
07.01.2023 17:15 6,3 C 5,6 C 87 % 1010,8 hPa 0,0 l/m 12,1 km/h (2 Bft) S 180 0 min 0,0 UV-I 0 W/m 4,3 C 2,2 C 19,3 km/h (3 Bft)
07.01.2023 17:18 6,3 C 5,6 C 87 % 1010,7 hPa 0,0 l/m 15,8 km/h (3 Bft) SO 126 0 min 0,0 UV-I 0 W/m 4,3 C 0,3 C 25,7 km/h (4 Bft)
07.01.2023 17:21 6,3 C 5,6 C 87 % 1010,8 hPa 0,0 l/m 17,5 km/h (3 Bft) S-SO 163 0 min 0,0 UV-I 0 W/m 4,3 C -0,5 C 27,4 km/h (4 Bft)
07.01.2023 17:24 6,3 C 5,6 C 87 % 1010,8 hPa 0,0 l/m 14,6 km/h (3 Bft) S 175 0 min 0,0 UV-I 0 W/m 4,3 C 0,8 C 24,1 km/h (4 Bft)
07.01.2023 17:27 6,3 C 5,6 C 87 % 1010,7 hPa 0,0 l/m 15,8 km/h (3 Bft) SO 144 0 min 0,0 UV-I 0 W/m 4,3 C 0,3 C 24,1 km/h (4 Bft)
07.01.2023 17:30 6,3 C 5,6 C 87 % 1010,8 hPa 0,0 l/m 14,1 km/h (3 Bft) S 177 0 min 0,0 UV-I 0 W/m 4,3 C 1,1 C 27,4 km/h (4 Bft)
07.01.2023 17:33 6,3 C 5,6 C 87 % 1010,8 hPa 0,0 l/m 14,1 km/h (3 Bft) S-SO 153 0 min 0,0 UV-I 0 W/m 4,3 C 1,1 C 27,4 km/h (4 Bft)
07.01.2023 17:36 6,3 C 5,0 C 87 % 1010,8 hPa 0,0 l/m 14,1 km/h (3 Bft) S 189 0 min 0,0 UV-I 0 W/m 4,3 C 1,1 C 20,9 km/h (4 Bft)
07.01.2023 17:39 6,3 C 5,6 C 87 % 1010,7 hPa 0,0 l/m 14,7 km/h (3 Bft) S 175 0 min 0,0 UV-I 0 W/m 4,3 C 0,8 C 25,7 km/h (4 Bft)
07.01.2023 17:42 6,2 C 5,0 C 87 % 1010,6 hPa 0,0 l/m 16,2 km/h (3 Bft) S 180 0 min 0,0 UV-I 0 W/m 4,2 C -0,0 C 25,7 km/h (4 Bft)
07.01.2023 17:45 6,2 C 5,6 C 87 % 1010,5 hPa 0,0 l/m 14,3 km/h (3 Bft) S-SO 167 0 min 0,0 UV-I 0 W/m 4,2 C 0,9 C 20,9 km/h (4 Bft)
07.01.2023 17:48 6,2 C 5,6 C 87 % 1010,6 hPa 0,0 l/m 13,1 km/h (3 Bft) S 180 0 min 0,0 UV-I 0 W/m 4,2 C 1,5 C 25,7 km/h (4 Bft)
07.01.2023 17:51 6,2 C 5,6 C 88 % 1010,7 hPa 0,0 l/m 13,9 km/h (3 Bft) S 170 0 min 0,0 UV-I 0 W/m 4,4 C 1,1 C 24,1 km/h (4 Bft)
07.01.2023 17:54 6,2 C 5,0 C 88 % 1010,6 hPa 0,0 l/m 11,8 km/h (2 Bft) S-SO 149 0 min 0,0 UV-I 0 W/m 4,4 C 2,3 C 19,3 km/h (3 Bft)
07.01.2023 17:57 6,2 C 5,6 C 88 % 1010,7 hPa 0,0 l/m 11,3 km/h (2 Bft) S 175 0 min 0,0 UV-I 0 W/m 4,4 C 2,6 C 20,9 km/h (4 Bft)
07.01.2023 18:00 6,2 C 5,0 C 88 % 1010,7 hPa 0,0 l/m 12,7 km/h (3 Bft) S 178 0 min 0,0 UV-I 0 W/m 4,4 C 1,7 C 22,5 km/h (4 Bft)
07.01.2023 18:03 6,2 C 5,6 C 88 % 1010,6 hPa 0,0 l/m 14,5 km/h (3 Bft) SO 141 0 min 0,0 UV-I 0 W/m 4,4 C 0,8 C 27,4 km/h (4 Bft)
07.01.2023 18:06 6,2 C 5,6 C 88 % 1010,6 hPa 0,0 l/m 12,2 km/h (2 Bft) S 171 0 min 0,0 UV-I 0 W/m 4,4 C 2,0 C 24,1 km/h (4 Bft)
07.01.2023 18:09 6,2 C 5,6 C 88 % 1010,6 hPa 0,0 l/m 12,1 km/h (2 Bft) S-SO 167 0 min 0,0 UV-I 0 W/m 4,4 C 2,1 C 17,7 km/h (3 Bft)
07.01.2023 18:12 6,2 C 5,6 C 88 % 1010,6 hPa 0,0 l/m 14,1 km/h (3 Bft) S 169 0 min 0,0 UV-I 0 W/m 4,4 C 1,0 C 25,7 km/h (4 Bft)
07.01.2023 18:15 6,3 C 5,6 C 88 % 1010,5 hPa 0,0 l/m 15,3 km/h (3 Bft) S 178 0 min 0,0 UV-I 0 W/m 4,5 C 0,5 C 20,9 km/h (4 Bft)
07.01.2023 18:18 6,3 C 5,6 C 88 % 1010,4 hPa 0,0 l/m 12,1 km/h (2 Bft) S-SO 159 0 min 0,0 UV-I 0 W/m 4,5 C 2,2 C 27,4 km/h (4 Bft)
07.01.2023 18:21 6,3 C 5,6 C 88 % 1010,5 hPa 0,0 l/m 12,6 km/h (3 Bft) S 171 0 min 0,0 UV-I 0 W/m 4,5 C 1,9 C 22,5 km/h (4 Bft)
07.01.2023 18:24 6,3 C 5,6 C 88 % 1010,3 hPa 0,0 l/m 10,7 km/h (2 Bft) SW 221 0 min 0,0 UV-I 0 W/m 4,5 C 3,0 C 20,9 km/h (4 Bft)
07.01.2023 18:27 6,3 C 5,6 C 87 % 1010,3 hPa 0,0 l/m 13,1 km/h (3 Bft) SO 127 0 min 0,0 UV-I 0 W/m 4,3 C 1,6 C 19,3 km/h (3 Bft)
07.01.2023 18:30 6,3 C 5,6 C 87 % 1010,5 hPa 0,0 l/m 13,8 km/h (3 Bft) S-SO 166 0 min 0,0 UV-I 0 W/m 4,3 C 1,3 C 24,1 km/h (4 Bft)
07.01.2023 18:33 6,3 C 6,1 C 87 % 1010,3 hPa 0,0 l/m 14,2 km/h (3 Bft) SO 144 0 min 0,0 UV-I 0 W/m 4,3 C 1,1 C 24,1 km/h (4 Bft)
07.01.2023 18:36 6,4 C 6,1 C 87 % 1010,3 hPa 0,0 l/m 12,0 km/h (2 Bft) S-SO 150 0 min 0,0 UV-I 0 W/m 4,4 C 2,4 C 17,7 km/h (3 Bft)
07.01.2023 18:39 6,4 C 6,1 C 87 % 1010,2 hPa 0,0 l/m 13,7 km/h (3 Bft) SO 145 0 min 0,0 UV-I 0 W/m 4,4 C 1,4 C 22,5 km/h (4 Bft)
07.01.2023 18:42 6,6 C 6,1 C 87 % 1010,3 hPa 0,0 l/m 14,1 km/h (3 Bft) S-SW 192 0 min 0,0 UV-I 0 W/m 4,6 C 1,5 C 22,5 km/h (4 Bft)
07.01.2023 18:45 6,6 C 6,1 C 87 % 1010,2 hPa 0,0 l/m 13,9 km/h (3 Bft) S-SO 155 0 min 0,0 UV-I 0 W/m 4,6 C 1,6 C 25,7 km/h (4 Bft)
07.01.2023 18:48 6,6 C 6,1 C 86 % 1010,2 hPa 0,0 l/m 14,1 km/h (3 Bft) S-SO 148 0 min 0,0 UV-I 0 W/m 4,4 C 1,5 C 20,9 km/h (4 Bft)
07.01.2023 18:51 6,6 C 6,1 C 86 % 1010,1 hPa 0,0 l/m 15,1 km/h (3 Bft) SO 142 0 min 0,0 UV-I 0 W/m 4,4 C 1,0 C 24,1 km/h (4 Bft)
07.01.2023 18:54 6,7 C 6,1 C 86 % 1010,0 hPa 0,0 l/m 16,3 km/h (3 Bft) S-SO 152 0 min 0,0 UV-I 0 W/m 4,5 C 0,5 C 27,4 km/h (4 Bft)
07.01.2023 18:57 6,7 C 6,1 C 87 % 1010,0 hPa 0,0 l/m 18,9 km/h (3 Bft) SO 131 0 min 0,0 UV-I 0 W/m 4,7 C -0,6 C 32,2 km/h (5 Bft)
07.01.2023 19:00 6,7 C 6,1 C 86 % 1010,0 hPa 0,0 l/m 20,3 km/h (4 Bft) SO 138 0 min 0,0 UV-I 0 W/m 4,5 C -1,1 C 32,2 km/h (5 Bft)
07.01.2023 19:03 6,7 C 6,1 C 86 % 1009,8 hPa 0,0 l/m 18,3 km/h (3 Bft) S-SO 150 0 min 0,0 UV-I 0 W/m 4,5 C -0,3 C 33,8 km/h (5 Bft)
07.01.2023 19:06 6,7 C 6,1 C 86 % 1009,8 hPa 0,0 l/m 20,3 km/h (4 Bft) SO 131 0 min 0,0 UV-I 0 W/m 4,5 C -1,1 C 29,0 km/h (5 Bft)
07.01.2023 19:09 6,7 C 6,1 C 86 % 1009,8 hPa 0,0 l/m 20,1 km/h (4 Bft) S 175 0 min 0,0 UV-I 0 W/m 4,5 C -1,0 C 30,6 km/h (5 Bft)
07.01.2023 19:12 6,8 C 6,1 C 86 % 1009,8 hPa 0,0 l/m 20,4 km/h (4 Bft) S-SO 158 0 min 0,0 UV-I 0 W/m 4,6 C -1,0 C 29,0 km/h (5 Bft)
07.01.2023 19:15 6,8 C 6,1 C 86 % 1009,7 hPa 0,0 l/m 19,3 km/h (3 Bft) SO 140 0 min 0,0 UV-I 0 W/m 4,6 C -0,6 C 32,2 km/h (5 Bft)
07.01.2023 19:18 6,8 C 5,6 C 86 % 1009,6 hPa 0,0 l/m 14,8 km/h (3 Bft) S 190 0 min 0,0 UV-I 0 W/m 4,6 C 1,4 C 25,7 km/h (4 Bft)
07.01.2023 19:21 6,7 C 6,1 C 86 % 1009,8 hPa 0,0 l/m 20,7 km/h (4 Bft) SO 140 0 min 0,0 UV-I 0 W/m 4,5 C -1,2 C 32,2 km/h (5 Bft)
07.01.2023 19:24 6,8 C 6,1 C 85 % 1009,8 hPa 0,0 l/m 20,2 km/h (4 Bft) S 172 0 min 0,0 UV-I 0 W/m 4,5 C -0,9 C 32,2 km/h (5 Bft)
07.01.2023 19:27 6,8 C 6,1 C 85 % 1009,7 hPa 0,0 l/m 20,2 km/h (4 Bft) S 169 0 min 0,0 UV-I 0 W/m 4,5 C -0,9 C 33,8 km/h (5 Bft)
07.01.2023 19:30 6,8 C 6,1 C 85 % 1009,8 hPa 0,0 l/m 19,4 km/h (3 Bft) S-SO 161 0 min 0,0 UV-I 0 W/m 4,5 C -0,6 C 33,8 km/h (5 Bft)
07.01.2023 19:33 6,8 C 6,1 C 85 % 1009,7 hPa 0,0 l/m 18,2 km/h (3 Bft) S-SO 160 0 min 0,0 UV-I 0 W/m 4,5 C -0,2 C 29,0 km/h (5 Bft)
07.01.2023 19:36 6,8 C 6,1 C 84 % 1009,5 hPa 0,0 l/m 20,0 km/h (4 Bft) S 185 0 min 0,0 UV-I 0 W/m 4,3 C -0,8 C 29,0 km/h (5 Bft)
07.01.2023 19:39 6,8 C 6,1 C 84 % 1009,2 hPa 0,0 l/m 21,3 km/h (4 Bft) S-SW 194 0 min 0,0 UV-I 0 W/m 4,3 C -1,3 C 43,5 km/h (6 Bft)
07.01.2023 19:42 6,8 C 6,1 C 84 % 1009,7 hPa 0,0 l/m 20,2 km/h (4 Bft) S-SW 207 0 min 0,0 UV-I 0 W/m 4,3 C -0,9 C 32,2 km/h (5 Bft)
07.01.2023 19:45 6,9 C 6,1 C 84 % 1009,8 hPa 0,0 l/m 18,1 km/h (3 Bft) S-SO 159 0 min 0,0 UV-I 0 W/m 4,4 C 0,0 C 30,6 km/h (5 Bft)
07.01.2023 19:48 6,9 C 6,1 C 84 % 1009,8 hPa 0,0 l/m 21,7 km/h (4 Bft) S 178 0 min 0,0 UV-I 0 W/m 4,4 C -1,3 C 33,8 km/h (5 Bft)
07.01.2023 19:51 6,9 C 6,7 C 83 % 1009,7 hPa 0,0 l/m 17,9 km/h (3 Bft) S 176 0 min 0,0 UV-I 0 W/m 4,2 C 0,1 C 38,6 km/h (5 Bft)
07.01.2023 19:54 6,9 C 6,7 C 83 % 1009,7 hPa 0,0 l/m 17,1 km/h (3 Bft) S 176 0 min 0,0 UV-I 0 W/m 4,2 C 0,4 C 29,0 km/h (5 Bft)
07.01.2023 19:57 6,9 C 6,7 C 83 % 1009,8 hPa 0,0 l/m 18,7 km/h (3 Bft) S 174 0 min 0,0 UV-I 0 W/m 4,2 C -0,2 C 30,6 km/h (5 Bft)
07.01.2023 20:00 6,9 C 6,7 C 83 % 1009,7 hPa 0,0 l/m 19,3 km/h (3 Bft) S-SW 202 0 min 0,0 UV-I 0 W/m 4,2 C -0,5 C 37,0 km/h (5 Bft)
07.01.2023 20:03 7,0 C 6,7 C 83 % 1009,8 hPa 0,0 l/m 20,6 km/h (4 Bft) S-SW 203 0 min 0,0 UV-I 0 W/m 4,3 C -0,8 C 32,2 km/h (5 Bft)
07.01.2023 20:06 7,1 C 6,7 C 82 % 1009,8 hPa 0,0 l/m 24,7 km/h (4 Bft) SW 220 0 min 0,0 UV-I 0 W/m 4,2 C -2,0 C 38,6 km/h (5 Bft)
07.01.2023 20:09 7,1 C 6,7 C 82 % 1009,8 hPa 0,0 l/m 21,9 km/h (4 Bft) S-SW 207 0 min 0,0 UV-I 0 W/m 4,2 C -1,1 C 37,0 km/h (5 Bft)
07.01.2023 20:12 7,1 C 6,1 C 82 % 1009,7 hPa 0,0 l/m 25,9 km/h (4 Bft) S-SW 194 0 min 0,0 UV-I 0 W/m 4,2 C -2,4 C 38,6 km/h (5 Bft)
07.01.2023 20:15 7,1 C 6,1 C 82 % 1009,7 hPa 0,0 l/m 23,6 km/h (4 Bft) S-SW 211 0 min 0,0 UV-I 0 W/m 4,2 C -1,7 C 33,8 km/h (5 Bft)
07.01.2023 20:18 7,1 C 6,1 C 82 % 1009,8 hPa 0,0 l/m 20,3 km/h (4 Bft) S 190 0 min 0,0 UV-I 0 W/m 4,2 C -0,6 C 32,2 km/h (5 Bft)
07.01.2023 20:21 7,1 C 6,1 C 82 % 1009,9 hPa 0,0 l/m 17,7 km/h (3 Bft) S-SO 161 0 min 0,0 UV-I 0 W/m 4,2 C 0,4 C 32,2 km/h (5 Bft)
07.01.2023 20:24 7,1 C 6,1 C 82 % 1009,8 hPa 0,0 l/m 15,4 km/h (3 Bft) S-SW 200 0 min 0,0 UV-I 0 W/m 4,2 C 1,4 C 24,1 km/h (4 Bft)
07.01.2023 20:27 7,1 C 6,7 C 82 % 1009,8 hPa 0,0 l/m 19,6 km/h (3 Bft) S 170 0 min 0,0 UV-I 0 W/m 4,2 C -0,3 C 38,6 km/h (5 Bft)
07.01.2023 20:30 7,1 C 6,1 C 82 % 1009,7 hPa 0,0 l/m 20,2 km/h (4 Bft) S-SW 194 0 min 0,0 UV-I 0 W/m 4,2 C -0,5 C 27,4 km/h (4 Bft)
07.01.2023 20:33 7,1 C 6,1 C 82 % 1009,7 hPa 0,0 l/m 15,4 km/h (3 Bft) S 184 0 min 0,0 UV-I 0 W/m 4,2 C 1,4 C 25,7 km/h (4 Bft)
07.01.2023 20:36 7,1 C 6,7 C 83 % 1009,7 hPa 0,0 l/m 17,6 km/h (3 Bft) S-SO 158 0 min 0,0 UV-I 0 W/m 4,4 C 0,5 C 25,7 km/h (4 Bft)
07.01.2023 20:39 7,1 C 6,7 C 82 % 1009,7 hPa 0,0 l/m 12,6 km/h (3 Bft) S 180 0 min 0,0 UV-I 0 W/m 4,2 C 2,8 C 22,5 km/h (4 Bft)
07.01.2023 20:42 7,1 C 6,7 C 83 % 1009,7 hPa 0,0 l/m 13,0 km/h (3 Bft) S 180 0 min 0,0 UV-I 0 W/m 4,4 C 2,6 C 19,3 km/h (3 Bft)
07.01.2023 20:45 7,1 C 6,7 C 83 % 1009,8 hPa 0,0 l/m 15,2 km/h (3 Bft) SW 227 0 min 0,0 UV-I 0 W/m 4,4 C 1,5 C 25,7 km/h (4 Bft)
07.01.2023 20:48 7,1 C 6,7 C 83 % 1009,8 hPa 0,0 l/m 16,2 km/h (3 Bft) S-SO 162 0 min 0,0 UV-I 0 W/m 4,4 C 1,1 C 32,2 km/h (5 Bft)
07.01.2023 20:51 7,1 C 6,7 C 83 % 1009,7 hPa 0,0 l/m 16,5 km/h (3 Bft) S-SO 164 0 min 0,0 UV-I 0 W/m 4,4 C 0,9 C 32,2 km/h (5 Bft)
07.01.2023 20:54 7,1 C 6,7 C 83 % 1009,7 hPa 0,0 l/m 21,2 km/h (4 Bft) S 177 0 min 0,0 UV-I 0 W/m 4,4 C -0,9 C 37,0 km/h (5 Bft)
07.01.2023 20:57 7,1 C 6,7 C 83 % 1009,7 hPa 0,0 l/m 20,7 km/h (4 Bft) S-SW 203 0 min 0,0 UV-I 0 W/m 4,4 C -0,7 C 32,2 km/h (5 Bft)
07.01.2023 21:00 7,1 C 6,1 C 83 % 1009,7 hPa 0,0 l/m 20,1 km/h (4 Bft) S-SW 194 0 min 0,0 UV-I 0 W/m 4,4 C -0,5 C 29,0 km/h (5 Bft)
07.01.2023 21:03 7,0 C 6,1 C 84 % 1009,8 hPa 0,0 l/m 19,6 km/h (3 Bft) S 180 0 min 0,0 UV-I 0 W/m 4,5 C -0,4 C 27,4 km/h (4 Bft)
07.01.2023 21:06 6,9 C 5,6 C 84 % 1009,7 hPa 0,0 l/m 17,0 km/h (3 Bft) S-SO 161 0 min 0,0 UV-I 0 W/m 4,4 C 0,5 C 27,4 km/h (4 Bft)
07.01.2023 21:09 6,8 C 5,6 C 85 % 1009,7 hPa 0,0 l/m 14,7 km/h (3 Bft) S 170 0 min 0,0 UV-I 0 W/m 4,5 C 1,4 C 25,7 km/h (4 Bft)
07.01.2023 21:12 6,8 C 5,6 C 86 % 1009,7 hPa 0,0 l/m 15,7 km/h (3 Bft) S-SW 194 0 min 0,0 UV-I 0 W/m 4,6 C 0,9 C 25,7 km/h (4 Bft)
07.01.2023 21:15 6,7 C 5,6 C 86 % 1009,7 hPa 0,0 l/m 16,8 km/h (3 Bft) S-SO 157 0 min 0,0 UV-I 0 W/m 4,5 C 0,3 C 24,1 km/h (4 Bft)
07.01.2023 21:18 6,7 C 5,6 C 86 % 1009,6 hPa 0,0 l/m 17,1 km/h (3 Bft) S-SW 198 0 min 0,0 UV-I 0 W/m 4,5 C 0,2 C 27,4 km/h (4 Bft)
07.01.2023 21:21 6,6 C 5,6 C 87 % 1009,7 hPa 0,0 l/m 16,4 km/h (3 Bft) S 184 0 min 0,0 UV-I 0 W/m 4,6 C 0,4 C 27,4 km/h (4 Bft)
07.01.2023 21:24 6,6 C 5,6 C 87 % 1009,5 hPa 0,0 l/m 20,1 km/h (4 Bft) S 190 0 min 0,0 UV-I 0 W/m 4,6 C -1,1 C 30,6 km/h (5 Bft)
07.01.2023 21:27 6,6 C 5,6 C 87 % 1009,6 hPa 0,0 l/m 16,9 km/h (3 Bft) S-SW 196 0 min 0,0 UV-I 0 W/m 4,6 C 0,1 C 32,2 km/h (5 Bft)
07.01.2023 21:30 6,6 C 5,6 C 88 % 1009,5 hPa 0,0 l/m 19,1 km/h (3 Bft) S-SO 165 0 min 0,0 UV-I 0 W/m 4,8 C -0,8 C 29,0 km/h (5 Bft)
07.01.2023 21:33 6,6 C 5,6 C 88 % 1009,6 hPa 0,0 l/m 14,8 km/h (3 Bft) S 178 0 min 0,0 UV-I 0 W/m 4,8 C 1,1 C 24,1 km/h (4 Bft)
07.01.2023 21:36 6,5 C 5,6 C 88 % 1009,6 hPa 0,0 l/m 18,5 km/h (3 Bft) S-SW 192 0 min 0,0 UV-I 0 W/m 4,7 C -0,7 C 30,6 km/h (5 Bft)
07.01.2023 21:39 6,6 C 5,6 C 88 % 1009,4 hPa 0,0 l/m 17,9 km/h (3 Bft) S-SW 198 0 min 0,0 UV-I 0 W/m 4,8 C -0,3 C 24,1 km/h (4 Bft)
07.01.2023 21:42 6,5 C 5,6 C 88 % 1009,3 hPa 0,0 l/m 18,7 km/h (3 Bft) S 188 0 min 0,0 UV-I 0 W/m 4,7 C -0,7 C 29,0 km/h (5 Bft)
07.01.2023 21:45 6,5 C 5,6 C 88 % 1009,4 hPa 0,0 l/m 14,5 km/h (3 Bft) S 187 0 min 0,0 UV-I 0 W/m 4,7 C 1,1 C 27,4 km/h (4 Bft)
07.01.2023 21:48 6,5 C 5,6 C 88 % 1009,3 hPa 0,0 l/m 18,2 km/h (3 Bft) S 175 0 min 0,0 UV-I 0 W/m 4,7 C -0,5 C 29,0 km/h (5 Bft)
07.01.2023 21:51 6,5 C 5,6 C 89 % 1009,2 hPa 0,0 l/m 19,2 km/h (3 Bft) S-SW 196 0 min 0,0 UV-I 0 W/m 4,8 C -0,9 C 29,0 km/h (5 Bft)
07.01.2023 21:54 6,5 C 5,6 C 89 % 1009,1 hPa 0,0 l/m 19,9 km/h (4 Bft) S-SW 204 0 min 0,0 UV-I 0 W/m 4,8 C -1,2 C 43,5 km/h (6 Bft)
07.01.2023 21:57 6,4 C 5,6 C 89 % 1008,9 hPa 0,0 l/m 17,9 km/h (3 Bft) S 183 0 min 0,0 UV-I 0 W/m 4,7 C -0,5 C 32,2 km/h (5 Bft)
07.01.2023 22:00 6,4 C 5,6 C 89 % 1008,9 hPa 0,0 l/m 20,9 km/h (4 Bft) SO 137 0 min 0,0 UV-I 0 W/m 4,7 C -1,7 C 46,7 km/h (6 Bft)
07.01.2023 22:03 6,4 C 5,6 C 89 % 1009,0 hPa 0,0 l/m 18,2 km/h (3 Bft) S 190 0 min 0,0 UV-I 0 W/m 4,7 C -0,7 C 33,8 km/h (5 Bft)
07.01.2023 22:06 6,4 C 5,6 C 89 % 1009,1 hPa 0,0 l/m 17,9 km/h (3 Bft) S 179 0 min 0,0 UV-I 0 W/m 4,7 C -0,5 C 32,2 km/h (5 Bft)
07.01.2023 22:09 6,4 C 5,6 C 89 % 1009,1 hPa 0,0 l/m 19,8 km/h (3 Bft) S 171 0 min 0,0 UV-I 0 W/m 4,7 C -1,3 C 35,4 km/h (5 Bft)
07.01.2023 22:12 6,4 C 5,6 C 89 % 1009,1 hPa 0,0 l/m 20,4 km/h (4 Bft) S 170 0 min 0,0 UV-I 0 W/m 4,7 C -1,5 C 33,8 km/h (5 Bft)
07.01.2023 22:15 6,4 C 5,6 C 89 % 1009,0 hPa 0,0 l/m 22,4 km/h (4 Bft) S 184 0 min 0,0 UV-I 0 W/m 4,7 C -2,2 C 45,1 km/h (6 Bft)
07.01.2023 22:18 6,4 C 5,6 C 90 % 1009,2 hPa 0,0 l/m 18,6 km/h (3 Bft) S 190 0 min 0,0 UV-I 0 W/m 4,9 C -0,8 C 40,2 km/h (6 Bft)
07.01.2023 22:21 6,4 C 5,6 C 90 % 1008,9 hPa 0,2 l/m 26,9 km/h (4 Bft) S-SO 163 0 min 0,0 UV-I 0 W/m 4,9 C -3,6 C 40,2 km/h (6 Bft)
07.01.2023 22:24 6,4 C 5,6 C 90 % 1009,0 hPa 0,0 l/m 20,7 km/h (4 Bft) S-SW 205 0 min 0,0 UV-I 0 W/m 4,9 C -1,6 C 45,1 km/h (6 Bft)
07.01.2023 22:27 6,4 C 5,6 C 90 % 1008,9 hPa 0,0 l/m 20,5 km/h (4 Bft) SO 145 0 min 0,0 UV-I 0 W/m 4,9 C -1,5 C 38,6 km/h (5 Bft)
07.01.2023 22:30 6,4 C 5,6 C 90 % 1008,9 hPa 0,0 l/m 23,4 km/h (4 Bft) S 180 0 min 0,0 UV-I 0 W/m 4,9 C -2,5 C 51,5 km/h (7 Bft)
07.01.2023 22:33 6,4 C 5,6 C 90 % 1008,9 hPa 0,0 l/m 20,5 km/h (4 Bft) S 179 0 min 0,0 UV-I 0 W/m 4,9 C -1,5 C 30,6 km/h (5 Bft)
07.01.2023 22:36 6,4 C 5,6 C 90 % 1008,9 hPa 0,0 l/m 16,8 km/h (3 Bft) S-SW 205 0 min 0,0 UV-I 0 W/m 4,9 C -0,1 C 25,7 km/h (4 Bft)
07.01.2023 22:39 6,4 C 5,6 C 90 % 1008,7 hPa 0,0 l/m 18,4 km/h (3 Bft) S 171 0 min 0,0 UV-I 0 W/m 4,9 C -0,7 C 35,4 km/h (5 Bft)
07.01.2023 22:42 6,4 C 5,6 C 90 % 1008,8 hPa 0,0 l/m 19,7 km/h (3 Bft) S-SO 167 0 min 0,0 UV-I 0 W/m 4,9 C -1,2 C 30,6 km/h (5 Bft)
07.01.2023 22:45 6,4 C 5,6 C 90 % 1008,8 hPa 0,0 l/m 20,9 km/h (4 Bft) S 182 0 min 0,0 UV-I 0 W/m 4,9 C -1,7 C 37,0 km/h (5 Bft)
07.01.2023 22:48 6,4 C 5,6 C 90 % 1008,8 hPa 0,0 l/m 20,4 km/h (4 Bft) S 191 0 min 0,0 UV-I 0 W/m 4,9 C -1,5 C 37,0 km/h (5 Bft)
07.01.2023 22:51 6,4 C 5,6 C 90 % 1008,9 hPa 0,0 l/m 23,0 km/h (4 Bft) S-SW 199 0 min 0,0 UV-I 0 W/m 4,9 C -2,4 C 43,5 km/h (6 Bft)
07.01.2023 22:54 6,5 C 5,6 C 90 % 1008,7 hPa 0,0 l/m 26,6 km/h (4 Bft) S 186 0 min 0,0 UV-I 0 W/m 5,0 C -3,4 C 40,2 km/h (6 Bft)
07.01.2023 22:57 6,5 C 5,6 C 90 % 1008,7 hPa 0,0 l/m 20,5 km/h (4 Bft) S 182 0 min 0,0 UV-I 0 W/m 5,0 C -1,4 C 35,4 km/h (5 Bft)
07.01.2023 23:00 6,5 C 5,6 C 90 % 1008,7 hPa 0,0 l/m 20,4 km/h (4 Bft) S 170 0 min 0,0 UV-I 0 W/m 5,0 C -1,4 C 35,4 km/h (5 Bft)
07.01.2023 23:03 6,5 C 5,6 C 90 % 1008,7 hPa 0,0 l/m 23,1 km/h (4 Bft) S-SW 197 0 min 0,0 UV-I 0 W/m 5,0 C -2,3 C 41,8 km/h (6 Bft)
07.01.2023 23:06 6,5 C 5,6 C 90 % 1008,6 hPa 0,0 l/m 23,6 km/h (4 Bft) S 170 0 min 0,0 UV-I 0 W/m 5,0 C -2,5 C 43,5 km/h (6 Bft)
07.01.2023 23:09 6,5 C 5,6 C 90 % 1008,5 hPa 0,0 l/m 15,2 km/h (3 Bft) S-SO 164 0 min 0,0 UV-I 0 W/m 5,0 C 0,8 C 22,5 km/h (4 Bft)
07.01.2023 23:12 6,5 C 5,6 C 90 % 1008,6 hPa 0,0 l/m 18,8 km/h (3 Bft) S-SW 202 0 min 0,0 UV-I 0 W/m 5,0 C -0,8 C 33,8 km/h (5 Bft)
07.01.2023 23:15 6,5 C 5,6 C 90 % 1008,5 hPa 0,0 l/m 22,7 km/h (4 Bft) S 182 0 min 0,0 UV-I 0 W/m 5,0 C -2,2 C 41,8 km/h (6 Bft)
07.01.2023 23:18 6,6 C 5,6 C 91 % 1008,5 hPa 0,0 l/m 22,8 km/h (4 Bft) S 175 0 min 0,0 UV-I 0 W/m 5,2 C -2,1 C 33,8 km/h (5 Bft)
07.01.2023 23:21 6,6 C 5,6 C 91 % 1008,5 hPa 0,0 l/m 19,9 km/h (4 Bft) SW 225 0 min 0,0 UV-I 0 W/m 5,2 C -1,1 C 37,0 km/h (5 Bft)
07.01.2023 23:24 6,6 C 5,6 C 91 % 1008,4 hPa 0,0 l/m 24,0 km/h (4 Bft) S 178 0 min 0,0 UV-I 0 W/m 5,2 C -2,5 C 35,4 km/h (5 Bft)
07.01.2023 23:27 6,6 C 5,6 C 91 % 1008,4 hPa 0,0 l/m 23,7 km/h (4 Bft) S 191 0 min 0,0 UV-I 0 W/m 5,2 C -2,4 C 40,2 km/h (6 Bft)
07.01.2023 23:30 6,6 C 6,1 C 91 % 1008,4 hPa 0,0 l/m 25,5 km/h (4 Bft) S-SW 211 0 min 0,0 UV-I 0 W/m 5,2 C -2,9 C 45,1 km/h (6 Bft)
07.01.2023 23:33 6,6 C 6,1 C 91 % 1008,4 hPa 0,0 l/m 20,0 km/h (4 Bft) S 188 0 min 0,0 UV-I 0 W/m 5,2 C -1,1 C 37,0 km/h (5 Bft)
07.01.2023 23:36 6,6 C 6,1 C 91 % 1008,4 hPa 0,0 l/m 21,8 km/h (4 Bft) S 172 0 min 0,0 UV-I 0 W/m 5,2 C -1,7 C 37,0 km/h (5 Bft)
07.01.2023 23:39 6,6 C 6,1 C 91 % 1008,4 hPa 0,0 l/m 21,9 km/h (4 Bft) S-SO 159 0 min 0,0 UV-I 0 W/m 5,2 C -1,8 C 38,6 km/h (5 Bft)
07.01.2023 23:42 6,7 C 6,1 C 91 % 1008,3 hPa 0,0 l/m 21,6 km/h (4 Bft) S-SO 161 0 min 0,0 UV-I 0 W/m 5,3 C -1,5 C 33,8 km/h (5 Bft)
07.01.2023 23:45 6,7 C 6,1 C 91 % 1008,3 hPa 0,0 l/m 24,7 km/h (4 Bft) S-SW 197 0 min 0,0 UV-I 0 W/m 5,3 C -2,5 C 38,6 km/h (5 Bft)
07.01.2023 23:48 6,7 C 6,1 C 91 % 1008,3 hPa 0,0 l/m 24,5 km/h (4 Bft) S 190 0 min 0,0 UV-I 0 W/m 5,3 C -2,5 C 43,5 km/h (6 Bft)
07.01.2023 23:51 6,7 C 6,1 C 91 % 1008,2 hPa 0,0 l/m 27,2 km/h (4 Bft) S 178 0 min 0,0 UV-I 0 W/m 5,3 C -3,3 C 38,6 km/h (5 Bft)
07.01.2023 23:54 6,7 C 6,1 C 91 % 1008,4 hPa 0,0 l/m 26,9 km/h (4 Bft) S-SW 193 0 min 0,0 UV-I 0 W/m 5,3 C -3,2 C 45,1 km/h (6 Bft)
07.01.2023 23:57 6,7 C 6,1 C 91 % 1008,4 hPa 0,0 l/m 20,5 km/h (4 Bft) SW 219 0 min 0,0 UV-I 0 W/m 5,3 C -1,2 C 33,8 km/h (5 Bft)
07.01.2023 23:58 6,7 C 6,1 C 91 % 1008,4 hPa 0,0 l/m 29,0 km/h (5 Bft) S-SW 202 0 min 0,0 UV-I 0 W/m 5,3 C -3,7 C 41,8 km/h (6 Bft)
07.01.2023 23:59 6,7 C 6,1 C 91 % 1008,4 hPa 0,0 l/m 29,0 km/h (5 Bft) S 180 0 min 0,0 UV-I 0 W/m 5,3 C -3,7 C 45,1 km/h (6 Bft)
_ Min-Zeit 18:00 17:09 20:06 23:51 - 02:49 - - - - - 17:03 23:58 02:49
Minimum _ 6,1 C 5,0 C 82 % 1008,2 hPa - 4,8 km/h (1 Bft) - - - - - 4,1 C -3,7 C 6,4 km/h (2 Bft)
_ Max-Zeit 00:00 12:48 00:00 00:01 00:41 23:58 - - 00:00 11:57 12:48 00:00 00:19 22:30
Maximum _ 7,9 C 7,8 C 92 % 1021,1 hPa 0,2 l/m 29,0 km/h
S-SW (5 Bft)
- - 0 min 0,6 UV-I 134 W/m 6,7 C 7,9 C 51,5 km/h
S (7 Bft)
Durchschnitt _ 6,9 C 6,4 C 88 % 1014,3 hPa #0,4 l/m 14,9 km/h (3 Bft) S - #0 min. 0,4 UV-I 68 W/m 5,1 C 1,7 C 24,2 km/h (4 Bft)